[[{"header":{"parameterUnit":"m.s-1","parameterCategory":1,"la1":31.0,"la2":29.5877,"lo1":-88.7671,"lo2":-86.6584,"dy":0.0162,"dx":0.0185,"nx":115,"ny":88,"refTime":"2024-02-23T06:00:00:Z","depth":0,"parameterNumber":2,"parameterNumberName":"U-component_of_WINDS"},"data":[0.0,0.0,0.0,0.0,0.0,0.0,0.0,0.0,0.0,0.0,0.0,0.0,0.0,0.0,0.0,0.0,0.0,0.0,0.0,0.0,0.0,0.0,0.0,0.0,0.0,0.0,0.0,0.0,0.0,0.0,0.0,0.0,0.0,0.0,0.0,0.0,0.0,0.0,0.0,0.0,0.0,0.0,0.0,0.0,0.0,0.0,0.0,0.0,0.0,0.0,0.0,0.0,0.0,0.0,0.0,0.0,0.0,0.0,0.0,0.0,0.0,0.0,0.0,0.0,0.0,0.0,0.0,0.0,0.0,0.0,0.0,0.0,0.0,0.0,0.0,0.0,0.0,0.0,0.0,0.0,0.0,0.0,0.0,0.0,0.0,0.0,0.0,0.0,0.0,0.0,0.0,0.0,0.0,0.0,0.0,0.0,0.0,0.0,0.0,0.0,0.0,0.0,0.0,0.0,0.0,0.0,0.0,0.0,0.0,0.0,0.0,0.0,0.0,0.0,0.0,0.0,0.0,0.0,0.0,0.0,0.0,0.0,0.0,0.0,0.0,0.0,0.0,0.0,0.0,0.0,0.0,0.0,0.0,0.0,0.0,0.0,0.0,0.0,0.0,0.0,0.0,0.0,0.0,0.0,0.0,0.0,0.0,0.0,0.0,0.0,0.0,0.0,0.0,0.0,0.0,0.0,0.0,0.0,0.0,0.0,0.0,0.0,0.0,0.0,0.0,0.0,0.0,0.0,0.0,0.0,0.0,0.0,0.0,0.0,0.0,0.0,0.0,0.0,0.0,0.0,0.0,0.0,0.0,0.0,0.0,0.0,0.0,0.0,0.0,0.0,0.0,0.0,0.0,0.0,0.0,0.0,0.0,0.0,0.0,0.0,0.0,0.0,0.0,0.0,0.0,0.0,0.0,0.0,0.0,0.0,0.0,0.0,0.0,0.0,0.0,0.0,0.0,0.0,0.0,0.0,0.0,0.0,0.0,0.0,0.0,0.0,0.0,0.0,0.0,0.0,0.0,0.0,0.0,0.0,0.0,0.0,0.0,0.0,0.0,0.0,0.0,0.0,0.0,0.0,0.0,0.0,0.0,0.0,0.0,0.0,0.0,0.0,0.0,0.0,0.0,0.0,0.0,0.0,0.0,0.0,0.0,0.0,0.0,0.0,0.0,0.0,0.0,0.0,0.0,0.0,0.0,0.0,0.0,0.0,0.0,0.0,0.0,0.0,0.0,0.0,0.0,0.0,0.0,0.0,0.0,0.0,0.0,0.0,0.0,0.0,0.0,0.0,0.0,0.0,0.0,0.0,0.0,0.0,0.0,0.0,0.0,0.0,0.0,0.0,0.0,0.0,0.0,0.0,0.0,0.0,0.0,0.0,0.0,0.0,0.0,0.0,0.0,0.0,0.0,0.0,0.0,0.0,0.0,0.0,0.0,0.0,0.0,0.0,0.0,0.0,0.0,0.0,0.0,0.0,0.0,0.0,0.0,0.0,0.0,0.0,0.0,0.0,0.0,0.0,0.0,0.0,0.0,0.0,0.0,0.0,0.0,0.0,0.0,0.0,0.0,0.0,0.0,0.0,0.0,0.0,0.0,0.0,0.0,0.0,0.0,0.0,0.0,0.0,0.0,0.0,0.0,0.0,0.0,0.0,0.0,0.0,0.0,0.0,0.0,0.0,0.0,0.0,0.0,0.0,0.0,0.0,0.0,0.0,0.0,0.0,0.0,0.0,0.0,0.0,0.0,0.0,0.0,0.0,0.0,0.0,0.0,0.0,0.0,0.0,0.0,0.0,0.0,0.0,0.0,0.0,0.0,0.0,0.0,0.0,0.0,0.0,0.0,0.0,0.0,0.0,0.0,0.0,0.0,0.0,0.0,0.0,0.0,0.0,0.0,0.0,0.0,0.0,0.0,0.0,0.0,0.0,0.0,0.0,0.0,0.0,0.0,0.0,0.0,0.0,0.0,0.0,0.0,0.0,0.0,0.0,0.0,0.0,0.0,0.0,0.0,0.0,0.0,0.0,0.0,0.0,0.0,0.0,0.0,0.0,0.0,0.0,0.0,0.0,0.0,0.0,0.0,0.0,0.0,0.0,0.0,0.0,0.0,0.0,0.0,0.0,0.0,0.0,0.0,0.0,0.0,0.0,0.0,0.0,0.0,0.0,0.0,0.0,0.0,0.0,0.0,0.0,0.0,0.0,0.0,0.0,0.0,0.0,0.0,0.0,0.0,0.0,0.0,0.0,0.0,0.0,0.0,0.0,0.0,0.0,0.0,0.0,0.0,0.0,0.0,0.0,0.0,0.0,0.0,0.0,0.0,0.0,0.0,0.0,0.0,0.0,0.0,0.0,0.0,0.0,0.0,0.0,0.0,0.0,0.0,0.0,0.0,0.0,0.0,0.0,0.0,0.0,0.0,0.0,0.0,0.0,0.0,0.0,0.0,0.0,0.0,0.0,0.0,0.0,0.0,0.0,0.0,0.0,0.0,0.0,0.0,0.0,0.0,0.0,0.0,0.0,0.0,0.0,0.0,0.0,0.0,0.0,0.0,0.0,0.0,0.0,0.0,0.0,0.0,0.0,0.0,0.0,0.0,0.0,0.0,0.0,0.0,0.0,0.0,0.0,0.0,0.0,0.0,0.0,0.0,0.0,0.0,0.0,0.0,0.0,0.0,0.0,0.0,0.0,0.0,0.0,0.0,0.0,0.0,0.0,0.0,0.0,0.0,0.0,0.0,0.0,0.0,0.0,0.0,0.0,0.0,0.0,0.0,0.0,0.0,0.0,0.0,0.0,0.0,0.0,0.0,0.0,0.0,0.0,0.0,0.0,0.0,0.0,0.0,0.0,0.0,0.0,0.0,0.0,0.0,0.0,0.0,0.0,0.0,0.0,0.0,0.0,0.0,0.0,0.0,0.0,0.0,0.0,0.0,0.0,0.0,0.0,0.0,0.0,0.0,0.0,0.0,0.0,0.0,0.0,0.0,0.0,0.0,0.0,0.0,0.0,0.0,0.0,0.0,0.0,0.0,0.0,0.0,0.0,0.0,0.0,0.0,0.0,0.0,0.0,0.0,0.0,0.0,0.0,0.0,0.0,0.0,0.0,0.0,0.0,0.0,0.0,0.0,0.0,0.0,0.0,0.0,0.0,0.0,0.0,0.0,0.0,0.0,0.0,0.0,0.0,0.0,0.0,0.0,0.0,0.0,0.0,0.0,0.0,0.0,0.0,0.0,0.0,0.0,0.0,0.0,0.0,0.0,0.0,0.0,0.0,0.0,0.0,0.0,0.0,0.0,0.0,0.0,0.0,0.0,0.0,0.0,0.0,0.0,0.0,0.0,0.0,0.0,0.0,0.0,0.0,0.0,0.0,0.0,0.0,0.0,0.0,0.0,0.0,0.0,0.0,0.0,0.0,0.0,0.0,0.0,0.0,0.0,0.0,0.0,0.0,0.0,0.0,0.0,0.0,0.0,0.0,0.0,0.0,0.0,0.0,0.0,0.0,0.0,0.0,0.0,0.0,0.0,0.0,0.0,0.0,0.0,0.0,0.0,0.0,0.0,0.0,0.0,0.0,0.0,0.0,0.0,0.0,0.0,0.0,0.0,0.0,0.0,0.0,0.0,0.0,0.0,0.0,0.0,0.0,0.0,0.0,0.0,0.0,0.0,0.0,0.0,0.0,0.0,0.0,0.0,0.0,0.0,0.0,0.0,0.0,0.0,0.0,0.0,0.0,0.0,0.0,0.0,0.0,0.0,0.0,0.0,0.0,0.0,0.0,0.0,0.0,0.0,0.0,0.0,0.0,0.0,0.0,0.0,0.0,0.0,0.0,0.0,0.0,0.0,0.0,0.0,0.0,0.0,0.0,0.0,0.0,0.0,0.0,0.0,0.0,0.0,0.0,0.0,0.0,0.0,0.0,0.0,0.0,0.0,0.0,0.0,0.0,0.0,0.0,0.0,0.0,0.0,0.0,0.0,0.0,0.0,0.0,0.0,0.0,0.0,0.0,0.0,0.0,0.0,0.0,0.0,0.0,0.0,0.0,0.0,0.0,0.0,0.0,0.0,0.0,0.0,0.0,0.0,0.0,0.0,0.0,0.0,0.0,0.0,0.0,0.0,0.0,0.0,0.0,0.0,0.0,0.0,0.0,0.0,0.0,0.0,0.0,0.0,0.0,0.0,0.0,0.0,0.0,0.0,0.0,0.0,0.0,0.0,0.0,0.0,0.0,0.0,0.0,0.0,0.0,0.0,0.0,0.0,0.0,0.0,0.0,-5.5993,0.0,0.0,0.0,0.0,0.0,0.0,0.0,0.0,0.0,0.0,0.0,0.0,0.0,0.0,0.0,0.0,0.0,0.0,0.0,0.0,0.0,0.0,0.0,0.0,0.0,0.0,0.0,0.0,0.0,0.0,0.0,0.0,0.0,0.0,0.0,0.0,0.0,0.0,0.0,0.0,0.0,0.0,0.0,0.0,0.0,0.0,0.0,0.0,0.0,0.0,0.0,0.0,0.0,0.0,0.0,0.0,0.0,0.0,0.0,0.0,0.0,0.0,0.0,0.0,0.0,0.0,0.0,0.0,0.0,0.0,0.0,0.0,0.0,0.0,0.0,0.0,0.0,0.0,0.0,0.0,0.0,0.0,0.0,0.0,0.0,0.0,0.0,0.0,0.0,0.0,0.0,0.0,0.0,0.0,0.0,0.0,0.0,0.0,0.0,0.0,0.0,0.0,0.0,0.0,0.0,0.0,0.0,0.0,0.0,0.0,-5.5667,-5.5588,-5.554,-5.5678,-5.6028,0.0,0.0,0.0,0.0,0.0,0.0,0.0,0.0,0.0,0.0,0.0,0.0,0.0,0.0,0.0,0.0,0.0,0.0,0.0,0.0,0.0,0.0,0.0,0.0,0.0,0.0,0.0,0.0,0.0,0.0,0.0,0.0,0.0,0.0,0.0,0.0,0.0,0.0,0.0,0.0,0.0,0.0,0.0,0.0,0.0,0.0,0.0,0.0,0.0,0.0,0.0,0.0,0.0,0.0,0.0,0.0,0.0,0.0,0.0,0.0,0.0,0.0,0.0,0.0,0.0,0.0,0.0,0.0,0.0,0.0,0.0,0.0,0.0,0.0,0.0,0.0,0.0,0.0,0.0,0.0,0.0,0.0,0.0,0.0,0.0,0.0,0.0,0.0,0.0,0.0,0.0,0.0,0.0,0.0,0.0,0.0,0.0,0.0,0.0,0.0,0.0,0.0,0.0,0.0,0.0,0.0,0.0,0.0,0.0,0.0,0.0,0.0,-5.5022,-5.5319,-5.6033,0.0,0.0,0.0,0.0,0.0,0.0,0.0,0.0,0.0,0.0,0.0,0.0,0.0,0.0,0.0,0.0,0.0,0.0,0.0,0.0,0.0,0.0,0.0,0.0,0.0,0.0,0.0,0.0,0.0,0.0,0.0,0.0,0.0,0.0,0.0,0.0,0.0,0.0,0.0,0.0,0.0,0.0,0.0,0.0,0.0,0.0,0.0,0.0,0.0,0.0,0.0,0.0,0.0,0.0,0.0,0.0,0.0,0.0,0.0,0.0,0.0,0.0,0.0,0.0,0.0,0.0,0.0,0.0,0.0,0.0,0.0,0.0,0.0,0.0,0.0,0.0,0.0,0.0,0.0,0.0,0.0,0.0,0.0,0.0,0.0,0.0,0.0,0.0,0.0,0.0,0.0,0.0,0.0,0.0,0.0,0.0,0.0,0.0,0.0,0.0,0.0,0.0,0.0,0.0,0.0,0.0,0.0,0.0,0.0,0.0,-5.4269,-5.4989,-5.495,0.0,-5.5952,0.0,0.0,0.0,0.0,0.0,0.0,0.0,0.0,0.0,0.0,0.0,0.0,0.0,0.0,0.0,0.0,0.0,0.0,0.0,0.0,0.0,0.0,0.0,0.0,0.0,0.0,0.0,0.0,0.0,0.0,0.0,0.0,0.0,0.0,0.0,0.0,0.0,0.0,0.0,0.0,0.0,0.0,0.0,0.0,0.0,0.0,0.0,0.0,0.0,0.0,0.0,0.0,0.0,0.0,0.0,0.0,0.0,0.0,0.0,0.0,0.0,0.0,0.0,0.0,0.0,0.0,0.0,0.0,0.0,0.0,0.0,0.0,0.0,0.0,0.0,0.0,0.0,0.0,0.0,0.0,0.0,0.0,0.0,0.0,0.0,0.0,0.0,0.0,0.0,0.0,0.0,0.0,0.0,0.0,0.0,0.0,0.0,0.0,0.0,0.0,0.0,0.0,0.0,0.0,0.0,0.0,0.0,0.0,0.0,0.0,-5.3958,-5.4286,-5.4692,-5.4959,0.0,0.0,0.0,0.0,0.0,0.0,0.0,0.0,0.0,0.0,0.0,0.0,0.0,0.0,0.0,0.0,0.0,0.0,0.0,0.0,0.0,0.0,0.0,0.0,0.0,0.0,0.0,0.0,0.0,0.0,0.0,0.0,0.0,0.0,0.0,0.0,0.0,0.0,0.0,0.0,0.0,0.0,0.0,0.0,0.0,0.0,0.0,0.0,0.0,0.0,0.0,0.0,0.0,0.0,0.0,0.0,0.0,0.0,0.0,0.0,0.0,0.0,0.0,0.0,0.0,0.0,0.0,0.0,0.0,0.0,0.0,0.0,0.0,0.0,0.0,0.0,0.0,0.0,0.0,0.0,0.0,0.0,0.0,0.0,0.0,0.0,0.0,0.0,0.0,0.0,0.0,0.0,0.0,0.0,0.0,0.0,0.0,0.0,0.0,0.0,0.0,0.0,0.0,0.0,0.0,0.0,0.0,0.0,0.0,0.0,-5.3273,-5.3544,-5.3744,-5.4238,-5.4431,-5.4227,0.0,0.0,0.0,0.0,0.0,0.0,0.0,0.0,0.0,0.0,0.0,0.0,0.0,0.0,0.0,0.0,0.0,0.0,0.0,0.0,0.0,0.0,0.0,0.0,0.0,0.0,0.0,0.0,0.0,0.0,0.0,0.0,0.0,0.0,0.0,0.0,0.0,0.0,0.0,0.0,0.0,0.0,0.0,0.0,0.0,0.0,0.0,0.0,0.0,0.0,0.0,0.0,0.0,0.0,0.0,0.0,0.0,0.0,0.0,0.0,0.0,0.0,0.0,0.0,0.0,0.0,0.0,0.0,0.0,0.0,0.0,0.0,0.0,0.0,0.0,0.0,0.0,0.0,0.0,0.0,0.0,0.0,0.0,0.0,0.0,0.0,0.0,0.0,0.0,0.0,0.0,0.0,0.0,0.0,0.0,0.0,0.0,0.0,0.0,0.0,0.0,0.0,0.0,0.0,0.0,0.0,0.0,0.0,-5.3712,-5.3001,-5.2902,-5.357,-5.3592,-5.3536,0.0,0.0,0.0,0.0,0.0,0.0,0.0,0.0,0.0,0.0,0.0,0.0,0.0,0.0,0.0,0.0,0.0,0.0,0.0,0.0,0.0,0.0,0.0,0.0,0.0,0.0,0.0,0.0,0.0,0.0,0.0,0.0,0.0,0.0,0.0,0.0,0.0,0.0,0.0,0.0,0.0,0.0,0.0,0.0,0.0,0.0,0.0,0.0,0.0,0.0,0.0,0.0,0.0,0.0,0.0,0.0,0.0,0.0,0.0,0.0,0.0,0.0,0.0,0.0,0.0,0.0,0.0,0.0,0.0,0.0,0.0,0.0,0.0,0.0,0.0,0.0,0.0,0.0,0.0,0.0,0.0,0.0,0.0,0.0,0.0,0.0,0.0,0.0,0.0,0.0,0.0,0.0,0.0,0.0,0.0,0.0,0.0,0.0,0.0,0.0,0.0,0.0,0.0,0.0,0.0,0.0,0.0,0.0,0.0,-5.2212,-5.2363,-5.269,-5.3186,-5.2861,-5.2571,0.0,0.0,0.0,0.0,0.0,0.0,0.0,0.0,0.0,0.0,0.0,0.0,0.0,0.0,0.0,0.0,0.0,0.0,0.0,0.0,0.0,0.0,0.0,0.0,0.0,0.0,0.0,0.0,0.0,0.0,0.0,0.0,0.0,0.0,0.0,0.0,0.0,0.0,0.0,0.0,0.0,0.0,0.0,0.0,0.0,0.0,0.0,0.0,0.0,0.0,0.0,0.0,0.0,0.0,0.0,0.0,0.0,0.0,0.0,0.0,0.0,0.0,0.0,0.0,0.0,0.0,0.0,0.0,0.0,0.0,0.0,0.0,0.0,0.0,0.0,0.0,0.0,0.0,0.0,0.0,0.0,0.0,0.0,0.0,0.0,0.0,0.0,0.0,0.0,0.0,0.0,0.0,0.0,0.0,0.0,0.0,0.0,0.0,0.0,0.0,0.0,0.0,0.0,0.0,0.0,0.0,0.0,0.0,0.0,-5.157,0.0,-5.2458,-5.2651,-5.2328,-5.192,0.0,0.0,0.0,0.0,0.0,0.0,0.0,0.0,0.0,0.0,0.0,0.0,0.0,0.0,0.0,0.0,0.0,0.0,0.0,0.0,0.0,0.0,0.0,0.0,0.0,0.0,0.0,0.0,0.0,0.0,0.0,0.0,0.0,0.0,0.0,0.0,0.0,0.0,0.0,0.0,0.0,0.0,0.0,0.0,0.0,0.0,0.0,0.0,0.0,0.0,0.0,0.0,0.0,0.0,0.0,0.0,0.0,0.0,0.0,0.0,0.0,0.0,0.0,0.0,0.0,0.0,0.0,0.0,0.0,0.0,0.0,0.0,0.0,0.0,0.0,0.0,0.0,0.0,0.0,0.0,0.0,0.0,0.0,0.0,0.0,0.0,0.0,0.0,0.0,0.0,0.0,0.0,0.0,0.0,0.0,0.0,0.0,0.0,0.0,0.0,0.0,0.0,0.0,0.0,0.0,0.0,0.0,0.0,-5.1546,-5.2046,-5.2143,-5.207,-5.1992,-5.1973,-5.1632,0.0,0.0,0.0,0.0,0.0,0.0,0.0,0.0,0.0,0.0,0.0,0.0,0.0,0.0,0.0,0.0,0.0,0.0,0.0,0.0,0.0,0.0,0.0,0.0,0.0,0.0,0.0,0.0,0.0,0.0,0.0,0.0,0.0,0.0,0.0,0.0,0.0,0.0,0.0,0.0,0.0,0.0,0.0,0.0,0.0,0.0,0.0,0.0,0.0,0.0,0.0,0.0,0.0,0.0,0.0,0.0,0.0,0.0,0.0,0.0,0.0,0.0,0.0,0.0,0.0,0.0,0.0,0.0,0.0,0.0,0.0,0.0,0.0,0.0,0.0,0.0,0.0,0.0,0.0,0.0,0.0,0.0,0.0,0.0,0.0,0.0,0.0,0.0,0.0,0.0,0.0,0.0,0.0,0.0,0.0,0.0,0.0,0.0,0.0,0.0,0.0,0.0,0.0,0.0,0.0,0.0,0.0,0.0,0.0,-5.1406,-5.1339,-5.1178,-5.0911,-5.1029,-5.0923,0.0,0.0,0.0,0.0,0.0,0.0,0.0,0.0,0.0,0.0,0.0,0.0,0.0,0.0,0.0,0.0,0.0,0.0,0.0,0.0,0.0,0.0,0.0,0.0,0.0,0.0,0.0,0.0,0.0,0.0,0.0,0.0,0.0,0.0,0.0,0.0,0.0,0.0,0.0,0.0,0.0,0.0,0.0,0.0,0.0,0.0,0.0,0.0,0.0,0.0,0.0,0.0,0.0,0.0,0.0,0.0,0.0,0.0,0.0,0.0,0.0,0.0,0.0,0.0,0.0,0.0,0.0,0.0,0.0,0.0,0.0,0.0,0.0,0.0,0.0,0.0,0.0,0.0,0.0,0.0,0.0,0.0,0.0,0.0,0.0,0.0,0.0,0.0,0.0,0.0,0.0,0.0,0.0,0.0,0.0,0.0,0.0,0.0,0.0,0.0,0.0,0.0,0.0,0.0,0.0,0.0,0.0,0.0,0.0,-5.2064,-5.1811,-5.1511,-5.1262,-5.1427,-5.1201,-5.0556,0.0,0.0,0.0,0.0,0.0,0.0,0.0,0.0,0.0,0.0,0.0,0.0,0.0,0.0,0.0,0.0,0.0,0.0,0.0,0.0,0.0,0.0,0.0,0.0,0.0,0.0,0.0,0.0,0.0,0.0,0.0,0.0,0.0,0.0,0.0,0.0,0.0,0.0,0.0,0.0,0.0,0.0,0.0,0.0,0.0,0.0,0.0,0.0,0.0,0.0,0.0,0.0,0.0,0.0,0.0,0.0,0.0,0.0,0.0,0.0,0.0,0.0,0.0,0.0,0.0,0.0,0.0,0.0,0.0,0.0,0.0,0.0,0.0,0.0,0.0,0.0,0.0,0.0,0.0,0.0,0.0,0.0,0.0,0.0,0.0,0.0,0.0,0.0,0.0,0.0,0.0,0.0,0.0,0.0,0.0,0.0,0.0,0.0,0.0,0.0,0.0,0.0,0.0,0.0,0.0,0.0,0.0,0.0,-5.3799,-5.3398,-5.3115,-5.287,-5.29,-5.2252,0.0,0.0,0.0,0.0,0.0,0.0,0.0,0.0,0.0,0.0,0.0,0.0,0.0,0.0,0.0,0.0,0.0,0.0,0.0,0.0,0.0,0.0,0.0,0.0,0.0,0.0,0.0,0.0,0.0,0.0,0.0,0.0,0.0,0.0,0.0,0.0,0.0,0.0,0.0,0.0,0.0,0.0,0.0,0.0,0.0,0.0,0.0,0.0,0.0,0.0,0.0,0.0,0.0,0.0,0.0,0.0,0.0,0.0,0.0,0.0,0.0,0.0,0.0,0.0,0.0,0.0,0.0,0.0,0.0,0.0,0.0,0.0,0.0,0.0,0.0,0.0,0.0,0.0,0.0,0.0,0.0,0.0,0.0,0.0,0.0,0.0,0.0,0.0,0.0,0.0,0.0,0.0,0.0,0.0,0.0,0.0,0.0,0.0,0.0,0.0,0.0,0.0,0.0,0.0,0.0,0.0,0.0,0.0,0.0,-5.516,-5.624,-5.6214,-5.5017,-5.3681,-5.285,0.0,0.0,0.0,0.0,0.0,0.0,0.0,0.0,0.0,0.0,0.0,0.0,0.0,0.0,0.0,0.0,0.0,0.0,0.0,0.0,0.0,0.0,0.0,0.0,0.0,0.0,0.0,0.0,0.0,0.0,0.0,0.0,0.0,0.0,0.0,0.0,0.0,0.0,0.0,0.0,0.0,0.0,0.0,0.0,0.0,0.0,0.0,0.0,0.0,0.0,0.0,0.0,0.0,0.0,0.0,0.0,0.0,0.0,0.0,0.0,0.0,0.0,0.0,0.0,0.0,0.0,0.0,0.0,0.0,0.0,0.0,0.0,0.0,0.0,0.0,0.0,0.0,0.0,0.0,0.0,0.0,0.0,0.0,0.0,0.0,0.0,0.0,0.0,0.0,0.0,0.0,0.0,0.0,0.0,0.0,0.0,0.0,0.0,0.0,0.0,0.0,0.0,0.0,0.0,0.0,0.0,0.0,0.0,-5.4737,-5.5949,-5.8172,-5.8923,-5.8037,-5.5451,-5.375,0.0,0.0,0.0,0.0,0.0,0.0,0.0,0.0,0.0,0.0,0.0,0.0,0.0,0.0,0.0,0.0,0.0,0.0,0.0,0.0,0.0,0.0,0.0,0.0,0.0,0.0,0.0,0.0,0.0,0.0,0.0,0.0,0.0,0.0,0.0,0.0,0.0,0.0,0.0,0.0,0.0,0.0,0.0,0.0,0.0,0.0,0.0,0.0,0.0,0.0,0.0,0.0,0.0,0.0,0.0,0.0,0.0,0.0,0.0,0.0,0.0,0.0,0.0,0.0,0.0,0.0,0.0,0.0,0.0,0.0,0.0,0.0,0.0,0.0,0.0,0.0,0.0,0.0,0.0,0.0,0.0,0.0,0.0,0.0,0.0,0.0,0.0,0.0,0.0,0.0,0.0,0.0,0.0,0.0,0.0,0.0,0.0,0.0,0.0,0.0,0.0,0.0,0.0,0.0,0.0,0.0,0.0,0.0,-5.5449,-5.6535,-5.9422,-6.0963,-6.0945,-5.7423,-5.4799,0.0,0.0,0.0,0.0,0.0,0.0,0.0,0.0,0.0,0.0,0.0,0.0,0.0,0.0,0.0,0.0,0.0,0.0,0.0,0.0,0.0,0.0,0.0,0.0,0.0,0.0,0.0,0.0,0.0,0.0,0.0,0.0,0.0,0.0,0.0,0.0,0.0,0.0,0.0,0.0,0.0,0.0,0.0,0.0,0.0,0.0,0.0,0.0,0.0,0.0,0.0,0.0,0.0,0.0,0.0,0.0,0.0,0.0,0.0,0.0,0.0,0.0,0.0,0.0,0.0,0.0,0.0,0.0,0.0,0.0,0.0,0.0,0.0,0.0,0.0,0.0,0.0,0.0,0.0,0.0,0.0,0.0,0.0,0.0,0.0,0.0,0.0,0.0,0.0,0.0,0.0,0.0,0.0,0.0,0.0,0.0,0.0,0.0,0.0,0.0,0.0,0.0,0.0,0.0,0.0,0.0,0.0,0.0,-5.6051,-5.7927,-6.0031,-6.0983,-6.0702,-5.728,-5.537,0.0,0.0,0.0,0.0,0.0,0.0,0.0,0.0,0.0,0.0,0.0,0.0,0.0,0.0,0.0,0.0,0.0,0.0,0.0,0.0,0.0,0.0,0.0,0.0,0.0,0.0,0.0,0.0,0.0,0.0,0.0,0.0,0.0,0.0,0.0,0.0,0.0,0.0,0.0,0.0,0.0,0.0,0.0,0.0,0.0,0.0,0.0,0.0,-5.5067,0.0,0.0,0.0,0.0,0.0,0.0,0.0,0.0,0.0,0.0,0.0,0.0,0.0,0.0,0.0,0.0,0.0,0.0,0.0,0.0,0.0,0.0,0.0,0.0,0.0,0.0,0.0,0.0,0.0,0.0,0.0,0.0,0.0,0.0,0.0,0.0,0.0,0.0,0.0,0.0,0.0,0.0,0.0,0.0,0.0,0.0,0.0,0.0,0.0,0.0,0.0,0.0,0.0,0.0,0.0,0.0,0.0,0.0,0.0,-5.5773,-5.848,-6.0222,-6.0993,-6.0707,-5.8231,-5.6517,0.0,0.0,0.0,0.0,0.0,0.0,0.0,0.0,0.0,0.0,0.0,0.0,0.0,0.0,0.0,0.0,0.0,0.0,0.0,0.0,0.0,0.0,0.0,0.0,0.0,0.0,0.0,0.0,0.0,0.0,0.0,0.0,0.0,0.0,0.0,0.0,0.0,0.0,0.0,0.0,0.0,0.0,0.0,0.0,0.0,0.0,0.0,0.0,0.0,0.0,0.0,0.0,0.0,0.0,0.0,0.0,0.0,0.0,0.0,0.0,0.0,0.0,0.0,0.0,0.0,0.0,0.0,0.0,0.0,0.0,0.0,0.0,0.0,0.0,0.0,0.0,0.0,0.0,0.0,0.0,0.0,0.0,0.0,0.0,0.0,0.0,0.0,0.0,0.0,0.0,0.0,0.0,0.0,0.0,0.0,0.0,0.0,0.0,0.0,0.0,0.0,0.0,0.0,0.0,0.0,0.0,0.0,-5.3063,-5.5521,-5.8942,-6.0339,-6.1002,-6.0973,-5.9368,-5.7622,-5.5793,0.0,0.0,0.0,0.0,0.0,0.0,0.0,0.0,0.0,0.0,0.0,0.0,0.0,0.0,0.0,0.0,0.0,0.0,0.0,0.0,0.0,0.0,0.0,0.0,0.0,0.0,0.0,0.0,0.0,0.0,0.0,0.0,0.0,0.0,0.0,0.0,0.0,0.0,-5.4128,-5.3923,0.0,0.0,0.0,0.0,0.0,0.0,0.0,0.0,-5.462,0.0,0.0,0.0,0.0,0.0,0.0,0.0,0.0,0.0,0.0,0.0,0.0,0.0,0.0,0.0,0.0,0.0,0.0,0.0,0.0,0.0,0.0,0.0,0.0,0.0,0.0,0.0,0.0,0.0,0.0,0.0,0.0,0.0,0.0,0.0,0.0,0.0,0.0,0.0,0.0,0.0,0.0,0.0,0.0,0.0,0.0,0.0,0.0,0.0,0.0,0.0,0.0,0.0,0.0,0.0,0.0,-5.317,-5.42,-5.6616,-6.0486,-6.0876,-6.1002,-6.0954,-5.9223,-5.7533,-5.6008,0.0,0.0,0.0,0.0,0.0,0.0,0.0,0.0,0.0,0.0,0.0,0.0,0.0,0.0,0.0,0.0,0.0,0.0,0.0,0.0,0.0,0.0,0.0,0.0,0.0,0.0,0.0,0.0,0.0,0.0,0.0,0.0,0.0,0.0,0.0,0.0,0.0,0.0,0.0,-5.447,-5.411,0.0,0.0,0.0,0.0,0.0,0.0,0.0,0.0,-5.5739,0.0,0.0,0.0,0.0,0.0,0.0,0.0,0.0,0.0,0.0,0.0,0.0,0.0,0.0,0.0,0.0,0.0,0.0,0.0,0.0,0.0,0.0,0.0,0.0,0.0,0.0,0.0,0.0,0.0,0.0,0.0,0.0,0.0,0.0,0.0,0.0,0.0,0.0,0.0,0.0,0.0,0.0,0.0,0.0,0.0,0.0,0.0,0.0,0.0,0.0,0.0,0.0,0.0,0.0,0.0,-5.411,-5.5431,-5.7587,-6.0708,-6.0945,-6.0964,-6.0804,-5.9213,-5.7555,0.0,0.0,0.0,0.0,0.0,0.0,0.0,0.0,0.0,0.0,0.0,0.0,0.0,0.0,0.0,0.0,0.0,0.0,0.0,0.0,0.0,0.0,0.0,0.0,0.0,0.0,0.0,0.0,0.0,0.0,0.0,0.0,0.0,0.0,0.0,0.0,0.0,0.0,0.0,0.0,-5.5295,-5.5283,-5.6732,0.0,0.0,0.0,0.0,0.0,0.0,-5.6088,-5.5871,0.0,0.0,0.0,0.0,0.0,0.0,0.0,0.0,0.0,0.0,0.0,0.0,0.0,0.0,0.0,0.0,0.0,0.0,0.0,0.0,0.0,0.0,0.0,0.0,0.0,0.0,0.0,0.0,0.0,0.0,0.0,0.0,0.0,0.0,0.0,0.0,0.0,0.0,0.0,0.0,0.0,0.0,0.0,0.0,0.0,0.0,0.0,0.0,0.0,0.0,0.0,0.0,0.0,0.0,0.0,-5.4774,-5.6457,-5.8411,-6.0581,-6.0843,-6.0874,-6.0707,-5.8925,-5.7226,0.0,0.0,0.0,0.0,0.0,0.0,0.0,0.0,0.0,0.0,0.0,0.0,0.0,0.0,0.0,0.0,0.0,0.0,0.0,0.0,0.0,0.0,0.0,0.0,0.0,0.0,0.0,0.0,0.0,0.0,0.0,0.0,0.0,0.0,0.0,0.0,0.0,0.0,0.0,0.0,0.0,-5.6381,-5.7849,-5.6798,0.0,0.0,0.0,0.0,-5.6092,-5.6367,0.0,0.0,0.0,0.0,0.0,0.0,0.0,0.0,0.0,0.0,0.0,0.0,0.0,0.0,0.0,0.0,0.0,0.0,0.0,0.0,0.0,0.0,0.0,0.0,0.0,0.0,0.0,0.0,0.0,0.0,0.0,0.0,0.0,0.0,0.0,0.0,0.0,0.0,0.0,0.0,0.0,0.0,0.0,0.0,0.0,0.0,0.0,0.0,0.0,0.0,0.0,0.0,0.0,0.0,0.0,0.0,-5.4633,-5.6837,-5.8877,-6.0589,-6.0739,-6.079,-6.0916,-5.7766,-5.5921,0.0,0.0,0.0,0.0,0.0,0.0,0.0,0.0,0.0,0.0,0.0,0.0,0.0,0.0,0.0,0.0,0.0,0.0,0.0,0.0,0.0,0.0,0.0,0.0,0.0,0.0,0.0,0.0,0.0,0.0,0.0,0.0,0.0,0.0,0.0,0.0,0.0,0.0,0.0,0.0,0.0,-5.629,-5.8087,-5.6816,-5.5636,0.0,0.0,-5.7762,-5.7721,-5.8914,0.0,0.0,0.0,0.0,0.0,0.0,0.0,0.0,0.0,0.0,0.0,0.0,0.0,0.0,0.0,0.0,0.0,0.0,0.0,0.0,0.0,0.0,0.0,0.0,0.0,0.0,0.0,0.0,0.0,0.0,0.0,0.0,0.0,0.0,0.0,0.0,0.0,0.0,0.0,0.0,0.0,0.0,0.0,0.0,0.0,0.0,0.0,0.0,0.0,0.0,0.0,0.0,0.0,0.0,0.0,-5.418,-5.5399,-5.8126,-5.9891,-6.0495,-6.0652,-6.0692,-6.0638,-5.6855,-5.5029,0.0,0.0,0.0,0.0,0.0,0.0,0.0,0.0,0.0,0.0,0.0,0.0,0.0,0.0,0.0,0.0,0.0,0.0,0.0,0.0,0.0,0.0,0.0,0.0,0.0,0.0,0.0,0.0,0.0,0.0,0.0,0.0,0.0,0.0,0.0,0.0,0.0,0.0,0.0,0.0,0.0,0.0,-5.8082,-5.7477,0.0,0.0,0.0,-5.7666,-5.6767,0.0,0.0,0.0,0.0,0.0,0.0,0.0,0.0,0.0,0.0,0.0,0.0,0.0,0.0,0.0,0.0,0.0,0.0,0.0,0.0,0.0,0.0,0.0,0.0,0.0,0.0,0.0,0.0,0.0,0.0,0.0,0.0,0.0,0.0,0.0,0.0,0.0,0.0,0.0,0.0,0.0,0.0,0.0,0.0,0.0,0.0,0.0,0.0,0.0,0.0,0.0,0.0,0.0,0.0,0.0,0.0,0.0,-5.594,-5.9026,-6.0527,-6.0398,-6.0546,-6.0559,-6.0327,-5.6931,0.0,0.0,0.0,0.0,0.0,0.0,0.0,0.0,0.0,0.0,0.0,0.0,0.0,0.0,0.0,0.0,0.0,0.0,0.0,0.0,0.0,0.0,0.0,0.0,0.0,0.0,0.0,-5.4522,0.0,0.0,0.0,0.0,0.0,0.0,0.0,0.0,0.0,0.0,0.0,0.0,0.0,0.0,-5.8129,-5.8042,-5.802,-5.8125,0.0,0.0,-5.7721,-5.6914,-5.9153,-5.9905,0.0,0.0,0.0,0.0,0.0,0.0,0.0,0.0,0.0,0.0,0.0,0.0,0.0,0.0,0.0,0.0,0.0,0.0,0.0,0.0,0.0,0.0,0.0,0.0,0.0,0.0,0.0,0.0,0.0,0.0,0.0,0.0,0.0,0.0,0.0,0.0,0.0,0.0,0.0,0.0,0.0,0.0,0.0,0.0,0.0,0.0,0.0,0.0,0.0,0.0,0.0,0.0,0.0,0.0,0.0,-5.5989,-5.8882,-6.0398,-6.0403,-6.0417,-6.0398,-6.0365,-5.8612,-5.6477,0.0,0.0,0.0,0.0,0.0,0.0,0.0,0.0,0.0,0.0,0.0,0.0,0.0,0.0,0.0,0.0,0.0,0.0,0.0,0.0,0.0,0.0,0.0,0.0,0.0,0.0,0.0,0.0,0.0,0.0,0.0,0.0,0.0,0.0,0.0,0.0,0.0,0.0,0.0,0.0,0.0,-5.8042,-5.8174,-5.8084,-5.8529,0.0,0.0,-5.8474,-5.985,-6.1484,-6.1557,-5.8345,0.0,0.0,0.0,0.0,0.0,0.0,0.0,0.0,0.0,0.0,0.0,0.0,0.0,0.0,0.0,0.0,0.0,0.0,0.0,0.0,0.0,0.0,0.0,0.0,0.0,0.0,0.0,0.0,0.0,0.0,0.0,0.0,0.0,0.0,0.0,0.0,0.0,0.0,0.0,0.0,0.0,0.0,0.0,0.0,0.0,0.0,0.0,0.0,0.0,0.0,0.0,0.0,0.0,-5.5631,-5.5139,-5.8589,-6.0403,-6.0403,-6.0403,-6.0375,-6.0337,-5.82,-5.6033,0.0,0.0,0.0,0.0,0.0,0.0,0.0,0.0,0.0,0.0,0.0,0.0,0.0,0.0,0.0,0.0,0.0,0.0,0.0,0.0,0.0,0.0,0.0,0.0,0.0,0.0,0.0,0.0,-5.7421,-5.7441,-5.6413,0.0,0.0,0.0,0.0,0.0,0.0,0.0,0.0,0.0,0.0,-5.8479,-5.9425,-5.9507,0.0,0.0,-5.9887,-5.9336,-5.8969,-6.0272,-6.0236,-5.7042,-5.6246,0.0,0.0,0.0,0.0,0.0,0.0,0.0,0.0,0.0,0.0,0.0,0.0,0.0,0.0,0.0,0.0,0.0,0.0,0.0,0.0,0.0,0.0,0.0,0.0,0.0,0.0,0.0,0.0,0.0,0.0,0.0,0.0,0.0,0.0,0.0,0.0,0.0,0.0,0.0,0.0,0.0,0.0,0.0,0.0,0.0,0.0,0.0,0.0,0.0,0.0,0.0,0.0,-5.5449,-5.4525,-5.8399,-6.0403,-6.0403,-6.0403,-6.0361,-6.0256,-5.8563,-5.6678,0.0,0.0,0.0,0.0,0.0,0.0,0.0,0.0,0.0,0.0,0.0,0.0,0.0,0.0,0.0,0.0,0.0,0.0,0.0,0.0,0.0,0.0,0.0,0.0,0.0,0.0,0.0,0.0,-5.7656,-5.7546,-5.6432,0.0,0.0,0.0,0.0,0.0,0.0,0.0,0.0,0.0,0.0,-5.9062,-5.9593,-5.9887,-6.007,-6.0028,-5.9832,-5.9373,-5.8492,-5.952,-5.9467,-5.6812,0.0,0.0,0.0,0.0,0.0,0.0,0.0,0.0,0.0,0.0,0.0,0.0,0.0,0.0,0.0,0.0,0.0,0.0,0.0,0.0,0.0,0.0,0.0,0.0,0.0,0.0,0.0,0.0,0.0,0.0,-4.6202,0.0,0.0,0.0,0.0,0.0,0.0,0.0,0.0,0.0,0.0,0.0,0.0,0.0,0.0,0.0,0.0,0.0,0.0,0.0,0.0,0.0,0.0,-5.5364,-5.4365,-5.8323,-6.0403,-6.0403,-6.0403,-6.038,-6.0294,-6.0237,-5.8963,-5.6306,0.0,0.0,0.0,0.0,0.0,0.0,0.0,0.0,0.0,0.0,0.0,0.0,0.0,0.0,0.0,0.0,0.0,0.0,0.0,0.0,0.0,0.0,0.0,0.0,0.0,0.0,-5.424,-5.5391,-5.6357,0.0,0.0,0.0,0.0,0.0,0.0,0.0,0.0,0.0,0.0,-5.8414,-5.9777,-5.829,-5.8749,-5.9258,-5.9276,-5.8621,-5.8327,-5.9038,-5.9813,-5.9896,0.0,0.0,0.0,0.0,0.0,0.0,0.0,0.0,0.0,0.0,0.0,0.0,0.0,0.0,0.0,0.0,0.0,0.0,0.0,0.0,0.0,0.0,0.0,0.0,0.0,0.0,0.0,-4.7795,-4.7829,0.0,0.0,0.0,0.0,0.0,0.0,0.0,0.0,0.0,0.0,0.0,-5.0165,-5.1004,0.0,0.0,0.0,0.0,0.0,0.0,0.0,0.0,0.0,0.0,0.0,0.0,-5.4571,-5.3899,-5.8099,-6.0403,-6.0403,-6.0352,-6.0294,-6.0167,-6.0122,-5.8886,-5.6311,0.0,0.0,0.0,0.0,0.0,0.0,0.0,0.0,0.0,0.0,0.0,0.0,0.0,0.0,0.0,0.0,0.0,0.0,0.0,0.0,0.0,0.0,0.0,0.0,0.0,-5.6079,0.0,0.0,0.0,0.0,0.0,0.0,0.0,0.0,0.0,0.0,0.0,-5.6165,-5.7128,-5.7689,-5.8015,-5.7997,-5.8694,-5.957,0.0,0.0,0.0,0.0,0.0,0.0,0.0,0.0,0.0,0.0,0.0,0.0,0.0,0.0,-5.4747,-5.4614,-5.5408,-5.6166,-5.6357,0.0,0.0,0.0,0.0,0.0,0.0,0.0,0.0,0.0,0.0,0.0,0.0,0.0,0.0,-4.921,0.0,-4.933,0.0,0.0,0.0,0.0,0.0,0.0,0.0,0.0,-5.0809,-5.1629,-5.1882,-5.2431,-5.2704,0.0,-5.2678,-5.1633,0.0,0.0,0.0,0.0,0.0,0.0,0.0,0.0,-5.382,-5.3358,-5.7927,-6.0403,-6.0389,-6.0337,-6.0231,-6.0099,-6.001,-5.9191,-5.7535,-5.5602,-5.3935,0.0,0.0,0.0,0.0,0.0,0.0,0.0,0.0,0.0,0.0,0.0,0.0,0.0,0.0,0.0,0.0,0.0,0.0,0.0,0.0,0.0,0.0,0.0,-5.6525,0.0,0.0,0.0,0.0,0.0,0.0,0.0,0.0,0.0,-5.5846,-5.626,-5.693,-5.7891,-5.8033,-5.785,-5.7244,0.0,0.0,0.0,0.0,0.0,0.0,0.0,-5.6343,-5.5661,-5.5998,-5.6549,-5.7175,-5.7439,-5.7544,-5.7465,0.0,0.0,-5.6626,-5.7282,-5.8125,-5.8107,-5.8107,-5.8125,-5.8107,-5.7975,-5.7732,0.0,0.0,0.0,0.0,0.0,0.0,0.0,0.0,-5.1171,-5.0274,0.0,-5.0579,0.0,0.0,0.0,0.0,0.0,-5.0568,0.0,0.0,-5.4459,-5.5181,-5.2938,-5.288,-5.2841,-5.2722,-5.1247,-5.0862,-5.1648,-5.3208,0.0,0.0,0.0,0.0,0.0,0.0,-5.3099,-5.3102,-5.7823,-6.0365,-6.0389,-6.0323,-6.0231,-6.0103,-5.9982,-5.9883,-5.9807,-5.7573,-5.6626,-5.7213,-5.276,0.0,0.0,0.0,0.0,0.0,0.0,0.0,0.0,0.0,0.0,0.0,0.0,0.0,0.0,0.0,0.0,0.0,0.0,0.0,0.0,-5.6339,0.0,0.0,0.0,0.0,0.0,0.0,0.0,0.0,0.0,0.0,-5.6024,-5.7066,-5.7923,-5.7941,0.0,0.0,0.0,0.0,-5.8065,-5.5145,-5.4843,-5.5,-5.488,-5.6848,-5.8652,-5.9256,0.0,0.0,-6.1185,-5.9957,-5.9131,-5.891,-6.0269,-6.0479,-5.7716,-5.7721,-5.8003,-5.803,-5.8153,-5.7863,-5.7845,-5.795,-5.7474,-4.8754,0.0,0.0,0.0,0.0,-4.8211,-4.9367,-5.1204,-5.1206,-5.095,-5.0612,-5.1737,0.0,0.0,0.0,0.0,0.0,0.0,-5.1921,-5.2917,-5.4166,-5.5005,-5.5474,-5.5474,-5.5474,-5.5435,-5.4933,-5.4789,-5.5037,-5.5523,-5.3513,-4.9188,0.0,0.0,0.0,0.0,-5.2451,-5.4818,-5.7889,-5.975,-6.0323,-6.0212,-6.0087,-5.9966,-5.9918,-5.9921,-5.9902,-5.9203,-5.8123,-5.6607,-5.5716,0.0,0.0,0.0,0.0,0.0,0.0,0.0,0.0,0.0,0.0,0.0,0.0,0.0,0.0,0.0,0.0,0.0,0.0,0.0,-5.632,-5.7342,-5.7249,0.0,0.0,0.0,0.0,0.0,0.0,0.0,0.0,0.0,-5.7519,-5.6787,-5.6492,0.0,0.0,-5.5794,-5.4876,-5.6804,-5.826,-5.8006,-5.844,0.0,-6.035,-6.0117,-5.9761,-5.9632,-6.0885,-6.1692,-6.1294,-6.1792,-6.2275,-6.2177,-6.2979,-6.3327,-6.2611,-6.2075,-6.204,-6.2451,-6.223,-6.2092,-6.2451,-6.211,-6.1599,-5.0345,-4.9512,-4.8149,-4.8175,-4.9085,-4.911,-5.0295,-5.2183,-5.2215,-5.1886,-5.1392,-5.2581,-5.1792,-4.957,-5.0486,0.0,0.0,0.0,-5.3344,-5.4977,-5.4997,-5.556,-5.6511,-5.655,-5.657,-5.655,-5.6517,-5.6488,-5.6488,-5.5447,-5.3338,-5.0247,0.0,0.0,-4.8173,-5.0343,-5.2647,-5.4975,-5.7398,-5.901,-5.976,-5.9946,-6.001,-5.9902,-5.9921,-5.9921,-5.9921,-5.9921,-5.9219,-5.7744,-5.7175,-5.5546,0.0,0.0,0.0,0.0,0.0,0.0,0.0,0.0,0.0,0.0,0.0,-5.4545,-5.3192,0.0,0.0,0.0,-5.6933,-5.7249,-5.7249,-5.7565,0.0,0.0,0.0,0.0,0.0,0.0,0.0,-5.5465,-5.6717,-5.775,-5.8047,-5.7198,-5.695,-5.807,-5.7666,-5.7024,-5.64,0.0,-5.9895,-5.9816,-5.9953,-6.042,-6.1408,-6.1325,-6.1235,-6.1587,-6.2411,-6.2856,-6.2666,-6.3413,-6.3969,-6.4039,-6.4129,-6.42,-6.4235,-6.3877,-6.3895,-6.4788,-6.4463,-6.4147,-6.4549,-6.4057,-6.36,-5.1807,-5.0905,-4.7764,-4.7842,-4.9984,-5.0004,-5.133,-5.3458,-5.355,-5.2747,-5.1478,-5.3064,-5.2105,-4.9286,-5.0046,0.0,-5.2841,-5.3639,-5.4843,-5.6389,-5.6411,-5.6442,-5.6485,-5.6485,-5.6485,-5.6485,-5.6484,-5.6492,-5.6375,-5.4091,-5.2685,-5.2303,-5.2279,-5.1287,-4.9602,-5.1491,-5.3058,-5.4008,-5.6282,-5.796,-5.8964,-5.9597,-5.989,-5.9921,-5.9921,-5.9921,-5.9921,-5.9921,-5.9921,-5.9845,-5.7706,-5.6398,-5.6133,0.0,0.0,0.0,0.0,0.0,0.0,0.0,0.0,0.0,0.0,0.0,0.0,0.0,0.0,0.0,-5.8656,0.0,-5.886,-5.7464,0.0,0.0,0.0,-5.6982,-5.8363,-5.7978,-5.7799,-5.8152,0.0,0.0,-5.8134,-5.818,-5.8804,-6.0493,-6.1098,-6.0915,-5.9593,-6.1337,-6.2358,-6.0884,-6.0413,-6.0148,-6.0639,-6.1627,-6.3051,-6.4347,-6.5204,-6.5098,-6.4564,-6.441,-6.4515,-6.4445,-6.4022,-6.3712,-6.3675,-6.3785,-6.4164,-6.5447,-6.5039,-6.4497,-6.4669,-6.4182,-6.3785,-5.127,-5.1069,-5.0297,-5.0328,-5.0891,-5.0891,-5.1259,-5.1862,-5.1876,-5.1687,-5.1457,-5.2506,-5.2907,-5.278,-5.2995,-5.3288,-5.3698,-5.3912,-5.455,-5.5496,-5.5562,-5.5906,-5.6485,-5.6497,-5.6494,-5.6482,-5.6484,-5.6492,-5.6469,-5.5716,-5.4333,-5.2444,-5.2121,-5.0766,-4.846,-4.8802,-5.0386,-5.3103,-5.3702,-5.5605,-5.8796,-5.8988,-5.9292,-5.9902,-5.9921,-5.9921,-5.9921,-5.9921,-5.9921,-5.9902,-5.9336,-5.8161,-5.6285,-5.4095,0.0,0.0,0.0,0.0,0.0,0.0,0.0,0.0,0.0,-5.2619,-5.1507,0.0,-5.5242,0.0,-5.8425,-6.0079,-6.0079,-5.9433,0.0,0.0,-5.7792,-5.78,-5.8489,-5.9315,-5.9425,-5.8326,-5.9014,-5.967,-5.9808,-5.9832,-6.0676,-6.2842,-6.1227,-6.007,-6.0896,-6.2585,-6.3478,-6.2748,-6.3801,-6.4777,-6.4159,-6.4483,-6.5055,-6.6071,-6.5433,-6.4788,-6.4635,-6.4147,-6.384,-6.3877,-6.4164,-6.4323,-6.4358,-6.4754,-6.5382,-6.6112,-6.5074,-6.4164,-6.5121,-6.4804,-6.4515,-5.1159,-5.1159,-5.1177,-5.1202,-5.1202,-5.1202,-5.1225,-5.1263,-5.1288,-5.1323,-5.1435,-5.1909,-5.239,-5.2858,-5.3249,-5.3424,-5.3463,-5.3815,-5.4216,-5.4627,-5.4674,-5.4914,-5.5369,-5.5746,-5.5922,-5.595,-5.6328,-5.648,-5.6476,-5.6306,-5.545,-5.3979,-5.3685,-5.2209,-4.9665,-4.8398,-4.8926,-5.1116,-5.2189,-5.4356,-5.7663,-5.8387,-5.8404,-5.7706,-5.8047,-5.7706,-5.6607,-5.6569,-5.655,-5.655,-5.655,-5.5894,-5.4485,-5.273,-5.1469,0.0,0.0,0.0,0.0,0.0,0.0,0.0,0.0,0.0,0.0,0.0,-5.6184,-5.6372,-5.8895,-6.0217,-5.9499,-5.938,-5.9412,-5.9486,-5.9423,-5.97,-6.0552,-6.1082,-6.1074,-6.0325,-6.0725,-6.1174,-6.1416,-6.1465,-6.2236,-6.4347,-6.308,-6.2365,-6.3594,-6.4897,-6.5545,-6.5223,-6.6271,-6.6899,-6.6204,-6.5797,-6.5657,-6.5689,-6.5368,-6.4939,-6.4652,-6.4288,-6.4075,-6.4075,-6.4341,-6.4601,-6.4635,-6.5154,-6.5734,-6.5878,-6.5057,-6.4669,-6.5784,-6.5303,-6.4788,-5.1202,-5.1202,-5.1202,-5.1202,-5.1202,-5.1202,-5.1215,-5.1222,-5.1279,-5.1337,-5.1386,-5.1389,-5.1394,-5.1453,-5.2195,-5.2548,-5.2567,-5.3307,-5.3706,-5.3741,-5.3738,-5.3797,-5.3935,-5.4675,-5.5041,-5.5056,-5.5918,-5.6303,-5.629,-5.6193,-5.5896,-5.5397,-5.5199,-5.3812,-5.1307,-4.8953,-4.817,-4.8934,-5.1339,-5.371,-5.6012,-5.704,-5.6607,-5.4731,-5.5223,-5.456,-5.2518,-5.24,-5.24,-5.24,-5.2371,-5.2464,-5.2606,-5.0956,-5.0414,0.0,-4.9856,0.0,0.0,0.0,0.0,0.0,0.0,0.0,0.0,-5.7153,-5.7802,-5.834,-5.9656,-5.9968,-5.8833,-5.8991,-5.9755,-6.1145,-6.133,-6.1795,-6.2962,-6.265,-6.2446,-6.278,-6.2342,-6.2237,-6.2675,-6.2853,-6.3576,-6.4952,-6.5264,-6.5466,-6.6457,-6.71,-6.7485,-6.7669,-6.7615,-6.722,-6.6707,-6.6064,-6.5497,-6.5072,-6.5171,-6.5285,-6.4686,-6.4601,-6.4601,-6.4601,-6.4652,-6.4754,-6.472,-6.5219,-6.5621,-6.5811,-6.5368,-6.532,-6.6222,-6.5657,-6.5039,-5.1202,-5.1202,-5.1202,-5.1202,-5.1202,-5.1202,-5.1239,-5.1284,-5.1293,-5.1325,-5.1387,-5.1398,-5.1394,-5.1414,-5.157,-5.1648,-5.1648,-5.1824,-5.2264,-5.2935,-5.2933,-5.327,-5.3899,-5.4071,-5.4142,-5.4203,-5.5022,-5.5371,-5.5215,-5.5714,-5.4837,-5.2705,-5.2447,-5.1419,-4.9606,0.0,0.0,0.0,-5.097,-5.3109,-5.4173,-5.2475,-5.1983,-5.2817,-5.2404,0.0,-5.24,-5.24,-5.24,-5.2404,-5.2298,0.0,0.0,0.0,0.0,0.0,0.0,0.0,0.0,0.0,0.0,0.0,-5.5874,-5.6079,-5.7154,-5.7719,-5.8555,-5.9886,-6.0042,-6.0579,-6.1942,-6.1844,-6.1823,-6.2116,-6.2069,-6.2241,-6.2787,-6.2578,-6.2526,-6.2904,-6.2762,-6.2679,-6.2792,-6.3411,-6.42,-6.5154,-6.587,-6.6568,-6.7338,-6.7559,-6.7669,-6.7669,-6.7304,-6.6899,-6.6725,-6.6143,-6.5909,-6.602,-6.5335,-6.4838,-6.4703,-6.4635,-6.4635,-6.4635,-6.5039,-6.5415,-6.5415,-6.5544,-6.5891,-6.6517,-6.6464,-6.6392,-6.66,-6.6002,-6.5797,-5.1202,0.0,-5.1202,-5.1202,0.0,-5.1202,-5.1248,-5.1297,-5.1297,-5.1326,-5.1394,-5.1394,-5.1394,-5.1394,-5.1394,-5.1394,-5.1394,-5.1394,-5.1642,-5.204,-5.206,-5.2261,-5.2616,-5.3045,-5.3268,-5.3288,-5.4145,-5.4466,-5.4297,-5.4924,-5.4523,-5.3146,-5.3357,-5.3072,-5.2212,-5.1662,-5.0785,-4.9577,-5.1096,-5.2683,-5.4278,-5.3504,-5.2798,-5.2438,-5.2836,0.0,0.0,0.0,0.0,0.0,0.0,0.0,0.0,-5.249,0.0,-5.4485,-5.4111,-5.4704,-5.6673,-5.7602,-5.8624,-5.9812,-5.9924,-5.9571,-5.8791,-5.9638,-6.0652,-6.161,-6.1366,-6.1562,-6.2551,-6.2508,-6.2482,-6.2679,-6.2578,-6.2647,-6.2904,-6.2805,-6.2755,-6.2855,-6.283,-6.2823,-6.2823,-6.3558,-6.4383,-6.5209,-6.5999,-6.6788,-6.7504,-6.7669,-6.7669,-6.7669,-6.7433,-6.722,-6.7174,-6.691,-6.6553,-6.6618,-6.6082,-6.5529,-6.5138,-6.5105,-6.5105,-6.5138,-6.5671,-6.6143,-6.6174,-6.6386,-6.6787,-6.7193,-6.7081,-6.6996,-6.7221,-6.6787,-6.6564,-5.1202,-5.1202,-5.1202,-5.1202,-5.1202,-5.1202,-5.1248,-5.1297,0.0,0.0,0.0,-5.1394,-5.1394,-5.1394,-5.1394,-5.1394,-5.1394,-5.1394,-5.139,-5.1401,-5.1399,-5.1364,-5.1375,-5.2035,-5.2372,-5.2411,-5.3245,-5.357,-5.3403,-5.4061,-5.4321,-5.4241,-5.4851,-5.5237,-5.5358,-5.5181,-5.4112,-5.2209,-5.1659,-5.2446,-5.4458,-5.4775,-5.3935,-5.2002,-5.3158,-5.2968,-5.1286,-5.1831,-5.2253,-5.2342,-5.2179,-5.2212,-5.2482,-5.2314,-5.2641,-5.3608,-5.4593,-5.632,-5.8958,-6.0014,-6.1425,-6.3472,-6.3534,-6.2617,-6.0577,-6.1704,-6.261,-6.2861,-6.2585,-6.2404,-6.2423,-6.2456,-6.2629,-6.288,-6.283,-6.2898,-6.3026,-6.2978,-6.283,-6.2805,-6.2823,-6.2823,-6.2817,-6.3558,-6.4402,-6.5209,-6.5999,-6.6788,-6.7485,-6.7669,-6.7669,-6.7669,-6.7615,-6.7642,-6.7687,-6.7479,-6.7304,-6.6765,-6.6541,-6.6265,-6.5797,-6.5685,-6.5797,-6.5815,-6.6404,-6.6794,-6.6899,-6.7258,-6.7749,-6.7926,-6.7487,-6.7332,-6.7878,-6.7622,-6.7387,-5.1202,-5.1202,-5.1202,-5.1202,-5.1202,-5.1202,-5.1248,-5.1301,-5.1366,-5.1385,-5.1394,-5.1394,-5.1394,-5.1394,-5.1394,-5.1394,-5.1394,-5.1394,-5.1394,-5.1392,-5.1403,-5.1389,-5.1391,-5.1457,-5.1479,-5.1554,-5.2353,-5.2689,-5.2595,-5.3228,-5.3472,-5.3393,-5.3958,-5.4613,-5.5159,-5.5135,-5.4895,-5.4477,-5.3025,-5.2414,-5.2736,-5.0803,-4.995,-5.0234,-4.9898,-5.0126,-5.1154,-5.1362,-5.1608,-5.2103,-5.2005,-5.2803,-5.467,-5.4633,-5.5523,-5.7695,-5.9292,-6.0388,-6.0853,-6.2246,-6.3226,-6.3542,-6.3284,-6.2909,-6.2614,-6.2775,-6.2787,-6.2534,-6.243,-6.2423,-6.243,-6.2686,-6.278,-6.2559,-6.2679,-6.2798,-6.273,-6.2603,-6.2603,-6.278,-6.2823,-6.2823,-6.2897,-6.3539,-6.4402,-6.5191,-6.609,-6.6806,-6.7467,-6.7669,-6.7669,-6.7669,-6.7669,-6.7669,-6.766,-6.7202,-6.6928,-6.6754,-6.6283,-6.5953,-6.5829,-6.6186,-6.6493,-6.6559,-6.7061,-6.7433,-6.7515,-6.7722,-6.7907,-6.8037,-6.7915,-6.8,-6.8358,-6.819,-6.807,-5.1202,-5.1202,-5.1202,-5.1202,-5.1208,-5.1248,-5.1268,-5.1302,-5.1362,-5.1394,-5.1394,-5.1394,-5.1394,-5.1394,-5.1394,-5.1394,-5.1394,-5.1388,-5.1386,-5.1384,-5.1391,-5.1378,-5.1343,-5.1297,-5.1303,-5.132,-5.169,-5.1794,-5.174,-5.2356,-5.2603,-5.249,-5.3537,-5.4269,-5.4587,-5.4941,-5.5057,-5.4941,-5.4158,-5.3764,-5.3745,-5.2646,-5.2248,-5.2589,-5.2665,-5.3309,-5.4503,-5.5015,-5.5564,-5.6147,-5.5997,-5.6347,-5.721,-5.7108,-5.7528,-5.8642,-5.9831,-6.0723,-6.1168,-6.2692,-6.3602,-6.3579,-6.3424,-6.3237,-6.3008,-6.2787,-6.2686,-6.2712,-6.2534,-6.2423,-6.2423,-6.2523,-6.2618,-6.261,-6.2679,-6.2755,-6.288,-6.273,-6.2679,-6.2873,-6.2855,-6.2823,-6.2823,-6.3558,-6.4402,-6.5246,-6.6311,-6.7265,-6.7659,-6.7669,-6.7669,-6.7669,-6.7669,-6.7669,-6.7669,-6.746,-6.7276,-6.7248,-6.6985,-6.6758,-6.6729,-6.7071,-6.7192,-6.7248,-6.7533,-6.7714,-6.7776,-6.7855,-6.7985,-6.8183,-6.819,-6.829,-6.8451,-6.8451,-6.8383,-5.1474,-5.1474,-5.128,-5.1202,-5.1206,-5.1291,-5.1297,-5.1304,-5.1361,-5.1394,-5.1394,-5.1394,-5.1394,-5.1394,-5.1394,-5.1392,-5.139,-5.1401,-5.1396,-5.1391,-5.14,-5.1366,-5.1294,-5.1291,-5.1303,-5.13,-5.13,-5.1224,-5.1236,-5.165,-5.1871,-5.1973,-5.3042,-5.3735,-5.4096,-5.458,-5.4852,-5.4882,-5.4901,-5.4901,-5.4901,-5.4901,-5.4901,-5.4939,-5.5508,-5.6304,-5.7099,-5.7952,-5.867,-5.9224,-5.927,-5.9178,-5.8944,-5.8782,-5.8677,-5.8772,-5.9459,-6.037,-6.1428,-6.2803,-6.3602,-6.3602,-6.3602,-6.3424,-6.3051,-6.2712,-6.261,-6.2787,-6.2559,-6.2423,-6.2404,-6.2471,-6.2548,-6.278,-6.2805,-6.2904,-6.3123,-6.2978,-6.2861,-6.2959,-6.288,-6.2823,-6.2934,-6.3392,-6.4163,-6.5246,-6.6678,-6.7614,-6.7669,-6.7669,-6.7669,-6.7669,-6.7669,-6.7669,-6.7669,-6.7669,-6.766,-6.7669,-6.7642,-6.7542,-6.7615,-6.7687,-6.7741,-6.7696,-6.7749,-6.7828,-6.7933,-6.7985,-6.8063,-6.8259,-6.8309,-6.8383,-6.8457,-6.85,-6.85,-5.229,-5.2173,-5.1571,-5.1202,-5.1264,-5.1307,-5.1373,-5.1364,-5.1401,-5.1394,-5.1453,-5.1394,-5.1394,-5.1394,-5.1394,-5.139,-5.1401,-5.1399,-5.1391,-5.1397,-5.1394,-5.1346,-5.1294,-5.1291,-5.1303,-5.13,-5.13,-5.1292,-5.1276,-5.1236,-5.1495,-5.1987,-5.203,-5.2732,-5.3905,-5.4033,-5.4306,-5.4882,-5.4901,-5.4901,-5.4901,-5.4901,-5.4901,-5.4901,-5.4977,-5.5432,-5.6323,-5.7099,-5.7753,-5.8237,-5.8952,-5.9139,-5.8781,-5.8716,-5.8677,-5.8735,-5.9478,-6.059,-6.2134,-6.3119,-6.3602,-6.3602,-6.3602,-6.3442,-6.3051,-6.2959,-6.2787,-6.2559,-6.243,-6.243,-6.243,-6.2718,-6.2886,-6.283,-6.3099,-6.3307,-6.3189,-6.3075,-6.3002,-6.2984,-6.288,-6.2823,-6.2842,-6.3025,-6.3668,-6.5136,-6.6594,-6.7622,-6.7714,-6.7722,-6.7741,-6.7714,-6.7714,-6.7714,-6.7714,-6.7669,-6.7696,-6.7696,-6.7714,-6.7714,-6.7741,-6.782,-6.7899,-6.7881,-6.7959,-6.8037,-6.8088,-6.8165,-6.8259,-6.8309,-6.8383,-6.85,-6.85,-6.85,-6.85,-5.319,-5.3125,-5.2814,-5.2678,-5.2688,-5.2758,-5.2807,-5.2804,-5.2324,-5.2137,-5.2099,-5.1629,-5.1394,-5.1394,-5.1394,-5.1392,-5.1388,-5.1394,-5.14,-5.1391,-5.1356,-5.1339,-5.1296,-5.1296,-5.1308,-5.13,-5.13,-5.13,-5.1284,-5.1161,-5.125,-5.152,-5.168,-5.2135,-5.2806,-5.3537,-5.4021,-5.4181,-5.4655,-5.4901,-5.4901,-5.4901,-5.4901,-5.4901,-5.4901,-5.5318,-5.6171,-5.6967,-5.7621,-5.8088,-5.8877,-5.912,-5.8719,-5.8677,-5.8677,-5.8791,-5.9961,-6.0964,-6.167,-6.2877,-6.3602,-6.3602,-6.3602,-6.3442,-6.3032,-6.2984,-6.291,-6.2787,-6.2737,-6.2737,-6.2805,-6.3123,-6.3242,-6.3099,-6.3242,-6.3354,-6.3213,-6.3075,-6.3026,-6.3075,-6.2947,-6.2823,-6.2897,-6.3264,-6.4035,-6.5173,-6.6408,-6.7232,-6.7692,-6.7899,-6.7933,-6.7952,-6.7933,-6.7881,-6.7847,-6.7802,-6.7802,-6.7802,-6.782,-6.7802,-6.7828,-6.7933,-6.8011,-6.7993,-6.8088,-6.8139,-6.8208,-6.8259,-6.8327,-6.8402,-6.8451,-6.85,-6.85,-6.85,-6.85,-5.4038,-5.4019,-5.3831,-5.3714,-5.3726,-5.377,-5.3855,-5.3836,-5.3219,-5.3004,-5.2997,-5.237,-5.2117,-5.2058,-5.1629,-5.1392,-5.1388,-5.1391,-5.1397,-5.1366,-5.1323,-5.1304,-5.13,-5.13,-5.13,-5.13,-5.13,-5.13,-5.1292,-5.1215,-5.115,-5.1194,-5.1404,-5.1644,-5.1963,-5.2853,-5.3375,-5.3741,-5.4295,-5.4674,-5.4863,-5.4901,-5.4901,-5.4901,-5.4901,-5.5204,-5.5811,-5.6626,-5.7281,-5.775,-5.8539,-5.8895,-5.87,-5.8677,-5.8677,-5.8846,-6.0277,-6.1187,-6.1224,-6.271,-6.3602,-6.3602,-6.3602,-6.3442,-6.3123,-6.3099,-6.3099,-6.3002,-6.3117,-6.3171,-6.3213,-6.3424,-6.3488,-6.3289,-6.3377,-6.34,-6.3284,-6.3123,-6.3099,-6.3165,-6.3021,-6.2855,-6.2983,-6.3528,-6.4292,-6.4912,-6.5945,-6.6857,-6.7535,-6.7871,-6.807,-6.8095,-6.8114,-6.8107,-6.8004,-6.7959,-6.7959,-6.7959,-6.7959,-6.7959,-6.7959,-6.8063,-6.8139,-6.8139,-6.8165,-6.8215,-6.8334,-6.8377,-6.8377,-6.8475,-6.85,-6.85,-6.85,-6.85,-6.85,-5.4951,-5.4815,-5.4064,-5.3811,-5.374,-5.3862,-5.3891,-5.4066,-5.3882,-5.3883,-5.3938,-5.3815,-5.3834,-5.3678,-5.2214,-5.1447,-5.1421,-5.1455,-5.1403,-5.1317,-5.1294,-5.13,-5.13,-5.13,-5.13,-5.13,-5.13,-5.13,-5.13,-5.1292,-5.1292,-5.128,-5.1037,-5.1217,-5.1712,-5.1717,-5.2254,-5.34,-5.3726,-5.4124,-5.4769,-5.4882,-5.4901,-5.4901,-5.4901,-5.4939,-5.5091,-5.5811,-5.6468,-5.6869,-5.7733,-5.8334,-5.8646,-5.8677,-5.8677,-5.8846,-6.024,-6.1187,-6.1373,-6.2673,-6.3583,-6.3602,-6.3602,-6.3424,-6.3123,-6.3312,-6.3377,-6.3051,-6.3331,-6.3534,-6.3534,-6.3534,-6.3534,-6.34,-6.3511,-6.3492,-6.34,-6.3237,-6.3213,-6.3165,-6.3051,-6.2953,-6.2996,-6.3633,-6.4037,-6.4529,-6.5672,-6.6743,-6.7066,-6.7652,-6.7991,-6.8146,-6.819,-6.8259,-6.8139,-6.8088,-6.8088,-6.8088,-6.8107,-6.8107,-6.8139,-6.819,-6.824,-6.8309,-6.8358,-6.8408,-6.8457,-6.8481,-6.8475,-6.85,-6.85,-6.85,-6.85,-6.85,-6.85,-5.5825,-5.5806,-5.5476,-5.5359,-5.5365,-5.5388,-5.541,-5.5383,-5.489,-5.4704,-5.4663,-5.4236,-5.399,-5.3971,-5.3366,-5.2739,-5.2266,-5.224,-5.1913,-5.1405,-5.1317,-5.13,-5.13,-5.13,-5.13,-5.13,-5.13,-5.13,-5.13,-5.13,-5.13,-5.1252,-5.0985,-5.0932,-5.1113,-5.1308,-5.1692,-5.2218,-5.313,-5.3859,-5.4181,-5.4636,-5.4901,-5.4901,-5.4901,-5.4901,-5.4901,-5.5735,-5.6377,-5.6775,-5.762,-5.8259,-5.8648,-5.8677,-5.8677,-5.8791,-5.9757,-6.063,-6.1243,-6.2209,-6.3082,-6.3546,-6.3602,-6.3557,-6.3442,-6.353,-6.3534,-6.3442,-6.3488,-6.3598,-6.3579,-6.3534,-6.3465,-6.3424,-6.3447,-6.3424,-6.3307,-6.3237,-6.3165,-6.3075,-6.2953,-6.2904,-6.3057,-6.3229,-6.3616,-6.418,-6.4894,-6.5792,-6.6809,-6.7383,-6.7741,-6.821,-6.8383,-6.8408,-6.8383,-6.8265,-6.8215,-6.8234,-6.8234,-6.8234,-6.824,-6.8334,-6.8383,-6.8383,-6.85,-6.85,-6.85,-6.85,-6.85,-6.85,-6.85,-6.85,-6.85,-6.85,-6.85,-5.6311,-5.6311,-5.6311,-5.6311,-5.6311,-5.6311,-5.6311,-5.6234,-5.574,-5.5523,-5.5488,-5.5031,-5.4823,-5.4849,-5.483,-5.4381,-5.3541,-5.326,-5.2779,-5.2233,-5.2146,-5.2126,-5.2084,-5.1846,-5.1729,-5.1671,-5.1417,-5.13,-5.13,-5.13,-5.13,-5.1288,-5.0998,-5.0809,-5.0735,-5.0933,-5.1078,-5.1473,-5.2584,-5.3404,-5.3726,-5.4484,-5.4901,-5.4901,-5.4901,-5.4901,-5.4901,-5.5489,-5.6128,-5.6753,-5.7376,-5.7978,-5.8609,-5.8677,-5.8677,-5.8772,-5.9457,-6.0295,-6.115,-6.1967,-6.2766,-6.3509,-6.3602,-6.3602,-6.3602,-6.3602,-6.3602,-6.3602,-6.3602,-6.3602,-6.3579,-6.347,-6.3424,-6.3447,-6.3424,-6.3377,-6.3265,-6.3237,-6.3147,-6.3075,-6.2953,-6.2972,-6.3093,-6.3069,-6.3327,-6.3873,-6.4306,-6.516,-6.6079,-6.6985,-6.7423,-6.8041,-6.8333,-6.8463,-6.8475,-6.8383,-6.8358,-6.8377,-6.8352,-6.8358,-6.8358,-6.8432,-6.8481,-6.85,-6.85,-6.85,-6.85,-6.85,-6.85,-6.85,-6.85,-6.85,-6.85,-6.85,-6.85,-5.6311,-5.6311,-5.6311,-5.6311,-5.6311,-5.6311,-5.6306,-5.6294,-5.6253,-5.6258,-5.6288,-5.6347,-5.6243,-5.6456,-5.6292,-5.6001,-5.5181,-5.4457,-5.3957,-5.3682,-5.3676,-5.3696,-5.3623,-5.2937,-5.2528,-5.245,-5.1729,-5.1339,-5.13,-5.13,-5.13,-5.1256,-5.1099,-5.0859,-5.0608,-5.05,-5.0615,-5.118,-5.1964,-5.2798,-5.3669,-5.4389,-5.4825,-5.4882,-5.4901,-5.4901,-5.4901,-5.4958,-5.5564,-5.6641,-5.6833,-5.7417,-5.85,-5.8677,-5.8677,-5.8809,-5.9401,-6.0258,-6.115,-6.1893,-6.2617,-6.3435,-6.3602,-6.3602,-6.3602,-6.3602,-6.3602,-6.3602,-6.3602,-6.3602,-6.3579,-6.3488,-6.3447,-6.3557,-6.3465,-6.3377,-6.3354,-6.3284,-6.3189,-6.3165,-6.3075,-6.3141,-6.326,-6.3194,-6.3221,-6.3529,-6.4049,-6.4614,-6.513,-6.616,-6.7033,-6.7503,-6.7869,-6.8203,-6.837,-6.85,-6.85,-6.85,-6.8475,-6.8475,-6.8451,-6.85,-6.85,-6.85,-6.85,-6.85,-6.85,-6.85,-6.85,-6.85,-6.85,-6.85,-6.85,-6.85,-6.85,-5.6311,-5.6311,-5.6311,-5.6311,-5.6311,-5.6311,-5.6303,-5.6306,-5.6295,-5.6368,-5.6427,-5.6483,-5.6518,-5.6593,-5.6604,-5.6448,-5.6177,-5.5862,-5.5153,-5.4162,-5.3975,-5.3959,-5.3876,-5.3623,-5.3167,-5.2664,-5.2353,-5.1865,-5.1417,-5.1339,-5.13,-5.1256,-5.1105,-5.0882,-5.0653,-5.0425,-5.0385,-5.0447,-5.1163,-5.195,-5.2817,-5.365,-5.4314,-5.4844,-5.4901,-5.4901,-5.4901,-5.4901,-5.5529,-5.6718,-5.6795,-5.7379,-5.8409,-5.8677,-5.8677,-5.8716,-5.8902,-5.9757,-6.1001,-6.1466,-6.2209,-6.3267,-6.3602,-6.3602,-6.3602,-6.3602,-6.3602,-6.3602,-6.3602,-6.3602,-6.3579,-6.347,-6.347,-6.3598,-6.34,-6.3284,-6.326,-6.3165,-6.3117,-6.3189,-6.3165,-6.3237,-6.3354,-6.3289,-6.3307,-6.34,-6.3748,-6.4113,-6.4749,-6.525,-6.6165,-6.7038,-6.7503,-6.7869,-6.8129,-6.8296,-6.8351,-6.8444,-6.85,-6.85,-6.85,-6.85,-6.85,-6.85,-6.85,-6.85,-6.85,-6.85,-6.85,-6.85,-6.85,-6.85,-6.85,-6.85,-6.85,-5.6311,-5.6311,-5.6311,-5.6311,-5.6311,-5.6311,-5.6311,-5.6304,-5.6297,-5.6327,-5.6364,-5.6429,-5.6484,-5.655,-5.6593,-5.6604,-5.6604,-5.6604,-5.6016,-5.507,-5.4895,-5.4856,-5.48,-5.4504,-5.3931,-5.3225,-5.3093,-5.282,-5.2275,-5.1943,-5.1787,-5.1747,-5.1297,-5.0903,-5.0681,-5.0448,-5.0217,-5.0119,-5.0784,-5.159,-5.2419,-5.3252,-5.4086,-5.4769,-5.4901,-5.4901,-5.4901,-5.4901,-5.5338,-5.6247,-5.678,-5.76,-5.857,-5.8677,-5.8677,-5.8677,-5.8809,-5.9459,-6.0927,-6.1224,-6.1893,-6.3249,-6.3602,-6.3602,-6.3602,-6.3602,-6.3602,-6.3602,-6.3602,-6.3602,-6.3579,-6.3534,-6.3534,-6.3598,-6.3354,-6.3213,-6.3189,-6.3123,-6.3147,-6.3237,-6.3284,-6.3354,-6.3442,-6.3424,-6.3424,-6.347,-6.3557,-6.3695,-6.4308,-6.4642,-6.5515,-6.6239,-6.6611,-6.715,-6.7831,-6.8078,-6.819,-6.8357,-6.85,-6.85,-6.85,-6.85,-6.85,-6.85,-6.85,-6.85,-6.85,-6.85,-6.85,-6.85,-6.85,-6.85,-6.85,-6.85,-6.8481,-5.6311,-5.6311,-5.6311,-5.6311,-5.6311,-5.6311,-5.6311,-5.6317,-5.6304,-5.6303,-5.632,-5.6366,-5.6429,-5.6504,-5.6551,-5.6596,-5.6591,-5.6604,-5.6565,-5.6402,-5.6305,-5.6225,-5.6102,-5.5556,-5.4807,-5.4082,-5.397,-5.3888,-5.356,-5.2972,-5.2664,-5.2574,-5.1769,-5.1042,-5.0819,-5.0537,-5.0237,-5.006,-5.0675,-5.1452,-5.2343,-5.312,-5.4029,-5.4825,-5.4901,-5.4901,-5.4901,-5.486,-5.5117,-5.5762,-5.6891,-5.781,-5.8531,-5.8677,-5.8677,-5.8677,-5.8677,-5.9494,-6.0704,-6.1168,-6.1837,-6.3193,-6.3527,-6.3602,-6.3602,-6.3602,-6.3602,-6.3602,-6.3602,-6.3602,-6.3602,-6.3579,-6.3598,-6.3557,-6.3354,-6.3237,-6.3189,-6.3171,-6.3242,-6.3354,-6.34,-6.3465,-6.3557,-6.3488,-6.3492,-6.3557,-6.3598,-6.3672,-6.3806,-6.4215,-6.4619,-6.5176,-6.5752,-6.6327,-6.7033,-6.7243,-6.7354,-6.754,-6.793,-6.8258,-6.8444,-6.85,-6.85,-6.85,-6.85,-6.85,-6.85,-6.85,-6.85,-6.85,-6.85,-6.85,-6.85,-6.8481,-6.8258,-5.6311,-5.6311,-5.6311,-5.6311,-5.6311,-5.6311,-5.6311,-5.6311,-5.6311,-5.6306,-5.6303,-5.6313,-5.6364,-5.6427,-5.6484,-5.6521,-5.6537,-5.6579,-5.6604,-5.6584,-5.6531,-5.6485,-5.6496,-5.6281,-5.5704,-5.4959,-5.4827,-5.4511,-5.3927,-5.3697,-5.356,-5.3517,-5.2616,-5.1949,-5.155,-5.0904,-5.0286,-4.994,-5.012,-5.1054,-5.2272,-5.2646,-5.3461,-5.4769,-5.4901,-5.4901,-5.4871,-5.4654,-5.5206,-5.6401,-5.7095,-5.7862,-5.8584,-5.8677,-5.8677,-5.8677,-5.8714,-5.9125,-6.011,-6.0871,-6.1689,-6.2617,-6.3301,-6.3602,-6.3602,-6.3602,-6.3602,-6.3602,-6.3602,-6.3602,-6.3602,-6.362,-6.3557,-6.347,-6.3377,-6.3284,-6.3147,-6.3218,-6.3359,-6.3382,-6.347,-6.3557,-6.3579,-6.3557,-6.3557,-6.3579,-6.3602,-6.362,-6.3713,-6.3769,-6.4155,-6.4619,-6.5158,-6.564,-6.6067,-6.6314,-6.6481,-6.663,-6.7131,-6.785,-6.8166,-6.85,-6.85,-6.85,-6.85,-6.85,-6.85,-6.85,-6.85,-6.85,-6.837,-6.8338,-6.845,-6.845,-6.7986,-5.6311,-5.6311,-5.6311,-5.6311,-5.6311,-5.6311,-5.6311,-5.6311,-5.6317,-5.6315,-5.6305,-5.6314,-5.6317,-5.6383,-5.6458,-5.6484,-5.6504,-5.6564,-5.6606,-5.6584,-5.6533,-5.6508,-5.65,-5.6476,-5.621,-5.584,-5.5723,-5.547,-5.5022,-5.4652,-5.4453,-5.4273,-5.3512,-5.288,-5.2525,-5.1953,-5.1409,-5.1135,-5.1047,-5.1642,-5.2836,-5.2949,-5.3631,-5.4674,-5.4901,-5.4901,-5.4856,-5.4573,-5.5125,-5.6331,-5.6944,-5.7509,-5.8568,-5.8677,-5.8677,-5.8677,-5.8677,-5.903,-5.9868,-6.0723,-6.1558,-6.2357,-6.3137,-6.3527,-6.3602,-6.3602,-6.3602,-6.3602,-6.3602,-6.3602,-6.3579,-6.3557,-6.347,-6.3424,-6.3382,-6.3354,-6.3171,-6.326,-6.3377,-6.3447,-6.3492,-6.3557,-6.3598,-6.3602,-6.3602,-6.3602,-6.3602,-6.3602,-6.362,-6.3616,-6.3691,-6.4155,-6.4475,-6.4846,-6.5213,-6.5473,-6.5924,-6.6054,-6.6295,-6.7052,-6.7794,-6.8258,-6.8351,-6.8333,-6.8426,-6.8463,-6.8407,-6.8407,-6.85,-6.8444,-6.8283,-6.8041,-6.8004,-6.7874,-6.7447,-5.6311,-5.6311,-5.6311,-5.6311,-5.6311,-5.6311,-5.6311,-5.6311,-5.6311,-5.6298,-5.6309,-5.6315,-5.6305,-5.6308,-5.6422,-5.6484,-5.6484,-5.6567,-5.6608,-5.6582,-5.6533,-5.6491,-5.6484,-5.648,-5.6453,-5.637,-5.6468,-5.639,-5.6074,-5.5587,-5.5368,-5.5111,-5.4392,-5.3843,-5.3457,-5.3137,-5.2933,-5.2501,-5.2194,-5.257,-5.3366,-5.3575,-5.401,-5.4712,-5.4901,-5.4871,-5.4795,-5.4665,-5.507,-5.6463,-5.6383,-5.7175,-5.8419,-5.8677,-5.8677,-5.8677,-5.8716,-5.9032,-5.9754,-6.0593,-6.1447,-6.219,-6.3044,-6.3583,-6.3602,-6.3602,-6.3602,-6.3602,-6.3602,-6.3602,-6.3579,-6.3511,-6.3465,-6.3447,-6.3424,-6.3424,-6.34,-6.3307,-6.3331,-6.3557,-6.347,-6.3511,-6.3557,-6.3602,-6.3602,-6.3602,-6.3602,-6.3602,-6.3602,-6.362,-6.362,-6.3732,-6.3918,-6.3992,-6.4345,-6.4656,-6.5199,-6.5571,-6.5682,-6.6277,-6.728,-6.7763,-6.7961,-6.7999,-6.7651,-6.7763,-6.8153,-6.8227,-6.8166,-6.8036,-6.7627,-6.7354,-6.715,-6.6927,-6.6592,-5.6311,-5.6311,-5.6311,-5.6311,-5.6311,-5.6311,-5.6311,-5.6311,-5.6311,-5.6311,-5.6304,-5.6309,-5.6302,-5.63,-5.6383,-5.6403,-5.6435,-5.6536,-5.6606,-5.6584,-5.6533,-5.6497,-5.6494,-5.6496,-5.65,-5.6492,-5.6487,-5.6487,-5.639,-5.6288,-5.6191,-5.6035,-5.5331,-5.4725,-5.4386,-5.3683,-5.2988,-5.2729,-5.2569,-5.2968,-5.3594,-5.3802,-5.4143,-5.4825,-5.4901,-5.4807,-5.4695,-5.4597,-5.5192,-5.6089,-5.6476,-5.7026,-5.8345,-5.8677,-5.8677,-5.8677,-5.8677,-5.8791,-5.9199,-6.0333,-6.1261,-6.1596,-6.2803,-6.3602,-6.3602,-6.3602,-6.3602,-6.3602,-6.3602,-6.3602,-6.3579,-6.3579,-6.3534,-6.3534,-6.3534,-6.3534,-6.3538,-6.3515,-6.3511,-6.3557,-6.3557,-6.3575,-6.3598,-6.3602,-6.3602,-6.3602,-6.3602,-6.3602,-6.3602,-6.3602,-6.3602,-6.3602,-6.3657,-6.3788,-6.3899,-6.4173,-6.4512,-6.4902,-6.5032,-6.5181,-6.6184,-6.6704,-6.6741,-6.6685,-6.6555,-6.6908,-6.7484,-6.7168,-6.6982,-6.6964,-6.694,-6.6592,-6.6277,-6.6035,-6.5719,-5.6311,-5.6311,-5.6311,-5.6311,-5.6311,-5.6311,-5.6311,-5.6311,-5.6311,-5.6311,-5.6311,-5.6311,-5.6309,-5.6319,-5.6368,-5.6399,-5.6461,-5.6554,-5.6604,-5.6582,-5.6533,-5.65,-5.6482,-5.6484,-5.6484,-5.6487,-5.6487,-5.6487,-5.6487,-5.6487,-5.6448,-5.6487,-5.6015,-5.5691,-5.5375,-5.4643,-5.432,-5.407,-5.3726,-5.384,-5.42,-5.4276,-5.4371,-5.4825,-5.4901,-5.4856,-5.4776,-5.4568,-5.5098,-5.5826,-5.6255,-5.7026,-5.8382,-5.8677,-5.8677,-5.8677,-5.8677,-5.8677,-5.9088,-6.0165,-6.1206,-6.1224,-6.2692,-6.336,-6.3602,-6.3602,-6.3602,-6.3602,-6.3602,-6.3602,-6.362,-6.3534,-6.3534,-6.3579,-6.3534,-6.3534,-6.3579,-6.3557,-6.3534,-6.3557,-6.3534,-6.3557,-6.3557,-6.3579,-6.3602,-6.3602,-6.3602,-6.3602,-6.3602,-6.3602,-6.3602,-6.3602,-6.3602,-6.3639,-6.3639,-6.375,-6.3858,-6.4122,-6.4233,-6.4326,-6.4753,-6.5069,-6.5236,-6.5478,-6.5868,-6.6221,-6.6611,-6.6202,-6.6017,-6.6258,-6.6221,-6.5775,-6.5366,-6.5032,-6.4716,-5.6311,-5.6311,-5.6311,-5.6311,-5.6311,-5.6311,-5.6311,-5.6311,-5.6311,-5.6311,-5.6311,-5.6311,-5.6308,-5.6309,-5.6361,-5.6432,-5.6503,-5.6568,-5.6604,-5.6604,-5.6533,-5.65,-5.6482,-5.6484,-5.6484,-5.6487,-5.6487,-5.6487,-5.6487,-5.6487,-5.6487,-5.6487,-5.6487,-5.6242,-5.6117,-5.5846,-5.542,-5.519,-5.4822,-5.4674,-5.4787,-5.4806,-5.4844,-5.4882,-5.4901,-5.4901,-5.4826,-5.4726,-5.4852,-5.5574,-5.6089,-5.7106,-5.8103,-5.8658,-5.8677,-5.8677,-5.8677,-5.8677,-5.9014,-6.0165,-6.1206,-6.128,-6.2692,-6.3509,-6.3602,-6.3602,-6.3602,-6.3602,-6.3602,-6.3602,-6.3598,-6.3534,-6.3534,-6.3557,-6.3492,-6.3492,-6.3557,-6.3511,-6.3515,-6.3557,-6.3557,-6.3538,-6.3579,-6.3602,-6.3602,-6.3602,-6.3602,-6.3602,-6.3602,-6.3602,-6.3602,-6.3602,-6.3602,-6.3602,-6.3602,-6.362,-6.3695,-6.3732,-6.375,-6.3788,-6.3843,-6.4103,-6.4531,-6.5051,-6.5441,-6.5664,-6.5664,-6.5385,-6.5366,-6.5645,-6.5385,-6.4828,-6.44,-6.4029,-6.388,-5.6311,-5.6311,-5.6311,-5.6311,-5.6311,-5.6311,-5.6311,-5.6311,-5.6311,-5.6311,-5.6311,-5.6317,-5.631,-5.6308,-5.6368,-5.646,-5.6555,-5.6593,-5.6604,-5.6602,-5.6533,-5.6497,-5.6482,-5.648,-5.6484,-5.6492,-5.6487,-5.6487,-5.6487,-5.6487,-5.6487,-5.6487,-5.6487,-5.6412,-5.6226,-5.5915,-5.5702,-5.5583,-5.5191,-5.4985,-5.4946,-5.4901,-5.4901,-5.4901,-5.4901,-5.4901,-5.4901,-5.4879,-5.5044,-5.559,-5.6328,-5.7023,-5.7683,-5.8308,-5.864,-5.8677,-5.8677,-5.8677,-5.8939,-6.0184,-6.102,-6.154,-6.2617,-6.3486,-6.3602,-6.3602,-6.3602,-6.3602,-6.3602,-6.3602,-6.3602,-6.3557,-6.3579,-6.3579,-6.3579,-6.3575,-6.3598,-6.3579,-6.3557,-6.3598,-6.3579,-6.3538,-6.3579,-6.3602,-6.3602,-6.3602,-6.3602,-6.3602,-6.3602,-6.3602,-6.3602,-6.3602,-6.3602,-6.3602,-6.3602,-6.3602,-6.3639,-6.3657,-6.3657,-6.3657,-6.3695,-6.3657,-6.3973,-6.4456,-6.4568,-6.4549,-6.4489,-6.4489,-6.4642,-6.4865,-6.44,-6.388,-6.3843,-6.3788,-6.375,-5.6311,-5.6311,-5.6311,-5.6311,-5.6311,-5.6311,-5.6311,-5.6311,-5.6311,-5.6311,-5.6311,-5.6317,-5.6315,-5.631,-5.6324,-5.6426,-5.6521,-5.6573,-5.6606,-5.6602,-5.6548,-5.6491,-5.6498,-5.6496,-5.65,-5.6487,-5.6487,-5.6487,-5.6487,-5.6487,-5.6487,-5.6487,-5.6487,-5.6422,-5.6278,-5.6042,-5.587,-5.57,-5.5427,-5.5178,-5.5057,-5.4975,-5.4901,-5.4901,-5.4901,-5.4901,-5.4886,-5.4791,-5.4805,-5.5157,-5.6048,-5.6612,-5.7182,-5.7973,-5.8677,-5.8677,-5.8677,-5.8677,-5.8826,-5.9905,-6.063,-6.1261,-6.2357,-6.3156,-6.3472,-6.3602,-6.3602,-6.3602,-6.3602,-6.3602,-6.3602,-6.3602,-6.3602,-6.3602,-6.3602,-6.3602,-6.3602,-6.3602,-6.3602,-6.3602,-6.3579,-6.3579,-6.3579,-6.3602,-6.3602,-6.3602,-6.3602,-6.3602,-6.3602,-6.3602,-6.3602,-6.3602,-6.3602,-6.3602,-6.3602,-6.3602,-6.3602,-6.3602,-6.3602,-6.3602,-6.3602,-6.3602,-6.3602,-6.3825,-6.3788,-6.3821,-6.3839,-6.4029,-6.4066,-6.4103,-6.3899,-6.3732,-6.3657,-6.362,-6.3602,-5.6311,-5.6311,-5.6311,-5.6311,-5.6311,-5.6311,-5.6311,-5.6311,-5.6311,-5.6311,-5.6311,-5.6298,-5.6308,-5.631,-5.6336,-5.6404,-5.6523,-5.6564,-5.6606,-5.6599,-5.6539,-5.6485,-5.6494,-5.6492,-5.6487,-5.6487,-5.6487,-5.6487,-5.6487,-5.6487,-5.6487,-5.6487,-5.6487,-5.645,-5.6338,-5.6149,-5.6029,-5.588,-5.57,-5.5462,-5.5223,-5.5014,-5.4901,-5.4901,-5.4901,-5.4901,-5.4886,-5.4791,-5.4619,-5.4912,-5.5675,-5.6518,-5.6622,-5.7825,-5.8661,-5.8677,-5.8677,-5.8677,-5.8881,-5.9497,-6.0388,-6.1168,-6.1949,-6.2747,-6.336,-6.3602,-6.3602,-6.3602,-6.3602,-6.3602,-6.3602,-6.3602,-6.3602,-6.3602,-6.3602,-6.3602,-6.3602,-6.3602,-6.3602,-6.3602,-6.3602,-6.3602,-6.3602,-6.3602,-6.3602,-6.3602,-6.3602,-6.3602,-6.3602,-6.3602,-6.3602,-6.3602,-6.3602,-6.3602,-6.3602,-6.3602,-6.3602,-6.3602,-6.3602,-6.3602,-6.3602,-6.3602,-6.3602,-6.3602,-6.362,-6.3695,-6.362,-6.3602,-6.375,-6.3806,-6.3676,-6.3602,-6.3602,-6.3602,-6.3602,-5.6311,-5.6311,-5.6311,-5.6311,-5.6311,-5.6311,-5.6311,-5.6311,-5.6311,-5.6311,-5.6311,-5.6311,-5.6304,-5.6306,-5.637,-5.6424,-5.6504,-5.6551,-5.6591,-5.6584,-5.6539,-5.6485,-5.6498,-5.6484,-5.6487,-5.6487,-5.6487,-5.6487,-5.6487,-5.6487,-5.6487,-5.6487,-5.6487,-5.6483,-5.6441,-5.6269,-5.6059,-5.5968,-5.574,-5.5481,-5.5236,-5.5014,-5.4916,-5.4901,-5.4901,-5.4901,-5.4901,-5.4822,-5.4717,-5.4612,-5.5913,-5.6538,-5.6623,-5.7825,-5.8531,-5.8677,-5.8677,-5.8677,-5.8807,-5.9367,-6.024,-6.1076,-6.1874,-6.2729,-6.3342,-6.3602,-6.3602,-6.3602,-6.3602,-6.3602,-6.3602,-6.3602,-6.3602,-6.3602,-6.3602,-6.3602,-6.3602,-6.3602,-6.3602,-6.3602,-6.3602,-6.3602,-6.3602,-6.3602,-6.3602,-6.3602,-6.3602,-6.3602,-6.3602,-6.3602,-6.3602,-6.3602,-6.3602,-6.3602,-6.3602,-6.3602,-6.3602,-6.3602,-6.3602,-6.3602,-6.3602,-6.3602,-6.3602,-6.3602,-6.3602,-6.3602,-6.3602,-6.3602,-6.3602,-6.3602,-6.3602,-6.3602,-6.3602,-6.3602,-6.3602,-5.6311,-5.6311,-5.6311,-5.6311,-5.6311,-5.6311,-5.6311,-5.6311,-5.6311,-5.6311,-5.6311,-5.6311,-5.6311,-5.6296,-5.6336,-5.6375,-5.6435,-5.6503,-5.6566,-5.6565,-5.6539,-5.6485,-5.6494,-5.6488,-5.6487,-5.6487,-5.6487,-5.6487,-5.6487,-5.6487,-5.6487,-5.6487,-5.6487,-5.6487,-5.6487,-5.6393,-5.6251,-5.6056,-5.576,-5.5501,-5.5333,-5.5099,-5.4901,-5.4901,-5.4901,-5.4901,-5.4901,-5.4886,-5.4733,-5.4775,-5.5931,-5.6612,-5.6754,-5.7695,-5.8677,-5.8677,-5.8677,-5.8677,-5.8733,-5.9048,-5.9924,-6.089,-6.1651,-6.2246,-6.3212,-6.3602,-6.3602,-6.3602,-6.3602,-6.3602,-6.3602,-6.3602,-6.3602,-6.3602,-6.3602,-6.3602,-6.3602,-6.3602,-6.3602,-6.3602,-6.3602,-6.3602,-6.3602,-6.3602,-6.3602,-6.3602,-6.3602,-6.3602,-6.3602,-6.3602,-6.3602,-6.3602,-6.3602,-6.3602,-6.3602,-6.3602,-6.3602,-6.3602,-6.3602,-6.3602,-6.3602,-6.3602,-6.3602,-6.3602,-6.3602,-6.3602,-6.3602,-6.3602,-6.3602,-6.3602,-6.3602,-6.3602,-6.3602,-6.3602,-6.3602,-5.6311,-5.6311,-5.6311,-5.6311,-5.6311,-5.6311,-5.6311,-5.6311,-5.6311,-5.6311,-5.6311,-5.6311,-5.6311,-5.6309,-5.631,-5.6342,-5.6395,-5.6481,-5.6538,-5.6552,-5.6545,-5.6488,-5.6494,-5.6492,-5.6492,-5.6487,-5.6487,-5.6487,-5.6487,-5.6487,-5.6487,-5.6487,-5.6487,-5.6487,-5.6487,-5.645,-5.6363,-5.6168,-5.574,-5.5508,-5.542,-5.5113,-5.4946,-5.4901,-5.4901,-5.4901,-5.4901,-5.4901,-5.4749,-5.4758,-5.5931,-5.6631,-5.6604,-5.7751,-5.8603,-5.8677,-5.8677,-5.8677,-5.8677,-5.89,-5.9645,-6.0704,-6.1781,-6.2599,-6.3323,-6.3602,-6.3602,-6.3602,-6.3602,-6.3602,-6.3602,-6.3602,-6.3602,-6.3602,-6.3602,-6.3602,-6.3602,-6.3602,-6.3602,-6.3602,-6.3602,-6.3602,-6.3602,-6.3602,-6.3602,-6.3602,-6.3602,-6.3602,-6.3602,-6.3602,-6.3602,-6.3602,-6.3602,-6.3602,-6.3602,-6.3602,-6.3602,-6.3602,-6.3602,-6.3602,-6.3602,-6.3602,-6.3602,-6.3602,-6.3602,-6.3602,-6.3602,-6.3602,-6.3602,-6.3602,-6.3602,-6.3602,-6.3602,-6.3602,-6.3602,-5.6311,-5.6311,-5.6311,-5.6311,-5.6311,-5.6311,-5.6311,-5.6311,-5.6311,-5.6311,-5.6311,-5.6311,-5.6311,-5.6303,-5.6315,-5.6324,-5.6391,-5.6481,-5.654,-5.6561,-5.6533,-5.6503,-5.6491,-5.6494,-5.6484,-5.6492,-5.6487,-5.6487,-5.6487,-5.6487,-5.6487,-5.6487,-5.6487,-5.6487,-5.6479,-5.6465,-5.6363,-5.6128,-5.5721,-5.5516,-5.5395,-5.5135,-5.4916,-5.4901,-5.4901,-5.4901,-5.4901,-5.4901,-5.478,-5.4535,-5.595,-5.6649,-5.6682,-5.7882,-5.8605,-5.8677,-5.8677,-5.8677,-5.8677,-5.8788,-5.9608,-6.1038,-6.2376,-6.3212,-6.3546,-6.3602,-6.3602,-6.3602,-6.3602,-6.3602,-6.3602,-6.3602,-6.3602,-6.3602,-6.3602,-6.3602,-6.3602,-6.3602,-6.3602,-6.3602,-6.3602,-6.3602,-6.3602,-6.3602,-6.3602,-6.3602,-6.3602,-6.3602,-6.3602,-6.3602,-6.3602,-6.3602,-6.3602,-6.3602,-6.3602,-6.3602,-6.3602,-6.3602,-6.3602,-6.3602,-6.3602,-6.3602,-6.3602,-6.3602,-6.3602,-6.3602,-6.3602,-6.3602,-6.3602,-6.3602,-6.3602,-6.3602,-6.3602,-6.3602,-6.3602,-5.6311,-5.6311,-5.6311,-5.6311,-5.6311,-5.6311,-5.6311,-5.6311,-5.6311,-5.6311,-5.6311,-5.6311,-5.6311,-5.631,-5.6302,-5.6327,-5.6404,-5.6424,-5.6483,-5.6518,-5.6516,-5.6489,-5.6499,-5.6491,-5.6488,-5.648,-5.6492,-5.6487,-5.6487,-5.6487,-5.6487,-5.6487,-5.6487,-5.6487,-5.6479,-5.6393,-5.6288,-5.6107,-5.576,-5.5516,-5.542,-5.5121,-5.4901,-5.4901,-5.4901,-5.4901,-5.4901,-5.4901,-5.4764,-5.4985,-5.6057,-5.6425,-5.6704,-5.7943,-5.8586,-5.8698,-5.8677,-5.8677,-5.8735,-5.8828,-5.9478,-6.1076,-6.258,-6.3602,-6.3602,-6.3602,-6.3602,-6.3602,-6.3602,-6.3602,-6.3602,-6.3602,-6.3602,-6.3602,-6.3602,-6.3602,-6.3602,-6.3602,-6.3602,-6.3602,-6.3602,-6.3602,-6.3602,-6.3602,-6.3602,-6.3602,-6.3602,-6.3602,-6.3602,-6.3602,-6.3602,-6.3602,-6.3602,-6.3602,-6.3602,-6.3602,-6.3602,-6.3602,-6.3602,-6.3602,-6.3602,-6.3602,-6.3602,-6.3602,-6.3602,-6.3602,-6.3602,-6.3602,-6.3602,-6.3602,-6.3602,-6.3602,-6.3602,-6.3602,-6.3602,-5.6311,-5.6311,-5.6311,-5.6311,-5.6311,-5.6311,-5.6311,-5.6311,-5.6311,-5.6311,-5.6311,-5.6311,-5.6311,-5.6311,-5.6304,-5.6334,-5.6386,-5.6417,-5.6479,-5.6502,-5.6538,-5.6516,-5.6491,-5.6492,-5.648,-5.6492,-5.6496,-5.6487,-5.6487,-5.6487,-5.6487,-5.6487,-5.6487,-5.6487,-5.6446,-5.6306,-5.6214,-5.6093,-5.5779,-5.5516,-5.5456,-5.5127,-5.4901,-5.4901,-5.4901,-5.4901,-5.4901,-5.4886,-5.4791,-5.5161,-5.5879,-5.6608,-5.7117,-5.7746,-5.8595,-5.8719,-5.8677,-5.8677,-5.8772,-5.9367,-5.9924,-6.1206,-6.2692,-6.3416,-6.3602,-6.3602,-6.3602,-6.3602,-6.3602,-6.3602,-6.3602,-6.3602,-6.3602,-6.3602,-6.3602,-6.3602,-6.3602,-6.3602,-6.3602,-6.3602,-6.3602,-6.3602,-6.362,-6.3579,-6.3579,-6.3579,-6.3602,-6.3602,-6.3602,-6.3602,-6.3602,-6.3602,-6.3602,-6.3602,-6.3602,-6.3602,-6.3602,-6.3602,-6.3602,-6.3602,-6.3602,-6.3602,-6.3602,-6.3602,-6.3602,-6.3602,-6.3602,-6.3602,-6.3602,-6.3602,-6.3602,-6.3602,-6.3602,-6.3602,-6.3602,-5.6311,-5.6311,-5.6311,-5.6311,-5.6311,-5.6311,-5.6311,-5.6311,-5.6311,-5.6311,-5.6311,-5.6311,-5.6311,-5.6311,-5.6311,-5.6334,-5.6389,-5.6389,-5.6456,-5.6554,-5.6543,-5.655,-5.6516,-5.6481,-5.6491,-5.6492,-5.6496,-5.6487,-5.6487,-5.6487,-5.6487,-5.6487,-5.6487,-5.6487,-5.6494,-5.63,-5.622,-5.6141,-5.573,-5.5562,-5.542,-5.5127,-5.4931,-5.4901,-5.4901,-5.4901,-5.4901,-5.4901,-5.4882,-5.5189,-5.6227,-5.6829,-5.6987,-5.8142,-5.8788,-5.8698,-5.8698,-5.8716,-5.8828,-6.024,-6.0927,-6.1336,-6.2673,-6.3527,-6.3602,-6.3602,-6.3602,-6.3602,-6.3602,-6.3602,-6.3602,-6.3602,-6.3602,-6.3602,-6.3602,-6.3602,-6.3602,-6.3602,-6.3602,-6.3602,-6.3602,-6.3602,-6.3598,-6.3598,-6.3579,-6.3579,-6.3579,-6.3602,-6.3602,-6.3602,-6.3602,-6.3602,-6.3602,-6.3602,-6.3602,-6.3602,-6.3602,-6.3602,-6.3602,-6.3602,-6.3602,-6.3602,-6.3602,-6.3602,-6.3602,-6.3602,-6.3602,-6.3602,-6.3602,-6.3602,-6.3602,-6.3602,-6.3602,-6.3602,-6.3602,-5.6311,-5.6311,-5.6311,-5.6311,-5.6311,-5.6311,-5.6311,-5.6311,-5.6311,-5.6311,-5.6311,-5.6311,-5.6311,-5.6311,-5.6303,-5.633,-5.6389,-5.6345,-5.6415,-5.6521,-5.6537,-5.6539,-5.651,-5.6492,-5.6501,-5.6487,-5.6488,-5.6487,-5.6487,-5.6487,-5.6487,-5.6487,-5.6487,-5.6487,-5.6441,-5.6311,-5.6214,-5.6134,-5.5789,-5.5511,-5.5456,-5.514,-5.4901,-5.4901,-5.4901,-5.4901,-5.4901,-5.4901,-5.5064,-5.5498,-5.6632,-5.7016,-5.7398,-5.8556,-5.8745,-5.8698,-5.8696,-5.8974,-5.9534,-6.0537,-6.1113,-6.1707,-6.258,-6.3565,-6.3602,-6.3602,-6.3602,-6.3602,-6.3602,-6.3602,-6.3602,-6.3602,-6.3602,-6.3602,-6.3602,-6.3602,-6.3602,-6.3602,-6.3602,-6.3602,-6.3602,-6.3534,-6.3511,-6.3511,-6.3492,-6.3534,-6.3557,-6.3579,-6.3602,-6.3602,-6.3602,-6.3602,-6.3602,-6.3602,-6.3602,-6.3602,-6.3602,-6.3602,-6.3602,-6.3602,-6.3602,-6.3602,-6.3602,-6.3602,-6.3602,-6.3602,-6.3602,-6.3602,-6.3602,-6.3602,-6.3602,-6.3602,-6.3602,-6.3602,-6.3602,-5.6311,-5.6311,-5.6311,-5.6311,-5.6311,-5.6311,-5.6311,-5.6311,-5.6311,-5.6311,-5.6311,-5.6311,-5.6311,-5.6304,-5.63,-5.6324,-5.6402,-5.6361,-5.6417,-5.6522,-5.6523,-5.652,-5.6507,-5.6482,-5.6485,-5.6487,-5.6488,-5.6487,-5.6487,-5.6487,-5.6487,-5.6487,-5.6487,-5.6487,-5.6437,-5.6336,-5.6214,-5.6097,-5.5789,-5.5523,-5.5395,-5.5162,-5.4901,-5.4901,-5.4901,-5.4901,-5.4901,-5.5034,-5.5299,-5.6059,-5.671,-5.7278,-5.7978,-5.85,-5.8725,-5.8719,-5.8733,-5.9104,-5.985,-6.0685,-6.1261,-6.1763,-6.2914,-6.3509,-6.3602,-6.3602,-6.3602,-6.3602,-6.3602,-6.3602,-6.3602,-6.3602,-6.3602,-6.3602,-6.3602,-6.3602,-6.3579,-6.3579,-6.3534,-6.3557,-6.3447,-6.34,-6.3377,-6.34,-6.3424,-6.347,-6.3511,-6.3557,-6.3602,-6.3602,-6.3602,-6.3602,-6.3602,-6.3602,-6.3602,-6.3602,-6.3602,-6.3602,-6.3602,-6.3602,-6.3602,-6.3602,-6.3602,-6.3602,-6.3602,-6.3602,-6.3602,-6.3602,-6.3602,-6.3602,-6.3602,-6.3602,-6.3602,-6.3602,-6.3602,-5.6311,-5.6311,-5.6311,-5.6311,-5.6311,-5.6311,-5.6311,-5.6311,-5.6311,-5.6311,-5.6311,-5.6311,-5.6311,-5.6303,-5.63,-5.6351,-5.6394,-5.6399,-5.6482,-5.654,-5.6523,-5.6495,-5.6493,-5.6497,-5.6494,-5.6496,-5.6496,-5.6487,-5.6487,-5.6487,-5.6487,-5.6487,-5.6487,-5.6487,-5.6437,-5.6331,-5.6226,-5.6097,-5.5769,-5.5551,-5.542,-5.5107,-5.4946,-5.4901,-5.4901,-5.4901,-5.4958,-5.5091,-5.5583,-5.6242,-5.6889,-5.7514,-5.8126,-5.867,-5.8755,-5.8741,-5.8698,-5.9199,-6.0035,-6.0927,-6.1689,-6.2339,-6.31,-6.3509,-6.3602,-6.3602,-6.3602,-6.3602,-6.3602,-6.3602,-6.3602,-6.3602,-6.3602,-6.3602,-6.3602,-6.3579,-6.3579,-6.3557,-6.347,-6.3382,-6.3223,-6.3176,-6.326,-6.3307,-6.3336,-6.3447,-6.3492,-6.3557,-6.3602,-6.3602,-6.3602,-6.3602,-6.3602,-6.3602,-6.3602,-6.3602,-6.3602,-6.3602,-6.3602,-6.3602,-6.3602,-6.3602,-6.3602,-6.3602,-6.3602,-6.3602,-6.3602,-6.3602,-6.3602,-6.3602,-6.3602,-6.3602,-6.3602,-6.3602,-6.3602,-5.6311,-5.6311,-5.6311,-5.6311,-5.6311,-5.6311,-5.6311,-5.6311,-5.6311,-5.6311,-5.6311,-5.6311,-5.6311,-5.631,-5.6305,-5.6358,-5.6377,-5.6377,-5.646,-5.6504,-5.6504,-5.6499,-5.6495,-5.6488,-5.6491,-5.6492,-5.6496,-5.6487,-5.6487,-5.6487,-5.6487,-5.6487,-5.6487,-5.6487,-5.6432,-5.63,-5.6239,-5.6078,-5.573,-5.5566,-5.5395,-5.5094,-5.4975,-5.4901,-5.4901,-5.4901,-5.4958,-5.5489,-5.6114,-5.6917,-5.7507,-5.8144,-5.8896,-5.8871,-5.8719,-5.8719,-5.8828,-5.9255,-6.0537,-6.1076,-6.1763,-6.284,-6.3453,-6.3527,-6.3602,-6.3602,-6.3602,-6.3602,-6.3602,-6.3602,-6.3602,-6.3602,-6.3602,-6.3602,-6.3602,-6.3579,-6.3557,-6.3377,-6.3289,-6.3014,-6.2874,-6.2941,-6.3026,-6.3237,-6.3307,-6.34,-6.347,-6.3557,-6.3579,-6.3579,-6.3602,-6.3602,-6.3602,-6.3602,-6.3602,-6.3602,-6.3602,-6.3602,-6.3602,-6.3602,-6.3602,-6.3602,-6.3602,-6.3602,-6.3602,-6.3602,-6.3602,-6.3602,-6.3602,-6.3602,-6.3602,-6.3602,-6.3602,-6.3602,-6.3602,-5.6311,-5.6311,-5.6311,-5.6311,-5.6311,-5.6311,-5.6311,-5.6311,-5.6311,-5.6311,-5.6311,-5.6311,-5.6317,-5.6309,-5.6323,-5.6361,-5.6385,-5.6377,-5.6416,-5.6479,-5.6462,-5.6459,-5.6467,-5.6498,-5.648,-5.6484,-5.6496,-5.6487,-5.6487,-5.6487,-5.6487,-5.6487,-5.6487,-5.6487,-5.6437,-5.6311,-5.6226,-5.6048,-5.5789,-5.5577,-5.5358,-5.5107,-5.4975,-5.4901,-5.4901,-5.4901,-5.5034,-5.5754,-5.6569,-5.7318,-5.7851,-5.8464,-5.9047,-5.8924,-5.8716,-5.8677,-5.8735,-5.9589,-6.076,-6.1131,-6.2134,-6.31,-6.3602,-6.3602,-6.3602,-6.3602,-6.3602,-6.3602,-6.3602,-6.3602,-6.3602,-6.3602,-6.3602,-6.3602,-6.3602,-6.3602,-6.3424,-6.3194,-6.2917,-6.2606,-6.2556,-6.2625,-6.2793,-6.3051,-6.326,-6.3377,-6.347,-6.3515,-6.3557,-6.3557,-6.3579,-6.3602,-6.3602,-6.3602,-6.3579,-6.3579,-6.3579,-6.3579,-6.3602,-6.3602,-6.3602,-6.3602,-6.3602,-6.3602,-6.3602,-6.3602,-6.3602,-6.3602,-6.3602,-6.3602,-6.3602,-6.3602,-6.3602,-6.3602,-6.3602,-5.6311,-5.6311,-5.6311,-5.6311,-5.6311,-5.6311,-5.6311,-5.6311,-5.6311,-5.6311,-5.6311,-5.6311,-5.6311,-5.6321,-5.6356,-5.6389,-5.6382,-5.6377,-5.6417,-5.6482,-5.6424,-5.6425,-5.6486,-5.6492,-5.6488,-5.6496,-5.6487,-5.6487,-5.6487,-5.6487,-5.6487,-5.6487,-5.6487,-5.6487,-5.645,-5.63,-5.6214,-5.6114,-5.5798,-5.5511,-5.5395,-5.5149,-5.4901,-5.4901,-5.4901,-5.492,-5.5166,-5.5773,-5.6626,-5.7292,-5.7997,-5.8651,-5.8819,-5.8904,-5.8739,-5.8677,-5.8677,-5.9682,-6.0685,-6.1187,-6.2116,-6.3007,-6.3602,-6.3602,-6.3602,-6.3602,-6.3602,-6.3602,-6.3602,-6.3602,-6.3602,-6.3602,-6.3602,-6.3602,-6.3602,-6.3511,-6.3289,-6.2892,-6.2305,-6.2049,-6.2049,-6.2227,-6.2935,-6.3189,-6.3284,-6.34,-6.3289,-6.3294,-6.327,-6.327,-6.34,-6.3447,-6.3488,-6.3488,-6.3488,-6.3488,-6.3557,-6.3557,-6.3579,-6.3602,-6.3602,-6.3602,-6.3602,-6.3602,-6.3602,-6.3602,-6.3602,-6.3602,-6.3602,-6.3602,-6.3602,-6.3602,-6.3602,-6.3602,-6.3602,-5.6311,-5.6311,-5.6311,-5.6311,-5.6311,-5.6311,-5.6311,-5.6311,-5.6311,-5.6311,-5.6311,-5.6311,-5.6298,-5.6308,-5.6377,-5.6377,-5.6348,-5.6393,-5.644,-5.6445,-5.6422,-5.6442,-5.6485,-5.6488,-5.648,-5.6492,-5.6487,-5.6487,-5.6487,-5.6487,-5.6487,-5.6487,-5.6487,-5.6487,-5.6455,-5.6294,-5.6188,-5.6161,-5.5779,-5.5516,-5.5425,-5.5162,-5.4901,-5.4901,-5.4901,-5.4958,-5.5375,-5.6341,-5.6948,-5.751,-5.8512,-5.8878,-5.8843,-5.8739,-5.8698,-5.8677,-5.8735,-5.9664,-6.0648,-6.1298,-6.206,-6.3026,-6.3602,-6.3602,-6.3602,-6.3602,-6.3602,-6.3602,-6.3602,-6.3602,-6.3602,-6.3602,-6.3602,-6.3602,-6.3579,-6.34,-6.3194,-6.2453,-6.1741,-6.164,-6.1612,-6.2103,-6.2843,-6.3194,-6.3331,-6.32,-6.2855,-6.2713,-6.2613,-6.2631,-6.2917,-6.3032,-6.326,-6.3302,-6.3349,-6.3396,-6.3424,-6.347,-6.347,-6.3534,-6.3598,-6.3579,-6.3557,-6.3579,-6.3602,-6.3602,-6.3602,-6.3602,-6.3602,-6.3602,-6.3602,-6.3602,-6.3602,-6.3602,-6.3602,-5.5728,-5.5767,-5.6136,-5.6311,-5.6311,-5.6311,-5.6311,-5.6311,-5.6311,-5.6311,-5.6311,-5.6298,-5.6303,-5.6328,-5.6371,-5.638,-5.6355,-5.6421,-5.6444,-5.6426,-5.6424,-5.6444,-5.6478,-5.6484,-5.6496,-5.6487,-5.6487,-5.6487,-5.6487,-5.6487,-5.6487,-5.6487,-5.6487,-5.6455,-5.6412,-5.6269,-5.6175,-5.6134,-5.5729,-5.5531,-5.5449,-5.5149,-5.4916,-5.4901,-5.492,-5.5053,-5.5811,-5.6758,-5.7422,-5.7989,-5.8849,-5.8933,-5.8823,-5.8698,-5.8698,-5.8677,-5.8884,-5.9441,-6.063,-6.1391,-6.1967,-6.3026,-6.3602,-6.3602,-6.3602,-6.3602,-6.3602,-6.3602,-6.3602,-6.3602,-6.3602,-6.3602,-6.3602,-6.3602,-6.347,-6.3312,-6.2682,-6.1888,-6.1584,-6.1622,-6.1677,-6.187,-6.2461,-6.27,-6.2707,-6.2258,-6.2003,-6.1941,-6.1879,-6.1942,-6.2253,-6.2599,-6.2818,-6.3099,-6.326,-6.3284,-6.3307,-6.3354,-6.3377,-6.3414,-6.3456,-6.3488,-6.3492,-6.3719,-6.3802,-6.3602,-6.3602,-6.3732,-6.3639,-6.3602,-6.3602,-6.3602,-6.3602,-6.3602,-6.3602,-5.4912,-5.5106,-5.5806,-5.6194,-5.6311,-5.6311,-5.6311,-5.6311,-5.6311,-5.6311,-5.6311,-5.6311,-5.6311,-5.6331,-5.6352,-5.6394,-5.6413,-5.643,-5.6426,-5.6422,-5.6399,-5.6445,-5.6478,-5.6487,-5.6487,-5.6487,-5.6487,-5.6487,-5.6487,-5.6487,-5.6487,-5.6487,-5.6455,-5.6437,-5.6328,-5.6219,-5.6148,-5.6028,-5.5769,-5.5551,-5.5345,-5.514,-5.4975,-5.4901,-5.4977,-5.5375,-5.6152,-5.6967,-5.7782,-5.8448,-5.8962,-5.8933,-5.8823,-5.8677,-5.8677,-5.8677,-5.8677,-5.9627,-6.0741,-6.1224,-6.219,-6.31,-6.3435,-6.3602,-6.3602,-6.3602,-6.3602,-6.3602,-6.3602,-6.3602,-6.3602,-6.3602,-6.3602,-6.3488,-6.3336,-6.2995,-6.2156,-6.1386,-6.1415,-6.151,-6.1687,-6.1824,-6.1978,-6.2182,-6.196,-6.1494,-6.1164,-6.1066,-6.1073,-6.1207,-6.1454,-6.1915,-6.2305,-6.265,-6.3026,-6.3165,-6.3189,-6.3213,-6.3237,-6.3292,-6.3501,-6.4007,-6.4244,-6.416,-6.4128,-6.4192,-6.401,-6.4006,-6.3899,-6.3713,-6.3602,-6.3602,-6.3602,-6.3602,-6.3602,-5.4368,-5.5009,-5.5184,-5.5631,-5.6214,-5.6291,-5.6311,-5.6291,-5.6311,-5.6311,-5.6311,-5.6304,-5.6306,-5.6312,-5.632,-5.6358,-5.6426,-5.6432,-5.6423,-5.6406,-5.6412,-5.6447,-5.6476,-5.6487,-5.6487,-5.6487,-5.6487,-5.6487,-5.6487,-5.6487,-5.6487,-5.6487,-5.6378,-5.6338,-5.6297,-5.6201,-5.609,-5.5962,-5.5749,-5.5523,-5.5395,-5.5195,-5.496,-5.4901,-5.492,-5.547,-5.6152,-5.6967,-5.7801,-5.8538,-5.9037,-5.8989,-5.8843,-5.8677,-5.8677,-5.8751,-5.8733,-5.972,-6.0667,-6.1261,-6.2264,-6.3342,-6.3602,-6.3602,-6.3602,-6.3602,-6.3602,-6.3602,-6.3602,-6.3602,-6.3602,-6.3602,-6.3579,-6.3284,-6.3075,-6.2357,-6.1556,-6.1151,-6.0962,-6.1203,-6.1538,-6.1576,-6.1586,-6.1724,-6.1706,-6.1182,-6.0519,-6.0432,-6.0295,-6.045,-6.0741,-6.1311,-6.1888,-6.2298,-6.2762,-6.2978,-6.3045,-6.3093,-6.332,-6.3774,-6.4327,-6.5038,-6.5202,-6.4948,-6.5092,-6.5269,-6.5009,-6.4489,-6.4155,-6.3992,-6.3713,-6.3602,-6.3602,-6.3602,-6.3602]},{"header":{"parameterUnit":"m.s-1","parameterCategory":1,"la1":31.0,"la2":29.5877,"lo1":-88.7671,"lo2":-86.6584,"dy":0.0162,"dx":0.0185,"nx":115,"ny":88,"refTime":"2024-02-23T06:00:00:Z","depth":0,"parameterNumber":3,"parameterNumberName":"V-component_of_WINDS"},"data":[0.0,0.0,0.0,0.0,0.0,0.0,0.0,0.0,0.0,0.0,0.0,0.0,0.0,0.0,0.0,0.0,0.0,0.0,0.0,0.0,0.0,0.0,0.0,0.0,0.0,0.0,0.0,0.0,0.0,0.0,0.0,0.0,0.0,0.0,0.0,0.0,0.0,0.0,0.0,0.0,0.0,0.0,0.0,0.0,0.0,0.0,0.0,0.0,0.0,0.0,0.0,0.0,0.0,0.0,0.0,0.0,0.0,0.0,0.0,0.0,0.0,0.0,0.0,0.0,0.0,0.0,0.0,0.0,0.0,0.0,0.0,0.0,0.0,0.0,0.0,0.0,0.0,0.0,0.0,0.0,0.0,0.0,0.0,0.0,0.0,0.0,0.0,0.0,0.0,0.0,0.0,0.0,0.0,0.0,0.0,0.0,0.0,0.0,0.0,0.0,0.0,0.0,0.0,0.0,0.0,0.0,0.0,0.0,0.0,0.0,0.0,0.0,0.0,0.0,0.0,0.0,0.0,0.0,0.0,0.0,0.0,0.0,0.0,0.0,0.0,0.0,0.0,0.0,0.0,0.0,0.0,0.0,0.0,0.0,0.0,0.0,0.0,0.0,0.0,0.0,0.0,0.0,0.0,0.0,0.0,0.0,0.0,0.0,0.0,0.0,0.0,0.0,0.0,0.0,0.0,0.0,0.0,0.0,0.0,0.0,0.0,0.0,0.0,0.0,0.0,0.0,0.0,0.0,0.0,0.0,0.0,0.0,0.0,0.0,0.0,0.0,0.0,0.0,0.0,0.0,0.0,0.0,0.0,0.0,0.0,0.0,0.0,0.0,0.0,0.0,0.0,0.0,0.0,0.0,0.0,0.0,0.0,0.0,0.0,0.0,0.0,0.0,0.0,0.0,0.0,0.0,0.0,0.0,0.0,0.0,0.0,0.0,0.0,0.0,0.0,0.0,0.0,0.0,0.0,0.0,0.0,0.0,0.0,0.0,0.0,0.0,0.0,0.0,0.0,0.0,0.0,0.0,0.0,0.0,0.0,0.0,0.0,0.0,0.0,0.0,0.0,0.0,0.0,0.0,0.0,0.0,0.0,0.0,0.0,0.0,0.0,0.0,0.0,0.0,0.0,0.0,0.0,0.0,0.0,0.0,0.0,0.0,0.0,0.0,0.0,0.0,0.0,0.0,0.0,0.0,0.0,0.0,0.0,0.0,0.0,0.0,0.0,0.0,0.0,0.0,0.0,0.0,0.0,0.0,0.0,0.0,0.0,0.0,0.0,0.0,0.0,0.0,0.0,0.0,0.0,0.0,0.0,0.0,0.0,0.0,0.0,0.0,0.0,0.0,0.0,0.0,0.0,0.0,0.0,0.0,0.0,0.0,0.0,0.0,0.0,0.0,0.0,0.0,0.0,0.0,0.0,0.0,0.0,0.0,0.0,0.0,0.0,0.0,0.0,0.0,0.0,0.0,0.0,0.0,0.0,0.0,0.0,0.0,0.0,0.0,0.0,0.0,0.0,0.0,0.0,0.0,0.0,0.0,0.0,0.0,0.0,0.0,0.0,0.0,0.0,0.0,0.0,0.0,0.0,0.0,0.0,0.0,0.0,0.0,0.0,0.0,0.0,0.0,0.0,0.0,0.0,0.0,0.0,0.0,0.0,0.0,0.0,0.0,0.0,0.0,0.0,0.0,0.0,0.0,0.0,0.0,0.0,0.0,0.0,0.0,0.0,0.0,0.0,0.0,0.0,0.0,0.0,0.0,0.0,0.0,0.0,0.0,0.0,0.0,0.0,0.0,0.0,0.0,0.0,0.0,0.0,0.0,0.0,0.0,0.0,0.0,0.0,0.0,0.0,0.0,0.0,0.0,0.0,0.0,0.0,0.0,0.0,0.0,0.0,0.0,0.0,0.0,0.0,0.0,0.0,0.0,0.0,0.0,0.0,0.0,0.0,0.0,0.0,0.0,0.0,0.0,0.0,0.0,0.0,0.0,0.0,0.0,0.0,0.0,0.0,0.0,0.0,0.0,0.0,0.0,0.0,0.0,0.0,0.0,0.0,0.0,0.0,0.0,0.0,0.0,0.0,0.0,0.0,0.0,0.0,0.0,0.0,0.0,0.0,0.0,0.0,0.0,0.0,0.0,0.0,0.0,0.0,0.0,0.0,0.0,0.0,0.0,0.0,0.0,0.0,0.0,0.0,0.0,0.0,0.0,0.0,0.0,0.0,0.0,0.0,0.0,0.0,0.0,0.0,0.0,0.0,0.0,0.0,0.0,0.0,0.0,0.0,0.0,0.0,0.0,0.0,0.0,0.0,0.0,0.0,0.0,0.0,0.0,0.0,0.0,0.0,0.0,0.0,0.0,0.0,0.0,0.0,0.0,0.0,0.0,0.0,0.0,0.0,0.0,0.0,0.0,0.0,0.0,0.0,0.0,0.0,0.0,0.0,0.0,0.0,0.0,0.0,0.0,0.0,0.0,0.0,0.0,0.0,0.0,0.0,0.0,0.0,0.0,0.0,0.0,0.0,0.0,0.0,0.0,0.0,0.0,0.0,0.0,0.0,0.0,0.0,0.0,0.0,0.0,0.0,0.0,0.0,0.0,0.0,0.0,0.0,0.0,0.0,0.0,0.0,0.0,0.0,0.0,0.0,0.0,0.0,0.0,0.0,0.0,0.0,0.0,0.0,0.0,0.0,0.0,0.0,0.0,0.0,0.0,0.0,0.0,0.0,0.0,0.0,0.0,0.0,0.0,0.0,0.0,0.0,0.0,0.0,0.0,0.0,0.0,0.0,0.0,0.0,0.0,0.0,0.0,0.0,0.0,0.0,0.0,0.0,0.0,0.0,0.0,0.0,0.0,0.0,0.0,0.0,0.0,0.0,0.0,0.0,0.0,0.0,0.0,0.0,0.0,0.0,0.0,0.0,0.0,0.0,0.0,0.0,0.0,0.0,0.0,0.0,0.0,0.0,0.0,0.0,0.0,0.0,0.0,0.0,0.0,0.0,0.0,0.0,0.0,0.0,0.0,0.0,0.0,0.0,0.0,0.0,0.0,0.0,0.0,0.0,0.0,0.0,0.0,0.0,0.0,0.0,0.0,0.0,0.0,0.0,0.0,0.0,0.0,0.0,0.0,0.0,0.0,0.0,0.0,0.0,0.0,0.0,0.0,0.0,0.0,0.0,0.0,0.0,0.0,0.0,0.0,0.0,0.0,0.0,0.0,0.0,0.0,0.0,0.0,0.0,0.0,0.0,0.0,0.0,0.0,0.0,0.0,0.0,0.0,0.0,0.0,0.0,0.0,0.0,0.0,0.0,0.0,0.0,0.0,0.0,0.0,0.0,0.0,0.0,0.0,0.0,0.0,0.0,0.0,0.0,0.0,0.0,0.0,0.0,0.0,0.0,0.0,0.0,0.0,0.0,0.0,0.0,0.0,0.0,0.0,0.0,0.0,0.0,0.0,0.0,0.0,0.0,0.0,0.0,0.0,0.0,0.0,0.0,0.0,0.0,0.0,0.0,0.0,0.0,0.0,0.0,0.0,0.0,0.0,0.0,0.0,0.0,0.0,0.0,0.0,0.0,0.0,0.0,0.0,0.0,0.0,0.0,0.0,0.0,0.0,0.0,0.0,0.0,0.0,0.0,0.0,0.0,0.0,0.0,0.0,0.0,0.0,0.0,0.0,0.0,0.0,0.0,0.0,0.0,0.0,0.0,0.0,0.0,0.0,0.0,0.0,0.0,0.0,0.0,0.0,0.0,0.0,0.0,0.0,0.0,0.0,0.0,0.0,0.0,0.0,0.0,0.0,0.0,0.0,0.0,0.0,0.0,0.0,0.0,0.0,0.0,0.0,0.0,0.0,0.0,0.0,0.0,0.0,0.0,0.0,0.0,0.0,0.0,0.0,0.0,0.0,0.0,0.0,0.0,0.0,0.0,0.0,0.0,0.0,0.0,0.0,0.0,0.0,0.0,0.0,0.0,0.0,0.0,0.0,0.0,0.0,0.0,0.0,0.0,0.0,0.0,0.0,0.0,0.0,0.0,0.0,0.0,0.0,0.0,0.0,0.0,0.0,0.0,0.0,0.0,0.0,0.0,0.0,0.0,0.0,0.0,0.0,0.0,0.0,0.0,0.0,0.0,0.0,0.0,0.0,0.0,0.0,0.0,0.0,0.0,0.0,0.0,0.0,0.0,0.0,0.0,0.0,0.0,0.0,0.0,0.0,0.0,0.0,0.0,0.0,0.0,0.0,0.0,0.0,0.0,0.0,0.0,0.0,0.7869,0.0,0.0,0.0,0.0,0.0,0.0,0.0,0.0,0.0,0.0,0.0,0.0,0.0,0.0,0.0,0.0,0.0,0.0,0.0,0.0,0.0,0.0,0.0,0.0,0.0,0.0,0.0,0.0,0.0,0.0,0.0,0.0,0.0,0.0,0.0,0.0,0.0,0.0,0.0,0.0,0.0,0.0,0.0,0.0,0.0,0.0,0.0,0.0,0.0,0.0,0.0,0.0,0.0,0.0,0.0,0.0,0.0,0.0,0.0,0.0,0.0,0.0,0.0,0.0,0.0,0.0,0.0,0.0,0.0,0.0,0.0,0.0,0.0,0.0,0.0,0.0,0.0,0.0,0.0,0.0,0.0,0.0,0.0,0.0,0.0,0.0,0.0,0.0,0.0,0.0,0.0,0.0,0.0,0.0,0.0,0.0,0.0,0.0,0.0,0.0,0.0,0.0,0.0,0.0,0.0,0.0,0.0,0.0,0.0,0.0,0.4626,0.5291,0.596,0.6652,0.7314,0.0,0.0,0.0,0.0,0.0,0.0,0.0,0.0,0.0,0.0,0.0,0.0,0.0,0.0,0.0,0.0,0.0,0.0,0.0,0.0,0.0,0.0,0.0,0.0,0.0,0.0,0.0,0.0,0.0,0.0,0.0,0.0,0.0,0.0,0.0,0.0,0.0,0.0,0.0,0.0,0.0,0.0,0.0,0.0,0.0,0.0,0.0,0.0,0.0,0.0,0.0,0.0,0.0,0.0,0.0,0.0,0.0,0.0,0.0,0.0,0.0,0.0,0.0,0.0,0.0,0.0,0.0,0.0,0.0,0.0,0.0,0.0,0.0,0.0,0.0,0.0,0.0,0.0,0.0,0.0,0.0,0.0,0.0,0.0,0.0,0.0,0.0,0.0,0.0,0.0,0.0,0.0,0.0,0.0,0.0,0.0,0.0,0.0,0.0,0.0,0.0,0.0,0.0,0.0,0.0,0.0,0.0,0.0,0.0,0.0,0.0,0.0,0.5662,0.6364,0.7128,0.0,0.0,0.0,0.0,0.0,0.0,0.0,0.0,0.0,0.0,0.0,0.0,0.0,0.0,0.0,0.0,0.0,0.0,0.0,0.0,0.0,0.0,0.0,0.0,0.0,0.0,0.0,0.0,0.0,0.0,0.0,0.0,0.0,0.0,0.0,0.0,0.0,0.0,0.0,0.0,0.0,0.0,0.0,0.0,0.0,0.0,0.0,0.0,0.0,0.0,0.0,0.0,0.0,0.0,0.0,0.0,0.0,0.0,0.0,0.0,0.0,0.0,0.0,0.0,0.0,0.0,0.0,0.0,0.0,0.0,0.0,0.0,0.0,0.0,0.0,0.0,0.0,0.0,0.0,0.0,0.0,0.0,0.0,0.0,0.0,0.0,0.0,0.0,0.0,0.0,0.0,0.0,0.0,0.0,0.0,0.0,0.0,0.0,0.0,0.0,0.0,0.0,0.0,0.0,0.0,0.0,0.0,0.0,0.0,0.0,0.4927,0.5598,0.6321,0.0,0.7739,0.0,0.0,0.0,0.0,0.0,0.0,0.0,0.0,0.0,0.0,0.0,0.0,0.0,0.0,0.0,0.0,0.0,0.0,0.0,0.0,0.0,0.0,0.0,0.0,0.0,0.0,0.0,0.0,0.0,0.0,0.0,0.0,0.0,0.0,0.0,0.0,0.0,0.0,0.0,0.0,0.0,0.0,0.0,0.0,0.0,0.0,0.0,0.0,0.0,0.0,0.0,0.0,0.0,0.0,0.0,0.0,0.0,0.0,0.0,0.0,0.0,0.0,0.0,0.0,0.0,0.0,0.0,0.0,0.0,0.0,0.0,0.0,0.0,0.0,0.0,0.0,0.0,0.0,0.0,0.0,0.0,0.0,0.0,0.0,0.0,0.0,0.0,0.0,0.0,0.0,0.0,0.0,0.0,0.0,0.0,0.0,0.0,0.0,0.0,0.0,0.0,0.0,0.0,0.0,0.0,0.0,0.0,0.0,0.0,0.0,0.4899,0.5167,0.6171,0.7357,0.0,0.0,0.0,0.0,0.0,0.0,0.0,0.0,0.0,0.0,0.0,0.0,0.0,0.0,0.0,0.0,0.0,0.0,0.0,0.0,0.0,0.0,0.0,0.0,0.0,0.0,0.0,0.0,0.0,0.0,0.0,0.0,0.0,0.0,0.0,0.0,0.0,0.0,0.0,0.0,0.0,0.0,0.0,0.0,0.0,0.0,0.0,0.0,0.0,0.0,0.0,0.0,0.0,0.0,0.0,0.0,0.0,0.0,0.0,0.0,0.0,0.0,0.0,0.0,0.0,0.0,0.0,0.0,0.0,0.0,0.0,0.0,0.0,0.0,0.0,0.0,0.0,0.0,0.0,0.0,0.0,0.0,0.0,0.0,0.0,0.0,0.0,0.0,0.0,0.0,0.0,0.0,0.0,0.0,0.0,0.0,0.0,0.0,0.0,0.0,0.0,0.0,0.0,0.0,0.0,0.0,0.0,0.0,0.0,0.0,0.4427,0.492,0.5293,0.6359,0.7468,0.871,0.0,0.0,0.0,0.0,0.0,0.0,0.0,0.0,0.0,0.0,0.0,0.0,0.0,0.0,0.0,0.0,0.0,0.0,0.0,0.0,0.0,0.0,0.0,0.0,0.0,0.0,0.0,0.0,0.0,0.0,0.0,0.0,0.0,0.0,0.0,0.0,0.0,0.0,0.0,0.0,0.0,0.0,0.0,0.0,0.0,0.0,0.0,0.0,0.0,0.0,0.0,0.0,0.0,0.0,0.0,0.0,0.0,0.0,0.0,0.0,0.0,0.0,0.0,0.0,0.0,0.0,0.0,0.0,0.0,0.0,0.0,0.0,0.0,0.0,0.0,0.0,0.0,0.0,0.0,0.0,0.0,0.0,0.0,0.0,0.0,0.0,0.0,0.0,0.0,0.0,0.0,0.0,0.0,0.0,0.0,0.0,0.0,0.0,0.0,0.0,0.0,0.0,0.0,0.0,0.0,0.0,0.0,0.0,0.3815,0.4404,0.5269,0.6518,0.7115,0.7524,0.0,0.0,0.0,0.0,0.0,0.0,0.0,0.0,0.0,0.0,0.0,0.0,0.0,0.0,0.0,0.0,0.0,0.0,0.0,0.0,0.0,0.0,0.0,0.0,0.0,0.0,0.0,0.0,0.0,0.0,0.0,0.0,0.0,0.0,0.0,0.0,0.0,0.0,0.0,0.0,0.0,0.0,0.0,0.0,0.0,0.0,0.0,0.0,0.0,0.0,0.0,0.0,0.0,0.0,0.0,0.0,0.0,0.0,0.0,0.0,0.0,0.0,0.0,0.0,0.0,0.0,0.0,0.0,0.0,0.0,0.0,0.0,0.0,0.0,0.0,0.0,0.0,0.0,0.0,0.0,0.0,0.0,0.0,0.0,0.0,0.0,0.0,0.0,0.0,0.0,0.0,0.0,0.0,0.0,0.0,0.0,0.0,0.0,0.0,0.0,0.0,0.0,0.0,0.0,0.0,0.0,0.0,0.0,0.0,0.3708,0.4754,0.647,0.8781,0.7959,0.7915,0.0,0.0,0.0,0.0,0.0,0.0,0.0,0.0,0.0,0.0,0.0,0.0,0.0,0.0,0.0,0.0,0.0,0.0,0.0,0.0,0.0,0.0,0.0,0.0,0.0,0.0,0.0,0.0,0.0,0.0,0.0,0.0,0.0,0.0,0.0,0.0,0.0,0.0,0.0,0.0,0.0,0.0,0.0,0.0,0.0,0.0,0.0,0.0,0.0,0.0,0.0,0.0,0.0,0.0,0.0,0.0,0.0,0.0,0.0,0.0,0.0,0.0,0.0,0.0,0.0,0.0,0.0,0.0,0.0,0.0,0.0,0.0,0.0,0.0,0.0,0.0,0.0,0.0,0.0,0.0,0.0,0.0,0.0,0.0,0.0,0.0,0.0,0.0,0.0,0.0,0.0,0.0,0.0,0.0,0.0,0.0,0.0,0.0,0.0,0.0,0.0,0.0,0.0,0.0,0.0,0.0,0.0,0.0,0.0,0.4625,0.0,0.7197,0.958,0.8464,0.8165,0.0,0.0,0.0,0.0,0.0,0.0,0.0,0.0,0.0,0.0,0.0,0.0,0.0,0.0,0.0,0.0,0.0,0.0,0.0,0.0,0.0,0.0,0.0,0.0,0.0,0.0,0.0,0.0,0.0,0.0,0.0,0.0,0.0,0.0,0.0,0.0,0.0,0.0,0.0,0.0,0.0,0.0,0.0,0.0,0.0,0.0,0.0,0.0,0.0,0.0,0.0,0.0,0.0,0.0,0.0,0.0,0.0,0.0,0.0,0.0,0.0,0.0,0.0,0.0,0.0,0.0,0.0,0.0,0.0,0.0,0.0,0.0,0.0,0.0,0.0,0.0,0.0,0.0,0.0,0.0,0.0,0.0,0.0,0.0,0.0,0.0,0.0,0.0,0.0,0.0,0.0,0.0,0.0,0.0,0.0,0.0,0.0,0.0,0.0,0.0,0.0,0.0,0.0,0.0,0.0,0.0,0.0,0.0,0.468,0.6737,0.6749,0.7434,0.87,0.8697,0.8236,0.0,0.0,0.0,0.0,0.0,0.0,0.0,0.0,0.0,0.0,0.0,0.0,0.0,0.0,0.0,0.0,0.0,0.0,0.0,0.0,0.0,0.0,0.0,0.0,0.0,0.0,0.0,0.0,0.0,0.0,0.0,0.0,0.0,0.0,0.0,0.0,0.0,0.0,0.0,0.0,0.0,0.0,0.0,0.0,0.0,0.0,0.0,0.0,0.0,0.0,0.0,0.0,0.0,0.0,0.0,0.0,0.0,0.0,0.0,0.0,0.0,0.0,0.0,0.0,0.0,0.0,0.0,0.0,0.0,0.0,0.0,0.0,0.0,0.0,0.0,0.0,0.0,0.0,0.0,0.0,0.0,0.0,0.0,0.0,0.0,0.0,0.0,0.0,0.0,0.0,0.0,0.0,0.0,0.0,0.0,0.0,0.0,0.0,0.0,0.0,0.0,0.0,0.0,0.0,0.0,0.0,0.0,0.0,0.0,0.5857,0.6417,0.7592,0.9321,0.8883,0.8693,0.0,0.0,0.0,0.0,0.0,0.0,0.0,0.0,0.0,0.0,0.0,0.0,0.0,0.0,0.0,0.0,0.0,0.0,0.0,0.0,0.0,0.0,0.0,0.0,0.0,0.0,0.0,0.0,0.0,0.0,0.0,0.0,0.0,0.0,0.0,0.0,0.0,0.0,0.0,0.0,0.0,0.0,0.0,0.0,0.0,0.0,0.0,0.0,0.0,0.0,0.0,0.0,0.0,0.0,0.0,0.0,0.0,0.0,0.0,0.0,0.0,0.0,0.0,0.0,0.0,0.0,0.0,0.0,0.0,0.0,0.0,0.0,0.0,0.0,0.0,0.0,0.0,0.0,0.0,0.0,0.0,0.0,0.0,0.0,0.0,0.0,0.0,0.0,0.0,0.0,0.0,0.0,0.0,0.0,0.0,0.0,0.0,0.0,0.0,0.0,0.0,0.0,0.0,0.0,0.0,0.0,0.0,0.0,0.0,0.5587,0.7166,0.8851,1.0488,0.9648,0.9259,0.9313,0.0,0.0,0.0,0.0,0.0,0.0,0.0,0.0,0.0,0.0,0.0,0.0,0.0,0.0,0.0,0.0,0.0,0.0,0.0,0.0,0.0,0.0,0.0,0.0,0.0,0.0,0.0,0.0,0.0,0.0,0.0,0.0,0.0,0.0,0.0,0.0,0.0,0.0,0.0,0.0,0.0,0.0,0.0,0.0,0.0,0.0,0.0,0.0,0.0,0.0,0.0,0.0,0.0,0.0,0.0,0.0,0.0,0.0,0.0,0.0,0.0,0.0,0.0,0.0,0.0,0.0,0.0,0.0,0.0,0.0,0.0,0.0,0.0,0.0,0.0,0.0,0.0,0.0,0.0,0.0,0.0,0.0,0.0,0.0,0.0,0.0,0.0,0.0,0.0,0.0,0.0,0.0,0.0,0.0,0.0,0.0,0.0,0.0,0.0,0.0,0.0,0.0,0.0,0.0,0.0,0.0,0.0,0.0,0.5892,0.8816,1.0686,1.1479,1.0763,0.9802,0.0,0.0,0.0,0.0,0.0,0.0,0.0,0.0,0.0,0.0,0.0,0.0,0.0,0.0,0.0,0.0,0.0,0.0,0.0,0.0,0.0,0.0,0.0,0.0,0.0,0.0,0.0,0.0,0.0,0.0,0.0,0.0,0.0,0.0,0.0,0.0,0.0,0.0,0.0,0.0,0.0,0.0,0.0,0.0,0.0,0.0,0.0,0.0,0.0,0.0,0.0,0.0,0.0,0.0,0.0,0.0,0.0,0.0,0.0,0.0,0.0,0.0,0.0,0.0,0.0,0.0,0.0,0.0,0.0,0.0,0.0,0.0,0.0,0.0,0.0,0.0,0.0,0.0,0.0,0.0,0.0,0.0,0.0,0.0,0.0,0.0,0.0,0.0,0.0,0.0,0.0,0.0,0.0,0.0,0.0,0.0,0.0,0.0,0.0,0.0,0.0,0.0,0.0,0.0,0.0,0.0,0.0,0.0,0.0,0.8428,0.9348,0.9849,0.9887,1.0131,0.9795,0.0,0.0,0.0,0.0,0.0,0.0,0.0,0.0,0.0,0.0,0.0,0.0,0.0,0.0,0.0,0.0,0.0,0.0,0.0,0.0,0.0,0.0,0.0,0.0,0.0,0.0,0.0,0.0,0.0,0.0,0.0,0.0,0.0,0.0,0.0,0.0,0.0,0.0,0.0,0.0,0.0,0.0,0.0,0.0,0.0,0.0,0.0,0.0,0.0,0.0,0.0,0.0,0.0,0.0,0.0,0.0,0.0,0.0,0.0,0.0,0.0,0.0,0.0,0.0,0.0,0.0,0.0,0.0,0.0,0.0,0.0,0.0,0.0,0.0,0.0,0.0,0.0,0.0,0.0,0.0,0.0,0.0,0.0,0.0,0.0,0.0,0.0,0.0,0.0,0.0,0.0,0.0,0.0,0.0,0.0,0.0,0.0,0.0,0.0,0.0,0.0,0.0,0.0,0.0,0.0,0.0,0.0,0.0,0.6297,0.7614,0.8889,0.9398,0.8998,0.9902,1.0083,0.0,0.0,0.0,0.0,0.0,0.0,0.0,0.0,0.0,0.0,0.0,0.0,0.0,0.0,0.0,0.0,0.0,0.0,0.0,0.0,0.0,0.0,0.0,0.0,0.0,0.0,0.0,0.0,0.0,0.0,0.0,0.0,0.0,0.0,0.0,0.0,0.0,0.0,0.0,0.0,0.0,0.0,0.0,0.0,0.0,0.0,0.0,0.0,0.0,0.0,0.0,0.0,0.0,0.0,0.0,0.0,0.0,0.0,0.0,0.0,0.0,0.0,0.0,0.0,0.0,0.0,0.0,0.0,0.0,0.0,0.0,0.0,0.0,0.0,0.0,0.0,0.0,0.0,0.0,0.0,0.0,0.0,0.0,0.0,0.0,0.0,0.0,0.0,0.0,0.0,0.0,0.0,0.0,0.0,0.0,0.0,0.0,0.0,0.0,0.0,0.0,0.0,0.0,0.0,0.0,0.0,0.0,0.0,0.5706,0.5444,0.8021,0.9247,0.8972,1.019,1.0528,0.0,0.0,0.0,0.0,0.0,0.0,0.0,0.0,0.0,0.0,0.0,0.0,0.0,0.0,0.0,0.0,0.0,0.0,0.0,0.0,0.0,0.0,0.0,0.0,0.0,0.0,0.0,0.0,0.0,0.0,0.0,0.0,0.0,0.0,0.0,0.0,0.0,0.0,0.0,0.0,0.0,0.0,0.0,0.0,0.0,0.0,0.0,0.0,0.0,0.0,0.0,0.0,0.0,0.0,0.0,0.0,0.0,0.0,0.0,0.0,0.0,0.0,0.0,0.0,0.0,0.0,0.0,0.0,0.0,0.0,0.0,0.0,0.0,0.0,0.0,0.0,0.0,0.0,0.0,0.0,0.0,0.0,0.0,0.0,0.0,0.0,0.0,0.0,0.0,0.0,0.0,0.0,0.0,0.0,0.0,0.0,0.0,0.0,0.0,0.0,0.0,0.0,0.0,0.0,0.0,0.0,0.0,0.0,0.5582,0.8141,0.8036,0.8978,1.1045,1.1069,1.045,0.0,0.0,0.0,0.0,0.0,0.0,0.0,0.0,0.0,0.0,0.0,0.0,0.0,0.0,0.0,0.0,0.0,0.0,0.0,0.0,0.0,0.0,0.0,0.0,0.0,0.0,0.0,0.0,0.0,0.0,0.0,0.0,0.0,0.0,0.0,0.0,0.0,0.0,0.0,0.0,0.0,0.0,0.0,0.0,0.0,0.0,0.0,0.0,1.95,0.0,0.0,0.0,0.0,0.0,0.0,0.0,0.0,0.0,0.0,0.0,0.0,0.0,0.0,0.0,0.0,0.0,0.0,0.0,0.0,0.0,0.0,0.0,0.0,0.0,0.0,0.0,0.0,0.0,0.0,0.0,0.0,0.0,0.0,0.0,0.0,0.0,0.0,0.0,0.0,0.0,0.0,0.0,0.0,0.0,0.0,0.0,0.0,0.0,0.0,0.0,0.0,0.0,0.0,0.0,0.0,0.0,0.0,0.0,0.5801,0.7699,0.7928,0.8776,1.0227,0.9875,0.9585,0.0,0.0,0.0,0.0,0.0,0.0,0.0,0.0,0.0,0.0,0.0,0.0,0.0,0.0,0.0,0.0,0.0,0.0,0.0,0.0,0.0,0.0,0.0,0.0,0.0,0.0,0.0,0.0,0.0,0.0,0.0,0.0,0.0,0.0,0.0,0.0,0.0,0.0,0.0,0.0,0.0,0.0,0.0,0.0,0.0,0.0,0.0,0.0,0.0,0.0,0.0,0.0,0.0,0.0,0.0,0.0,0.0,0.0,0.0,0.0,0.0,0.0,0.0,0.0,0.0,0.0,0.0,0.0,0.0,0.0,0.0,0.0,0.0,0.0,0.0,0.0,0.0,0.0,0.0,0.0,0.0,0.0,0.0,0.0,0.0,0.0,0.0,0.0,0.0,0.0,0.0,0.0,0.0,0.0,0.0,0.0,0.0,0.0,0.0,0.0,0.0,0.0,0.0,0.0,0.0,0.0,0.0,0.5226,0.6142,0.665,0.7944,0.8573,0.8637,0.841,0.874,0.965,0.0,0.0,0.0,0.0,0.0,0.0,0.0,0.0,0.0,0.0,0.0,0.0,0.0,0.0,0.0,0.0,0.0,0.0,0.0,0.0,0.0,0.0,0.0,0.0,0.0,0.0,0.0,0.0,0.0,0.0,0.0,0.0,0.0,0.0,0.0,0.0,0.0,0.0,1.7652,1.7651,0.0,0.0,0.0,0.0,0.0,0.0,0.0,0.0,1.988,0.0,0.0,0.0,0.0,0.0,0.0,0.0,0.0,0.0,0.0,0.0,0.0,0.0,0.0,0.0,0.0,0.0,0.0,0.0,0.0,0.0,0.0,0.0,0.0,0.0,0.0,0.0,0.0,0.0,0.0,0.0,0.0,0.0,0.0,0.0,0.0,0.0,0.0,0.0,0.0,0.0,0.0,0.0,0.0,0.0,0.0,0.0,0.0,0.0,0.0,0.0,0.0,0.0,0.0,0.0,0.0,0.553,0.5816,0.6701,0.8165,0.8488,0.8573,0.8634,0.938,0.9306,0.8308,0.0,0.0,0.0,0.0,0.0,0.0,0.0,0.0,0.0,0.0,0.0,0.0,0.0,0.0,0.0,0.0,0.0,0.0,0.0,0.0,0.0,0.0,0.0,0.0,0.0,0.0,0.0,0.0,0.0,0.0,0.0,0.0,0.0,0.0,0.0,0.0,0.0,0.0,0.0,1.8358,1.8566,0.0,0.0,0.0,0.0,0.0,0.0,0.0,0.0,2.0287,0.0,0.0,0.0,0.0,0.0,0.0,0.0,0.0,0.0,0.0,0.0,0.0,0.0,0.0,0.0,0.0,0.0,0.0,0.0,0.0,0.0,0.0,0.0,0.0,0.0,0.0,0.0,0.0,0.0,0.0,0.0,0.0,0.0,0.0,0.0,0.0,0.0,0.0,0.0,0.0,0.0,0.0,0.0,0.0,0.0,0.0,0.0,0.0,0.0,0.0,0.0,0.0,0.0,0.0,0.0,0.5926,0.6745,0.8029,0.9615,0.8972,0.8975,0.963,0.9312,0.8923,0.0,0.0,0.0,0.0,0.0,0.0,0.0,0.0,0.0,0.0,0.0,0.0,0.0,0.0,0.0,0.0,0.0,0.0,0.0,0.0,0.0,0.0,0.0,0.0,0.0,0.0,0.0,0.0,0.0,0.0,0.0,0.0,0.0,0.0,0.0,0.0,0.0,0.0,0.0,0.0,1.8905,1.9238,2.0299,0.0,0.0,0.0,0.0,0.0,0.0,2.0414,2.0267,0.0,0.0,0.0,0.0,0.0,0.0,0.0,0.0,0.0,0.0,0.0,0.0,0.0,0.0,0.0,0.0,0.0,0.0,0.0,0.0,0.0,0.0,0.0,0.0,0.0,0.0,0.0,0.0,0.0,0.0,0.0,0.0,0.0,0.0,0.0,0.0,0.0,0.0,0.0,0.0,0.0,0.0,0.0,0.0,0.0,0.0,0.0,0.0,0.0,0.0,0.0,0.0,0.0,0.0,0.0,0.6483,0.7934,0.9382,1.0614,0.9637,0.9437,1.0227,0.9004,0.8616,0.0,0.0,0.0,0.0,0.0,0.0,0.0,0.0,0.0,0.0,0.0,0.0,0.0,0.0,0.0,0.0,0.0,0.0,0.0,0.0,0.0,0.0,0.0,0.0,0.0,0.0,0.0,0.0,0.0,0.0,0.0,0.0,0.0,0.0,0.0,0.0,0.0,0.0,0.0,0.0,0.0,1.9827,2.077,2.0113,0.0,0.0,0.0,0.0,2.0346,2.0446,0.0,0.0,0.0,0.0,0.0,0.0,0.0,0.0,0.0,0.0,0.0,0.0,0.0,0.0,0.0,0.0,0.0,0.0,0.0,0.0,0.0,0.0,0.0,0.0,0.0,0.0,0.0,0.0,0.0,0.0,0.0,0.0,0.0,0.0,0.0,0.0,0.0,0.0,0.0,0.0,0.0,0.0,0.0,0.0,0.0,0.0,0.0,0.0,0.0,0.0,0.0,0.0,0.0,0.0,0.0,0.0,0.7861,0.9448,1.0382,1.0683,1.0505,0.9968,0.89,0.9214,0.9358,0.0,0.0,0.0,0.0,0.0,0.0,0.0,0.0,0.0,0.0,0.0,0.0,0.0,0.0,0.0,0.0,0.0,0.0,0.0,0.0,0.0,0.0,0.0,0.0,0.0,0.0,0.0,0.0,0.0,0.0,0.0,0.0,0.0,0.0,0.0,0.0,0.0,0.0,0.0,0.0,0.0,2.0141,2.0214,2.012,2.0113,0.0,0.0,2.0952,2.1009,2.1443,0.0,0.0,0.0,0.0,0.0,0.0,0.0,0.0,0.0,0.0,0.0,0.0,0.0,0.0,0.0,0.0,0.0,0.0,0.0,0.0,0.0,0.0,0.0,0.0,0.0,0.0,0.0,0.0,0.0,0.0,0.0,0.0,0.0,0.0,0.0,0.0,0.0,0.0,0.0,0.0,0.0,0.0,0.0,0.0,0.0,0.0,0.0,0.0,0.0,0.0,0.0,0.0,0.0,0.0,0.0,0.7434,0.8156,0.9792,1.1033,1.1828,1.1104,1.077,1.0965,1.0794,1.0572,0.0,0.0,0.0,0.0,0.0,0.0,0.0,0.0,0.0,0.0,0.0,0.0,0.0,0.0,0.0,0.0,0.0,0.0,0.0,0.0,0.0,0.0,0.0,0.0,0.0,0.0,0.0,0.0,0.0,0.0,0.0,0.0,0.0,0.0,0.0,0.0,0.0,0.0,0.0,0.0,0.0,0.0,2.0639,2.0707,0.0,0.0,0.0,2.0989,2.0661,0.0,0.0,0.0,0.0,0.0,0.0,0.0,0.0,0.0,0.0,0.0,0.0,0.0,0.0,0.0,0.0,0.0,0.0,0.0,0.0,0.0,0.0,0.0,0.0,0.0,0.0,0.0,0.0,0.0,0.0,0.0,0.0,0.0,0.0,0.0,0.0,0.0,0.0,0.0,0.0,0.0,0.0,0.0,0.0,0.0,0.0,0.0,0.0,0.0,0.0,0.0,0.0,0.0,0.0,0.0,0.0,0.0,0.8236,1.0209,1.1765,1.27,1.1769,1.1703,1.2754,1.2101,0.0,0.0,0.0,0.0,0.0,0.0,0.0,0.0,0.0,0.0,0.0,0.0,0.0,0.0,0.0,0.0,0.0,0.0,0.0,0.0,0.0,0.0,0.0,0.0,0.0,0.0,0.0,1.6929,0.0,0.0,0.0,0.0,0.0,0.0,0.0,0.0,0.0,0.0,0.0,0.0,0.0,0.0,2.0799,2.0982,2.1046,2.1156,0.0,0.0,2.1009,2.0715,2.153,2.1804,0.0,0.0,0.0,0.0,0.0,0.0,0.0,0.0,0.0,0.0,0.0,0.0,0.0,0.0,0.0,0.0,0.0,0.0,0.0,0.0,0.0,0.0,0.0,0.0,0.0,0.0,0.0,0.0,0.0,0.0,0.0,0.0,0.0,0.0,0.0,0.0,0.0,0.0,0.0,0.0,0.0,0.0,0.0,0.0,0.0,0.0,0.0,0.0,0.0,0.0,0.0,0.0,0.0,0.0,0.0,0.8305,1.1113,1.27,1.277,1.2704,1.27,1.2762,1.2458,1.2262,0.0,0.0,0.0,0.0,0.0,0.0,0.0,0.0,0.0,0.0,0.0,0.0,0.0,0.0,0.0,0.0,0.0,0.0,0.0,0.0,0.0,0.0,0.0,0.0,0.0,0.0,0.0,0.0,0.0,0.0,0.0,0.0,0.0,0.0,0.0,0.0,0.0,0.0,0.0,0.0,0.0,2.0982,2.0672,2.0926,2.1303,0.0,0.0,2.1283,2.1784,2.2378,2.2405,2.1236,0.0,0.0,0.0,0.0,0.0,0.0,0.0,0.0,0.0,0.0,0.0,0.0,0.0,0.0,0.0,0.0,0.0,0.0,0.0,0.0,0.0,0.0,0.0,0.0,0.0,0.0,0.0,0.0,0.0,0.0,0.0,0.0,0.0,0.0,0.0,0.0,0.0,0.0,0.0,0.0,0.0,0.0,0.0,0.0,0.0,0.0,0.0,0.0,0.0,0.0,0.0,0.0,0.0,0.819,0.8179,1.119,1.277,1.277,1.277,1.2902,1.3169,1.2703,1.2551,0.0,0.0,0.0,0.0,0.0,0.0,0.0,0.0,0.0,0.0,0.0,0.0,0.0,0.0,0.0,0.0,0.0,0.0,0.0,0.0,0.0,0.0,0.0,0.0,0.0,0.0,0.0,0.0,1.845,1.8387,1.833,0.0,0.0,0.0,0.0,0.0,0.0,0.0,0.0,0.0,0.0,2.0924,2.1409,2.1585,0.0,0.0,2.1797,2.1597,2.1463,2.1937,2.1924,2.0762,2.1169,0.0,0.0,0.0,0.0,0.0,0.0,0.0,0.0,0.0,0.0,0.0,0.0,0.0,0.0,0.0,0.0,0.0,0.0,0.0,0.0,0.0,0.0,0.0,0.0,0.0,0.0,0.0,0.0,0.0,0.0,0.0,0.0,0.0,0.0,0.0,0.0,0.0,0.0,0.0,0.0,0.0,0.0,0.0,0.0,0.0,0.0,0.0,0.0,0.0,0.0,0.0,0.0,0.8349,0.8575,1.1352,1.277,1.277,1.277,1.2968,1.3358,1.305,1.289,0.0,0.0,0.0,0.0,0.0,0.0,0.0,0.0,0.0,0.0,0.0,0.0,0.0,0.0,0.0,0.0,0.0,0.0,0.0,0.0,0.0,0.0,0.0,0.0,0.0,0.0,0.0,0.0,1.8803,1.8698,1.8336,0.0,0.0,0.0,0.0,0.0,0.0,0.0,0.0,0.0,0.0,2.1206,2.169,2.1797,2.1864,2.1923,2.1777,2.161,2.1289,2.1663,2.1865,2.1383,0.0,0.0,0.0,0.0,0.0,0.0,0.0,0.0,0.0,0.0,0.0,0.0,0.0,0.0,0.0,0.0,0.0,0.0,0.0,0.0,0.0,0.0,0.0,0.0,0.0,0.0,0.0,0.0,0.0,0.0,-0.1613,0.0,0.0,0.0,0.0,0.0,0.0,0.0,0.0,0.0,0.0,0.0,0.0,0.0,0.0,0.0,0.0,0.0,0.0,0.0,0.0,0.0,0.0,0.8645,0.9647,1.1734,1.277,1.277,1.277,1.2972,1.3367,1.3354,1.341,1.3453,0.0,0.0,0.0,0.0,0.0,0.0,0.0,0.0,0.0,0.0,0.0,0.0,0.0,0.0,0.0,0.0,0.0,0.0,0.0,0.0,0.0,0.0,0.0,0.0,0.0,0.0,1.7624,1.7998,1.8312,0.0,0.0,0.0,0.0,0.0,0.0,0.0,0.0,0.0,0.0,2.1045,2.1757,2.1216,2.1383,2.1641,2.1648,2.1336,2.1229,2.1561,2.177,2.2394,0.0,0.0,0.0,0.0,0.0,0.0,0.0,0.0,0.0,0.0,0.0,0.0,0.0,0.0,0.0,0.0,0.0,0.0,0.0,0.0,0.0,0.0,0.0,0.0,0.0,0.0,0.0,-0.4076,-0.3397,0.0,0.0,0.0,0.0,0.0,0.0,0.0,0.0,0.0,0.0,0.0,0.1752,0.1781,0.0,0.0,0.0,0.0,0.0,0.0,0.0,0.0,0.0,0.0,0.0,0.0,0.8277,0.8657,1.1359,1.277,1.277,1.3104,1.3367,1.3752,1.3949,1.4001,1.3844,0.0,0.0,0.0,0.0,0.0,0.0,0.0,0.0,0.0,0.0,0.0,0.0,0.0,0.0,0.0,0.0,0.0,0.0,0.0,0.0,0.0,0.0,0.0,0.0,0.0,1.8221,0.0,0.0,0.0,0.0,0.0,0.0,0.0,0.0,0.0,0.0,0.0,2.0027,2.0581,2.0926,2.1116,2.1109,2.1363,2.1755,0.0,0.0,0.0,0.0,0.0,0.0,0.0,0.0,0.0,0.0,0.0,0.0,0.0,0.0,2.7595,2.5033,2.5032,2.5301,2.4871,0.0,0.0,0.0,0.0,0.0,0.0,0.0,0.0,0.0,0.0,0.0,0.0,0.0,0.0,-0.4035,0.0,-0.2531,0.0,0.0,0.0,0.0,0.0,0.0,0.0,0.0,0.1774,0.1803,0.1812,0.1774,0.1783,0.0,0.1955,0.2198,0.0,0.0,0.0,0.0,0.0,0.0,0.0,0.0,0.8404,0.9169,1.1522,1.277,1.2836,1.3169,1.356,1.3875,1.4338,1.4484,1.4345,1.3863,1.3447,0.0,0.0,0.0,0.0,0.0,0.0,0.0,0.0,0.0,0.0,0.0,0.0,0.0,0.0,0.0,0.0,0.0,0.0,0.0,0.0,0.0,0.0,0.0,1.8366,0.0,0.0,0.0,0.0,0.0,0.0,0.0,0.0,0.0,1.9639,1.9992,2.044,2.0999,2.1122,2.1056,2.0835,0.0,0.0,0.0,0.0,0.0,0.0,0.0,2.1628,2.2559,2.4131,2.592,2.7886,2.9583,3.0436,2.9914,0.0,0.0,2.7542,2.7169,2.7259,2.725,2.725,2.7259,2.725,2.7575,2.808,0.0,0.0,0.0,0.0,0.0,0.0,0.0,0.0,-0.4252,-0.313,0.0,-0.0828,0.0,0.0,0.0,0.0,0.0,0.1324,0.0,0.0,0.1902,0.1927,0.1791,0.1789,0.1788,0.1841,0.2069,0.2387,0.2707,0.2789,0.0,0.0,0.0,0.0,0.0,0.0,0.9064,1.1045,1.2225,1.2762,1.2836,1.3235,1.356,1.3945,1.4539,1.4861,1.4842,1.4355,1.4118,1.4265,1.3154,0.0,0.0,0.0,0.0,0.0,0.0,0.0,0.0,0.0,0.0,0.0,0.0,0.0,0.0,0.0,0.0,0.0,0.0,0.0,0.0,1.8306,0.0,0.0,0.0,0.0,0.0,0.0,0.0,0.0,0.0,0.0,1.9427,2.0349,2.1082,2.1089,0.0,0.0,0.0,0.0,2.1206,2.0207,2.1121,2.1526,2.0246,2.1893,2.3548,2.4242,0.0,0.0,3.009,3.0963,3.1028,2.9532,3.1041,3.2073,3.0446,2.9331,2.8682,2.8539,2.8599,2.8613,2.8604,2.9527,3.0318,-0.5663,0.0,0.0,0.0,0.0,-0.5067,-0.4699,-0.4086,-0.3805,-0.2949,-0.1823,-0.1468,0.0,0.0,0.0,0.0,0.0,0.0,0.1813,0.1848,0.1892,0.1921,0.1937,0.1937,0.1937,0.1936,0.2278,0.2452,0.2583,0.3031,0.3273,0.3278,0.0,0.0,0.0,0.0,0.9367,1.0531,1.1909,1.2837,1.3235,1.3555,1.401,1.4604,1.48,1.487,1.4866,1.4761,1.4492,1.4114,1.3892,0.0,0.0,0.0,0.0,0.0,0.0,0.0,0.0,0.0,0.0,0.0,0.0,0.0,0.0,0.0,0.0,0.0,0.0,0.0,1.83,1.8632,1.8601,0.0,0.0,0.0,0.0,0.0,0.0,0.0,0.0,0.0,2.0298,2.0319,2.0561,0.0,0.0,2.0307,1.9973,2.0675,2.1638,2.2849,2.2433,0.0,2.3772,2.3077,2.324,2.562,2.8959,3.1518,3.1823,3.2597,3.2938,3.2453,3.209,3.166,3.1302,3.1799,3.1782,3.0967,3.1452,3.1808,3.0967,3.1732,3.2753,-0.5847,-0.5204,-0.5273,-0.5223,-0.5159,-0.5108,-0.4843,-0.4336,-0.3938,-0.3003,-0.1851,-0.1319,-0.0734,-0.0216,0.0496,0.0,0.0,0.0,0.1921,0.216,0.2161,0.2244,0.2406,0.2407,0.2408,0.2407,0.2715,0.2899,0.2899,0.3331,0.3847,0.4286,0.0,0.0,0.6075,0.8255,0.9817,1.0748,1.1873,1.2745,1.3248,1.384,1.4338,1.4866,1.487,1.487,1.487,1.487,1.4696,1.4397,1.4255,1.3849,0.0,0.0,0.0,0.0,0.0,0.0,0.0,0.0,0.0,0.0,0.0,1.5834,1.6136,0.0,0.0,0.0,1.8499,1.8601,1.8601,1.8704,0.0,0.0,0.0,0.0,0.0,0.0,0.0,1.9369,2.0854,2.1664,2.0912,2.0677,2.0728,2.1136,2.0989,2.0755,2.0528,0.0,2.2171,2.3261,2.3014,2.3269,2.481,2.4544,2.513,2.8148,2.9936,3.151,3.2102,3.2572,3.2858,3.2806,3.2587,3.2447,3.2377,3.3164,3.3085,3.1076,3.1789,3.2508,3.1657,3.2727,3.3817,-0.596,-0.5406,-0.502,-0.5028,-0.5198,-0.52,-0.5282,-0.5206,-0.4156,-0.2995,-0.1629,-0.0463,0.0682,0.1721,0.1802,0.0,0.1788,0.1873,0.2095,0.2524,0.2463,0.2649,0.296,0.296,0.296,0.296,0.3331,0.3517,0.351,0.3723,0.4436,0.5555,0.5783,0.6354,0.7302,0.8963,1.0373,1.148,1.1963,1.2518,1.3139,1.3965,1.4586,1.487,1.487,1.487,1.487,1.487,1.487,1.4852,1.4388,1.4062,1.3996,0.0,0.0,0.0,0.0,0.0,0.0,0.0,0.0,0.0,0.0,0.0,0.0,0.0,0.0,0.0,1.92,0.0,1.9267,1.8949,0.0,0.0,0.0,1.879,1.9528,2.1102,2.1754,2.0736,0.0,0.0,2.1303,2.1176,2.1403,2.2017,2.2238,2.2171,2.169,2.2325,2.2774,2.2537,2.3342,2.4225,2.504,2.6318,2.799,3.0091,3.0146,3.0097,3.1316,3.1764,3.1728,3.1868,3.2797,3.3521,3.359,3.3381,3.2517,2.9568,3.0501,3.1719,3.1367,3.2438,3.3381,-0.5841,-0.5706,-0.5397,-0.529,-0.5349,-0.5349,-0.4372,-0.2718,-0.2435,-0.1128,0.0898,0.1203,0.1559,0.1843,0.1851,0.1861,0.1875,0.1883,0.2084,0.2362,0.2183,0.238,0.296,0.2714,0.2775,0.3022,0.3331,0.3517,0.3577,0.4752,0.5291,0.5339,0.7209,0.8211,0.8381,0.9541,1.048,1.1227,1.1415,1.2137,1.3439,1.4162,1.4646,1.4866,1.487,1.487,1.487,1.487,1.487,1.4866,1.4794,1.4501,1.4033,1.3927,0.0,0.0,0.0,0.0,0.0,0.0,0.0,0.0,0.0,1.6339,1.6426,0.0,1.8016,0.0,1.9833,2.0907,2.0907,2.1559,0.0,0.0,2.0465,2.0326,1.9641,2.0786,2.1409,2.0654,2.1625,2.2161,2.1842,2.1777,2.2084,2.2873,2.2285,2.1864,2.2164,2.2779,2.3576,2.4559,2.5454,2.6583,2.7648,2.8373,2.8625,2.8046,2.9647,3.1076,3.1437,3.2508,3.3233,3.3164,3.2517,3.2158,3.2088,3.1147,2.971,2.8148,3.0518,3.2517,3.028,3.0997,3.1728,-0.5603,-0.5603,-0.5435,-0.5382,-0.5382,-0.5382,-0.4313,-0.2574,-0.2015,-0.0728,0.101,0.1586,0.1829,0.1846,0.1859,0.1866,0.1867,0.1879,0.213,0.2564,0.2387,0.2698,0.3326,0.3227,0.3237,0.3422,0.363,0.3702,0.3764,0.5174,0.6073,0.6389,0.8383,0.95,0.971,1.0067,1.04,1.0807,1.1391,1.2175,1.3313,1.4152,1.4494,1.4388,1.4473,1.4388,1.4114,1.4104,1.4099,1.4099,1.4099,1.4066,1.3901,1.3821,1.3851,0.0,0.0,0.0,0.0,0.0,0.0,0.0,0.0,0.0,0.0,0.0,1.8527,1.9136,2.0567,2.1398,2.1143,2.1246,2.1039,2.041,2.0534,2.0629,2.0555,2.1705,2.2305,2.1733,2.2629,2.3101,2.2506,2.2372,2.2652,2.342,2.2959,2.2699,2.3146,2.3621,2.4181,2.5037,2.5522,2.6437,2.7932,2.878,2.9147,2.9075,2.979,3.0714,3.1358,3.2228,3.2736,3.2736,3.2079,3.1508,3.1437,3.0209,2.8924,2.8644,3.0509,3.1367,2.886,2.9932,3.1076,-0.5382,-0.5382,-0.5382,-0.5382,-0.5382,-0.5382,-0.465,-0.3301,-0.2239,-0.1064,0.028,0.1346,0.1795,0.1797,0.1823,0.1778,0.1778,0.1862,0.2169,0.2699,0.2758,0.3114,0.3712,0.3763,0.3849,0.391,0.391,0.3999,0.4183,0.5535,0.6801,0.8032,0.9299,1.0277,1.0847,1.0461,1.0294,1.0457,1.1617,1.2462,1.2996,1.3826,1.4114,1.3646,1.3769,1.3603,1.3155,1.3065,1.3065,1.3065,1.3179,1.3446,1.3911,1.3654,1.3863,0.0,1.4473,0.0,0.0,0.0,0.0,0.0,0.0,0.0,0.0,1.8708,1.948,2.0731,2.1345,2.1457,2.0978,2.0168,1.9921,2.0385,2.0446,2.0901,2.1833,2.3113,2.3659,2.2928,2.3931,2.4203,2.3044,2.2954,2.314,2.3641,2.3754,2.3828,2.4189,2.4422,2.4563,2.4629,2.4777,2.5719,2.6867,2.8213,2.9504,3.043,3.0217,2.9924,3.1288,3.1508,3.1508,3.1508,3.1358,3.1147,3.1217,3.0067,2.9131,2.8701,2.979,2.994,2.7939,2.9147,3.0501,-0.5382,-0.5382,-0.5382,-0.5382,-0.5382,-0.5382,-0.4145,-0.2127,-0.1903,-0.056,0.1402,0.1683,0.1795,0.1795,0.1801,0.1804,0.1804,0.181,0.2053,0.2369,0.2427,0.2733,0.3356,0.3426,0.3549,0.379,0.3847,0.4419,0.5499,0.6841,0.7951,0.882,1.0135,1.0695,1.0488,0.0,0.0,0.0,1.1826,1.2628,1.2881,1.2841,1.2961,1.3169,1.3127,0.0,1.3065,1.3065,1.3065,1.3127,1.3464,0.0,0.0,0.0,0.0,0.0,0.0,0.0,0.0,0.0,0.0,0.0,1.8155,1.8221,1.864,1.9663,2.0592,2.128,2.2225,2.2574,2.2087,2.2586,2.3038,2.3147,2.3439,2.3426,2.2853,2.3475,2.3611,2.2585,2.2921,2.3201,2.301,2.308,2.3367,2.3714,2.3975,2.4229,2.4509,2.4589,2.4629,2.4629,2.5499,2.6437,2.6874,2.8076,2.8573,2.8364,2.9861,3.0926,3.1296,3.1437,3.1437,3.1437,3.0501,2.9639,2.9639,2.9353,2.8565,2.7128,2.736,2.7585,2.7077,2.8357,2.878,-0.5382,0.0,-0.5382,-0.5382,0.0,-0.5382,-0.4033,-0.1791,-0.1791,-0.0448,0.1795,0.1795,0.1795,0.1795,0.1795,0.1795,0.1795,0.1795,0.1973,0.2272,0.2273,0.2567,0.3218,0.3244,0.3433,0.3726,0.3786,0.4466,0.5647,0.717,0.8331,0.9252,1.0674,1.1281,1.1098,1.1335,1.1317,1.0991,1.1973,1.2648,1.3031,1.3154,1.3164,1.3074,1.3173,0.0,0.0,0.0,0.0,0.0,0.0,0.0,0.0,1.5486,0.0,1.7048,1.7386,1.7774,1.8414,1.8716,1.9048,1.9434,1.947,1.9356,1.9102,2.1046,2.215,2.1969,2.2868,2.34,2.3154,2.3604,2.3672,2.3201,2.3475,2.3345,2.2585,2.2859,2.2996,2.2722,2.2791,2.2866,2.2866,2.3133,2.3434,2.3734,2.4022,2.4309,2.4569,2.4629,2.4629,2.4629,2.5212,2.5719,2.5786,2.6357,2.7143,2.7085,2.822,2.9433,3.0288,3.0359,3.0359,3.0288,2.9067,2.8076,2.8004,2.7498,2.6561,2.5625,2.5918,2.6137,2.5552,2.6561,2.7063,-0.5382,-0.5382,-0.5382,-0.5382,-0.5382,-0.5382,-0.4033,-0.1791,0.0,0.0,0.0,0.1795,0.1795,0.1795,0.1795,0.1795,0.1795,0.1795,0.1907,0.2132,0.2188,0.2523,0.303,0.3126,0.3375,0.3665,0.3782,0.4392,0.5554,0.6997,0.8361,0.9564,1.0973,1.1804,1.1893,1.2423,1.2368,1.1754,1.2224,1.2712,1.32,1.3467,1.3447,1.2965,1.3254,1.3206,1.2847,1.2923,1.3089,1.3293,1.392,1.4541,1.5235,1.5869,1.6598,1.7418,1.7738,1.83,1.9157,1.9572,2.0032,2.0623,2.0873,2.0724,2.0049,2.223,2.3331,2.2647,2.34,2.3877,2.3884,2.3741,2.3338,2.2654,2.2791,2.266,2.2242,2.2379,2.2791,2.2859,2.2866,2.2866,2.2941,2.3133,2.344,2.3734,2.4022,2.4309,2.4563,2.4629,2.4629,2.4629,2.4777,2.4703,2.4636,2.5145,2.5499,2.6721,2.7223,2.7787,2.878,2.8988,2.878,2.8788,2.7505,2.6648,2.6437,2.5566,2.4408,2.397,2.4897,2.5258,2.387,2.4529,2.5111,-0.5382,-0.5382,-0.5382,-0.5382,-0.5382,-0.5382,-0.4033,-0.1679,0.0392,0.1458,0.1795,0.1795,0.1795,0.1795,0.1795,0.1795,0.1795,0.1795,0.1795,0.1851,0.2076,0.2412,0.275,0.2978,0.3261,0.3605,0.3661,0.4378,0.5586,0.6889,0.823,0.9535,1.0855,1.1733,1.2165,1.2539,1.28,1.2953,1.2975,1.3008,1.3088,1.2608,1.2396,1.2467,1.2441,1.2498,1.2813,1.2866,1.3167,1.39,1.4483,1.5391,1.6714,1.7291,1.7973,1.8746,1.9265,1.9621,1.9772,2.0225,2.062,2.0723,2.1559,2.2046,2.1942,2.2307,2.2853,2.3536,2.3809,2.3884,2.3809,2.3126,2.2928,2.3468,2.3201,2.2934,2.3065,2.3406,2.3406,2.2928,2.2866,2.2866,2.2893,2.3126,2.344,2.3728,2.4055,2.4315,2.4556,2.4629,2.4629,2.4629,2.4629,2.4629,2.471,2.5712,2.6364,2.6801,2.7795,2.8421,2.8708,2.7924,2.7288,2.723,2.6078,2.5212,2.4991,2.4482,2.3964,2.3593,2.3883,2.358,2.2707,2.3147,2.3438,-0.5382,-0.5382,-0.5382,-0.5382,-0.5326,-0.4033,-0.2855,-0.1623,0.0728,0.1795,0.1795,0.1795,0.1795,0.1795,0.1795,0.1795,0.1795,0.1963,0.2019,0.2075,0.2356,0.2636,0.2915,0.3025,0.325,0.3589,0.3615,0.4304,0.5495,0.6777,0.8096,0.9373,1.0771,1.1473,1.1478,1.2243,1.2964,1.3444,1.344,1.3405,1.34,1.3126,1.3027,1.3112,1.3131,1.3291,1.3589,1.3717,1.4176,1.511,1.5727,1.649,1.7559,1.8212,1.8692,1.9054,1.944,1.973,1.9875,2.037,2.0665,2.0735,2.1144,2.1697,2.2235,2.2853,2.3126,2.3058,2.3536,2.3884,2.3884,2.3454,2.3256,2.3331,2.3201,2.2996,2.2654,2.3065,2.3201,2.2729,2.2722,2.2866,2.2866,2.3133,2.344,2.3748,2.4135,2.4482,2.4542,2.4629,2.4629,2.4629,2.4629,2.4629,2.4629,2.5139,2.5573,2.5646,2.6218,2.6634,2.6707,2.5998,2.5793,2.5646,2.4998,2.4562,2.4334,2.4112,2.3742,2.3228,2.3147,2.285,2.2489,2.2489,2.2632,-0.541,-0.541,-0.539,-0.5382,-0.5156,-0.28,-0.1791,-0.1567,0.0784,0.1795,0.1795,0.1795,0.1795,0.1795,0.1795,0.1851,0.1907,0.2132,0.2244,0.2356,0.2581,0.2861,0.3081,0.3137,0.325,0.3587,0.3587,0.4088,0.5046,0.6285,0.7579,0.8814,1.025,1.0872,1.076,1.1975,1.2979,1.3684,1.3688,1.3688,1.3688,1.3688,1.3688,1.3698,1.384,1.4038,1.4237,1.4449,1.5037,1.6077,1.6716,1.7389,1.8232,1.8746,1.9136,1.9096,1.932,1.9615,1.9959,2.0406,2.0665,2.0665,2.0665,2.1144,2.2173,2.3058,2.3331,2.2853,2.3468,2.3884,2.3877,2.359,2.3386,2.2928,2.2859,2.2585,2.1966,2.2379,2.2647,2.2372,2.2654,2.2866,2.2906,2.3073,2.3354,2.3748,2.4269,2.4609,2.4629,2.4629,2.4629,2.4629,2.4629,2.4629,2.4629,2.4629,2.471,2.4629,2.4703,2.4918,2.4777,2.4636,2.4488,2.4556,2.4408,2.4186,2.389,2.3742,2.3519,2.3005,2.2856,2.2632,2.2408,2.234,2.234,-0.5496,-0.5484,-0.542,-0.5382,-0.5162,-0.2857,-0.185,-0.1513,0.0729,0.1795,0.1797,0.1795,0.1795,0.1795,0.1795,0.1907,0.2132,0.2188,0.2356,0.2637,0.2693,0.2859,0.3081,0.3137,0.325,0.3587,0.3587,0.3699,0.3923,0.5046,0.6266,0.7596,0.8824,0.9892,1.0722,1.1917,1.2913,1.3684,1.3688,1.3688,1.3688,1.3688,1.3688,1.3688,1.3707,1.3821,1.4043,1.4237,1.5071,1.6493,1.6835,1.7588,1.8816,1.9078,1.9136,1.9084,1.9326,1.976,2.0189,2.0509,2.0665,2.0665,2.0665,2.1151,2.2173,2.2372,2.2853,2.3468,2.3809,2.3809,2.3809,2.2983,2.2578,2.2791,2.2035,2.149,2.1835,2.2104,2.231,2.2304,2.2654,2.2866,2.2873,2.2939,2.3173,2.3708,2.4156,2.4529,2.4562,2.4482,2.4488,2.4562,2.4562,2.4562,2.4562,2.4629,2.4556,2.4556,2.4562,2.4562,2.4488,2.4267,2.4044,2.4038,2.3816,2.3593,2.3445,2.3222,2.3005,2.2856,2.2632,2.234,2.234,2.234,2.234,-0.5532,-0.5584,-0.5551,-0.5537,-0.5247,-0.3747,-0.2594,-0.1729,-0.0057,0.1081,0.1762,0.1803,0.1795,0.1795,0.1795,0.1851,0.1963,0.23,0.2581,0.275,0.3029,0.3309,0.3362,0.3362,0.3475,0.3587,0.3587,0.3587,0.3811,0.4814,0.5669,0.6383,0.8185,0.9251,0.9489,1.1441,1.2845,1.3509,1.3627,1.3688,1.3688,1.3688,1.3688,1.3688,1.3688,1.3792,1.4005,1.4203,1.5036,1.6588,1.6883,1.7653,1.9008,1.9136,1.9136,1.9102,1.9483,1.9808,2.0038,2.043,2.0665,2.0665,2.0665,2.1151,2.2166,2.2304,2.251,2.2853,2.2989,2.2989,2.2859,2.1966,2.1622,2.2035,2.1622,2.1352,2.1766,2.2104,2.2242,2.2104,2.2523,2.2866,2.2893,2.3026,2.3307,2.3721,2.3925,2.4056,2.422,2.4044,2.389,2.3896,2.389,2.4038,2.4193,2.426,2.426,2.426,2.4267,2.426,2.4186,2.389,2.3667,2.3661,2.3445,2.3296,2.3154,2.3005,2.2862,2.2638,2.2489,2.234,2.234,2.234,2.234,-0.568,-0.5678,-0.5598,-0.5586,-0.5469,-0.435,-0.3117,-0.1821,-0.0639,0.0636,0.1793,0.1829,0.182,0.1818,0.1803,0.1851,0.1963,0.2356,0.2637,0.2861,0.3251,0.3531,0.3587,0.3587,0.3587,0.3587,0.3587,0.3587,0.3699,0.4424,0.4925,0.5268,0.7396,0.8527,0.8637,1.0993,1.2691,1.3337,1.3537,1.3632,1.3679,1.3688,1.3688,1.3688,1.3688,1.3764,1.3915,1.4118,1.4947,1.6491,1.6786,1.7585,1.9002,1.9136,1.9136,1.912,1.9585,1.9881,1.9893,2.0376,2.0665,2.0665,2.0665,2.1151,2.1966,2.2035,2.2035,2.231,2.2042,2.1829,2.1766,2.1144,2.1012,2.1484,2.1283,2.1214,2.1559,2.1966,2.2035,2.1904,2.2317,2.2722,2.2769,2.3044,2.34,2.3466,2.3595,2.3593,2.3667,2.3536,2.3438,2.3364,2.337,2.3451,2.3748,2.3816,2.3816,2.3816,2.3816,2.3816,2.3816,2.3519,2.3296,2.3296,2.3222,2.3073,2.2781,2.2713,2.2713,2.2414,2.234,2.234,2.234,2.234,2.234,-0.5776,-0.5761,-0.5623,-0.5596,-0.553,-0.4416,-0.3178,-0.1947,-0.0705,0.0588,0.1707,0.1879,0.188,0.1874,0.1823,0.1965,0.2133,0.2247,0.2525,0.3026,0.3081,0.3306,0.3587,0.3587,0.3587,0.3587,0.3587,0.3587,0.3587,0.3699,0.3699,0.3867,0.6154,0.7597,0.848,1.0698,1.2425,1.3252,1.3395,1.3495,1.3655,1.3684,1.3688,1.3688,1.3688,1.3698,1.3736,1.3915,1.4735,1.6374,1.6623,1.7418,1.8914,1.9136,1.9136,1.912,1.9573,1.9881,1.9941,2.0364,2.0659,2.0665,2.0665,2.1144,2.1966,2.1415,2.1283,2.2173,2.1421,2.0873,2.0873,2.0873,2.0873,2.1214,2.0943,2.0937,2.1214,2.1697,2.1766,2.1904,2.2173,2.2448,2.2385,2.2925,2.3071,2.3089,2.3256,2.3389,2.3174,2.3212,2.3246,2.3215,2.3147,2.3005,2.3296,2.3445,2.3445,2.3445,2.3451,2.3451,2.3296,2.3147,2.2999,2.2856,2.2707,2.2558,2.2408,2.2334,2.2414,2.234,2.234,2.234,2.234,2.234,2.234,-0.5867,-0.5865,-0.5831,-0.5818,-0.5758,-0.5333,-0.4422,-0.3084,-0.1857,-0.0537,0.0716,0.1539,0.1885,0.1885,0.1864,0.1899,0.1996,0.2167,0.2494,0.2863,0.3026,0.3306,0.3587,0.3587,0.3587,0.3587,0.3587,0.3587,0.3587,0.3587,0.3587,0.3977,0.5922,0.7385,0.8267,1.0555,1.2172,1.2657,1.3124,1.3429,1.3509,1.3622,1.3688,1.3688,1.3688,1.3688,1.3688,1.3896,1.4777,1.6347,1.659,1.7465,1.8844,1.9136,1.9136,1.9102,1.9416,1.97,1.9899,2.0213,2.0496,2.0647,2.0665,2.0804,2.1151,2.0949,2.0873,2.1151,2.1012,2.0741,2.0735,2.0873,2.1081,2.1144,2.1075,2.1144,2.149,2.1697,2.1904,2.2104,2.2448,2.2585,2.233,2.2546,2.2684,2.2728,2.2583,2.2494,2.2597,2.2546,2.2584,2.2657,2.2632,2.2558,2.2632,2.2924,2.3073,2.3079,2.3079,2.3079,2.2999,2.2781,2.2632,2.2632,2.234,2.234,2.234,2.234,2.234,2.234,2.234,2.234,2.234,2.234,2.234,-0.5919,-0.5919,-0.5919,-0.5919,-0.5919,-0.5919,-0.5112,-0.3871,-0.2982,-0.1636,-0.0061,0.0961,0.1495,0.1915,0.1915,0.1899,0.187,0.2093,0.2362,0.2737,0.2904,0.3245,0.3585,0.3625,0.3617,0.3613,0.3595,0.3587,0.3587,0.3587,0.3587,0.3755,0.581,0.7141,0.8036,1.0247,1.1792,1.2417,1.305,1.3315,1.3395,1.3584,1.3688,1.3688,1.3688,1.3688,1.3688,1.3835,1.4646,1.614,1.652,1.738,1.8902,1.9136,1.9136,1.9096,1.939,1.9591,1.9869,2.0134,2.0394,2.0635,2.0665,2.0665,2.0665,2.0665,2.0665,2.0665,2.0665,2.0665,2.0735,2.1006,2.1144,2.1075,2.1144,2.1283,2.1553,2.1697,2.1897,2.2104,2.2448,2.2454,2.211,2.2179,2.227,2.2306,2.1829,2.1802,2.1949,2.2007,2.1988,2.2108,2.2285,2.2327,2.2414,2.2632,2.2707,2.2713,2.2787,2.2707,2.2707,2.2483,2.2334,2.234,2.234,2.234,2.234,2.234,2.234,2.234,2.234,2.234,2.234,2.234,2.234,-0.5919,-0.5919,-0.5919,-0.5919,-0.5919,-0.5919,-0.5174,-0.4122,-0.3872,-0.2395,-0.0368,0.0061,0.0859,0.1787,0.2027,0.1956,0.1927,0.1961,0.2238,0.2696,0.2813,0.3167,0.3691,0.3702,0.3673,0.3668,0.3617,0.359,0.3587,0.3587,0.3587,0.3921,0.5427,0.6922,0.7959,0.9816,1.1453,1.2464,1.2956,1.3164,1.3381,1.3561,1.367,1.3684,1.3688,1.3688,1.3688,1.3703,1.4564,1.6108,1.6431,1.728,1.8796,1.9136,1.9136,1.9108,1.9372,1.9579,1.9869,2.011,2.0346,2.0611,2.0665,2.0665,2.0665,2.0665,2.0665,2.0665,2.0665,2.0665,2.0735,2.1012,2.1075,2.0804,2.1081,2.1283,2.1352,2.1559,2.1835,2.1904,2.2104,2.1973,2.1628,2.176,2.1923,2.1565,2.143,2.1463,2.1398,2.1577,2.1861,2.1933,2.2134,2.2243,2.2297,2.234,2.234,2.234,2.2414,2.2414,2.2489,2.234,2.234,2.234,2.234,2.234,2.234,2.234,2.234,2.234,2.234,2.234,2.234,2.234,2.234,-0.5919,-0.5919,-0.5919,-0.5919,-0.5919,-0.5919,-0.5607,-0.5174,-0.4369,-0.2954,-0.1416,-0.0431,0.074,0.1791,0.2038,0.2033,0.1962,0.2012,0.2167,0.2483,0.2711,0.3005,0.3413,0.3691,0.3776,0.3683,0.3661,0.3627,0.3595,0.359,0.3587,0.3921,0.5371,0.6755,0.7796,0.9688,1.1228,1.217,1.2697,1.3013,1.3169,1.3377,1.3542,1.3674,1.3688,1.3688,1.3688,1.3688,1.462,1.6264,1.642,1.7201,1.8697,1.9136,1.9136,1.9078,1.9138,1.9416,1.982,1.9971,2.0213,2.0557,2.0665,2.0665,2.0665,2.0665,2.0665,2.0665,2.0665,2.0665,2.0735,2.1006,2.1006,2.0741,2.1214,2.1559,2.1628,2.1904,2.2042,2.1835,2.1904,2.1697,2.1352,2.1484,2.149,2.1214,2.1098,2.0986,2.1116,2.128,2.1498,2.1782,2.1933,2.2134,2.2218,2.2273,2.2291,2.2321,2.234,2.234,2.234,2.234,2.234,2.234,2.234,2.234,2.234,2.234,2.234,2.234,2.234,2.234,2.234,2.234,2.234,-0.5919,-0.5919,-0.5919,-0.5919,-0.5919,-0.5919,-0.5919,-0.5794,-0.5049,-0.3939,-0.2646,-0.1354,0.0,0.1172,0.1791,0.2038,0.2038,0.2038,0.2078,0.2284,0.2697,0.3055,0.3352,0.3692,0.3771,0.378,0.3713,0.3694,0.3655,0.3632,0.3621,0.3902,0.5222,0.6589,0.7744,0.9464,1.0903,1.2032,1.2603,1.2923,1.3069,1.3277,1.3485,1.3655,1.3688,1.3688,1.3688,1.3688,1.4505,1.6062,1.6819,1.7885,1.896,1.9136,1.9136,1.9136,1.9108,1.932,1.9796,1.9893,2.011,2.0551,2.0665,2.0665,2.0665,2.0665,2.0665,2.0665,2.0665,2.0665,2.0735,2.0873,2.0873,2.0741,2.1352,2.1766,2.1835,2.1966,2.1897,2.1697,2.1559,2.1352,2.1151,2.1144,2.1144,2.1006,2.0804,2.0696,2.0895,2.1003,2.1287,2.1523,2.1643,2.1818,2.2122,2.212,2.2156,2.2211,2.234,2.234,2.234,2.234,2.234,2.234,2.234,2.234,2.234,2.234,2.234,2.234,2.234,2.234,2.234,2.234,2.2334,-0.5919,-0.5919,-0.5919,-0.5919,-0.5919,-0.5919,-0.5919,-0.5857,-0.5794,-0.4988,-0.3753,-0.2584,-0.1354,-0.0062,0.1111,0.1667,0.1853,0.2038,0.2037,0.2216,0.2643,0.307,0.3493,0.3763,0.3833,0.3841,0.3774,0.3827,0.3745,0.3762,0.3683,0.3849,0.4814,0.6267,0.7878,0.9196,1.0621,1.2192,1.2635,1.2828,1.3051,1.3244,1.3471,1.367,1.3688,1.3688,1.3688,1.3933,1.4575,1.6055,1.7597,1.8644,1.9018,1.9136,1.9136,1.9136,1.9136,1.9403,1.9724,1.9875,2.0092,2.0533,2.0641,2.0665,2.0665,2.0665,2.0665,2.0665,2.0665,2.0665,2.0665,2.0735,2.0741,2.0804,2.1352,2.1697,2.1835,2.1829,2.1622,2.1352,2.1214,2.1081,2.0804,2.1012,2.0937,2.0804,2.0741,2.0765,2.0732,2.0865,2.1074,2.1256,2.1443,2.1631,2.1861,2.1848,2.1885,2.1945,2.2072,2.2261,2.2321,2.234,2.234,2.234,2.234,2.234,2.234,2.234,2.234,2.234,2.234,2.234,2.234,2.2334,2.2261,-0.5919,-0.5919,-0.5919,-0.5919,-0.5919,-0.5919,-0.5919,-0.5919,-0.5919,-0.5174,-0.3999,-0.3568,-0.2646,-0.1416,-0.0062,0.0555,0.0802,0.1605,0.2038,0.2038,0.2406,0.296,0.3455,0.3751,0.3895,0.3903,0.3834,0.3872,0.383,0.3755,0.3745,0.3801,0.4546,0.5919,0.7877,0.8804,1.0288,1.2105,1.2438,1.2729,1.3093,1.3126,1.3329,1.3655,1.3688,1.3688,1.3808,1.4644,1.544,1.6306,1.7797,1.8801,1.9106,1.9136,1.9136,1.9136,1.9148,1.9211,1.9531,1.9778,2.0044,2.0346,2.0644,2.0665,2.0665,2.0665,2.0665,2.0665,2.0665,2.0665,2.0665,2.0671,2.0804,2.1006,2.1283,2.1559,2.1897,2.1691,2.1276,2.1207,2.1006,2.0804,2.0735,2.0804,2.0804,2.0735,2.0665,2.0671,2.0702,2.072,2.0923,2.1074,2.125,2.1407,2.1546,2.1547,2.1601,2.1649,2.1812,2.2128,2.2231,2.234,2.234,2.234,2.234,2.234,2.234,2.234,2.234,2.234,2.2297,2.2205,2.2241,2.2241,2.209,-0.5919,-0.5919,-0.5919,-0.5919,-0.5919,-0.5919,-0.5919,-0.5919,-0.5857,-0.5485,-0.474,-0.4123,-0.3506,-0.2647,-0.0862,0.0,0.0,0.1419,0.1977,0.2038,0.2345,0.29,0.3394,0.3764,0.3931,0.3905,0.3897,0.3879,0.3847,0.3822,0.3867,0.3914,0.4388,0.5675,0.7557,0.8694,1.0051,1.1806,1.2432,1.2876,1.3173,1.3202,1.3372,1.3632,1.3688,1.3688,1.3868,1.4942,1.5937,1.682,1.7886,1.8686,1.903,1.9136,1.9136,1.9136,1.9136,1.9251,1.9452,1.973,2.0002,2.0261,2.0515,2.0641,2.0665,2.0665,2.0665,2.0665,2.0665,2.0665,2.0735,2.0804,2.1006,2.1144,2.1207,2.1352,2.1829,2.1628,2.1283,2.1075,2.0937,2.0804,2.0741,2.0665,2.0665,2.0665,2.0665,2.0665,2.0671,2.0747,2.0771,2.0923,2.0949,2.107,2.1268,2.1353,2.142,2.1462,2.1541,2.1867,2.2109,2.2261,2.2291,2.2285,2.2315,2.2327,2.2309,2.2309,2.234,2.2321,2.2186,2.2108,2.2096,2.2054,2.1915,-0.5919,-0.5919,-0.5919,-0.5919,-0.5919,-0.5919,-0.5919,-0.5919,-0.5919,-0.5855,-0.5546,-0.4618,-0.4246,-0.3937,-0.1601,0.0,-0.0185,0.1296,0.1915,0.2099,0.2345,0.2837,0.3331,0.3702,0.3824,0.388,0.3887,0.3881,0.3921,0.3887,0.3932,0.3975,0.44,0.5481,0.7097,0.8475,0.999,1.1519,1.2591,1.3107,1.3306,1.3358,1.3466,1.3641,1.3688,1.3808,1.4107,1.4903,1.5986,1.7262,1.7913,1.8577,1.8982,1.9136,1.9136,1.9136,1.9078,1.9181,1.9487,1.9688,1.9965,2.0207,2.0484,2.0659,2.0665,2.0665,2.0665,2.0665,2.0665,2.0665,2.0735,2.0943,2.1081,2.1075,2.1144,2.1144,2.1214,2.149,2.1421,2.0804,2.1006,2.0943,2.0804,2.0665,2.0665,2.0665,2.0665,2.0665,2.0665,2.0671,2.0671,2.0708,2.0768,2.0792,2.0907,2.1086,2.1185,2.1305,2.1341,2.1535,2.186,2.2017,2.2164,2.2176,2.1981,2.2017,2.2144,2.2168,2.2231,2.2188,2.2055,2.1885,2.1818,2.1746,2.1637,-0.5919,-0.5919,-0.5919,-0.5919,-0.5919,-0.5919,-0.5919,-0.5919,-0.5919,-0.5919,-0.5794,-0.5546,-0.5421,-0.5235,-0.2647,-0.16,-0.1047,0.0863,0.1977,0.2038,0.2345,0.2714,0.3146,0.3455,0.3703,0.3826,0.3888,0.3888,0.3881,0.3936,0.3929,0.3918,0.4173,0.5089,0.6919,0.8143,0.9582,1.1388,1.2621,1.3206,1.3362,1.3414,1.3499,1.367,1.3688,1.3983,1.4336,1.4629,1.5631,1.7014,1.7942,1.8529,1.8957,1.9136,1.9136,1.9136,1.9136,1.9102,1.9235,1.9603,1.9905,2.0014,2.0406,2.0665,2.0665,2.0665,2.0665,2.0665,2.0665,2.0665,2.0735,2.0735,2.0873,2.0873,2.0873,2.0873,2.0798,2.0867,2.0943,2.0804,2.0804,2.081,2.0741,2.0665,2.0665,2.0665,2.0665,2.0665,2.0665,2.0665,2.0665,2.0665,2.0684,2.0726,2.0762,2.0929,2.0961,2.1088,2.113,2.1178,2.1504,2.1673,2.1685,2.1667,2.1625,2.174,2.1927,2.1824,2.1764,2.1758,2.1831,2.1637,2.1535,2.1456,2.1354,-0.5919,-0.5919,-0.5919,-0.5919,-0.5919,-0.5919,-0.5919,-0.5919,-0.5919,-0.5919,-0.5919,-0.5919,-0.5546,-0.4803,-0.2954,-0.1723,-0.0678,0.0987,0.2038,0.2099,0.2345,0.2652,0.3022,0.3331,0.364,0.3888,0.3888,0.3888,0.3888,0.3888,0.3885,0.3888,0.3917,0.4811,0.6554,0.7923,0.9456,1.1185,1.2651,1.3424,1.3514,1.3532,1.3556,1.367,1.3688,1.3868,1.4102,1.4813,1.5604,1.6669,1.767,1.8529,1.8969,1.9136,1.9136,1.9136,1.9136,1.9136,1.9199,1.9549,1.9887,1.9893,2.037,2.0587,2.0665,2.0665,2.0665,2.0665,2.0665,2.0665,2.0671,2.0873,2.0873,2.0735,2.0873,2.0873,2.0735,2.0804,2.0873,2.0804,2.0873,2.0804,2.0804,2.0735,2.0665,2.0665,2.0665,2.0665,2.0665,2.0665,2.0665,2.0665,2.0665,2.0678,2.0678,2.0714,2.0826,2.0834,2.0871,2.0901,2.104,2.1142,2.1197,2.1275,2.1402,2.1516,2.1643,2.151,2.145,2.1529,2.1516,2.1372,2.1239,2.113,2.1028,-0.5919,-0.5919,-0.5919,-0.5919,-0.5919,-0.5919,-0.5919,-0.5919,-0.5919,-0.5919,-0.5919,-0.5919,-0.536,-0.4185,-0.2707,-0.1231,0.0308,0.1234,0.2038,0.2038,0.2345,0.2652,0.3022,0.3331,0.364,0.3888,0.3888,0.3888,0.3888,0.3888,0.3888,0.3888,0.3888,0.455,0.5898,0.7787,0.9398,1.0665,1.2594,1.3632,1.366,1.3665,1.3674,1.3684,1.3688,1.3688,1.3988,1.46,1.547,1.6001,1.7282,1.828,1.8879,1.913,1.9136,1.9136,1.9136,1.9136,1.9175,1.9549,1.9887,1.9911,2.037,2.0635,2.0665,2.0665,2.0665,2.0665,2.0665,2.0665,2.0741,2.0873,2.0873,2.0804,2.0937,2.0937,2.0804,2.0943,2.0867,2.0804,2.0804,2.0798,2.0735,2.0665,2.0665,2.0665,2.0665,2.0665,2.0665,2.0665,2.0665,2.0665,2.0665,2.0665,2.0665,2.0671,2.0696,2.0708,2.0714,2.0726,2.0744,2.0828,2.0967,2.1136,2.1263,2.1335,2.1335,2.1245,2.1239,2.1329,2.1245,2.1064,2.0925,2.0804,2.0756,-0.5919,-0.5919,-0.5919,-0.5919,-0.5919,-0.5919,-0.5919,-0.5919,-0.5919,-0.5919,-0.5919,-0.5857,-0.5732,-0.4926,-0.2954,-0.0739,0.0925,0.1791,0.2038,0.21,0.2345,0.2714,0.3022,0.3393,0.364,0.3826,0.3888,0.3888,0.3888,0.3888,0.3888,0.3888,0.3888,0.4378,0.56,0.7423,0.9009,1.0051,1.2109,1.3264,1.3509,1.3688,1.3688,1.3688,1.3688,1.3688,1.3688,1.3937,1.462,1.5875,1.6418,1.7434,1.8464,1.8945,1.9124,1.9136,1.9136,1.9136,1.9151,1.9555,1.9827,1.9996,2.0346,2.0705,2.0665,2.0665,2.0665,2.0665,2.0665,2.0665,2.0665,2.0804,2.0735,2.0735,2.0735,2.081,2.0741,2.0735,2.0804,2.0741,2.0735,2.0798,2.0735,2.0665,2.0665,2.0665,2.0665,2.0665,2.0665,2.0665,2.0665,2.0665,2.0665,2.0665,2.0665,2.0665,2.0678,2.0684,2.0684,2.0684,2.0696,2.0684,2.0786,2.0943,2.0979,2.0973,2.1032,2.1032,2.1003,2.1076,2.0925,2.0756,2.0744,2.0726,2.0714,-0.5919,-0.5919,-0.5919,-0.5919,-0.5919,-0.5919,-0.5919,-0.5919,-0.5919,-0.5919,-0.5919,-0.5857,-0.5485,-0.4679,-0.3692,-0.1478,0.0555,0.179,0.1977,0.21,0.2469,0.2837,0.3085,0.3455,0.3703,0.3888,0.3888,0.3888,0.3888,0.3888,0.3888,0.3888,0.3888,0.4255,0.5047,0.6571,0.8039,0.9259,1.0774,1.2169,1.2964,1.3389,1.3688,1.3688,1.3688,1.3688,1.3748,1.4043,1.4685,1.5686,1.6469,1.7376,1.8235,1.8837,1.9136,1.9136,1.9136,1.9136,1.9185,1.9464,1.97,1.9905,2.0261,2.0521,2.0623,2.0665,2.0665,2.0665,2.0665,2.0665,2.0665,2.0665,2.0665,2.0665,2.0665,2.0665,2.0665,2.0665,2.0665,2.0665,2.0735,2.0735,2.0735,2.0665,2.0665,2.0665,2.0665,2.0665,2.0665,2.0665,2.0665,2.0665,2.0665,2.0665,2.0665,2.0665,2.0665,2.0665,2.0665,2.0665,2.0665,2.0665,2.0665,2.0738,2.0726,2.0814,2.082,2.0804,2.0816,2.0828,2.0762,2.0708,2.0684,2.0671,2.0665,-0.5919,-0.5919,-0.5919,-0.5919,-0.5919,-0.5919,-0.5919,-0.5919,-0.5919,-0.5919,-0.5919,-0.5855,-0.536,-0.4432,-0.3507,-0.2155,0.0062,0.1419,0.1977,0.2162,0.2654,0.296,0.3146,0.3517,0.3888,0.3888,0.3888,0.3888,0.3888,0.3888,0.3888,0.3888,0.3888,0.4133,0.4805,0.5963,0.7004,0.8102,0.9259,1.0593,1.2053,1.3144,1.3688,1.3688,1.3688,1.3688,1.3748,1.4043,1.4699,1.5616,1.6492,1.7414,1.8193,1.8788,1.906,1.9136,1.9136,1.9136,1.9203,1.9332,1.9621,1.9875,2.0128,2.0388,2.0587,2.0665,2.0665,2.0665,2.0665,2.0665,2.0665,2.0665,2.0665,2.0665,2.0665,2.0665,2.0665,2.0665,2.0665,2.0665,2.0665,2.0665,2.0665,2.0665,2.0665,2.0665,2.0665,2.0665,2.0665,2.0665,2.0665,2.0665,2.0665,2.0665,2.0665,2.0665,2.0665,2.0665,2.0665,2.0665,2.0665,2.0665,2.0665,2.0665,2.0671,2.0696,2.0671,2.0665,2.0714,2.0732,2.069,2.0665,2.0665,2.0665,2.0665,-0.5919,-0.5919,-0.5919,-0.5919,-0.5919,-0.5919,-0.5919,-0.5919,-0.5919,-0.5919,-0.5919,-0.5919,-0.5794,-0.5174,-0.3263,-0.1539,-0.0062,0.1111,0.1853,0.2038,0.2654,0.296,0.3085,0.364,0.3888,0.3888,0.3888,0.3888,0.3888,0.3888,0.3888,0.3888,0.3888,0.395,0.4256,0.5356,0.6759,0.7617,0.9015,1.0596,1.1993,1.3144,1.3629,1.3688,1.3688,1.3688,1.3688,1.3923,1.4406,1.5531,1.6165,1.7083,1.8125,1.8788,1.9018,1.9136,1.9136,1.9136,1.9179,1.9289,1.9573,1.9845,2.0104,2.0382,2.0581,2.0665,2.0665,2.0665,2.0665,2.0665,2.0665,2.0665,2.0665,2.0665,2.0665,2.0665,2.0665,2.0665,2.0665,2.0665,2.0665,2.0665,2.0665,2.0665,2.0665,2.0665,2.0665,2.0665,2.0665,2.0665,2.0665,2.0665,2.0665,2.0665,2.0665,2.0665,2.0665,2.0665,2.0665,2.0665,2.0665,2.0665,2.0665,2.0665,2.0665,2.0665,2.0665,2.0665,2.0665,2.0665,2.0665,2.0665,2.0665,2.0665,2.0665,-0.5919,-0.5919,-0.5919,-0.5919,-0.5919,-0.5919,-0.5919,-0.5919,-0.5919,-0.5919,-0.5919,-0.5919,-0.5919,-0.5483,-0.3816,-0.24,-0.1047,0.0308,0.1358,0.2037,0.2654,0.296,0.3146,0.3579,0.3888,0.3888,0.3888,0.3888,0.3888,0.3888,0.3888,0.3888,0.3888,0.3888,0.3888,0.4624,0.554,0.6945,0.8894,1.06,1.1635,1.2784,1.3688,1.3688,1.3688,1.3688,1.3688,1.3748,1.4346,1.5384,1.6104,1.6971,1.8099,1.8746,1.9136,1.9136,1.9136,1.9136,1.9154,1.9257,1.947,1.9784,2.0032,2.0225,2.0539,2.0665,2.0665,2.0665,2.0665,2.0665,2.0665,2.0665,2.0665,2.0665,2.0665,2.0665,2.0665,2.0665,2.0665,2.0665,2.0665,2.0665,2.0665,2.0665,2.0665,2.0665,2.0665,2.0665,2.0665,2.0665,2.0665,2.0665,2.0665,2.0665,2.0665,2.0665,2.0665,2.0665,2.0665,2.0665,2.0665,2.0665,2.0665,2.0665,2.0665,2.0665,2.0665,2.0665,2.0665,2.0665,2.0665,2.0665,2.0665,2.0665,2.0665,-0.5919,-0.5919,-0.5919,-0.5919,-0.5919,-0.5919,-0.5919,-0.5919,-0.5919,-0.5919,-0.5919,-0.5919,-0.5919,-0.5546,-0.4432,-0.3076,-0.1846,-0.0616,0.074,0.1851,0.2531,0.2899,0.3146,0.3517,0.3826,0.3888,0.3888,0.3888,0.3888,0.3888,0.3888,0.3888,0.3888,0.3888,0.3888,0.4133,0.4745,0.6151,0.914,1.0664,1.1212,1.2724,1.3509,1.3688,1.3688,1.3688,1.3688,1.3688,1.4286,1.5443,1.6104,1.6977,1.8119,1.8764,1.9112,1.9136,1.9136,1.9136,1.9136,1.9209,1.938,1.9724,2.0074,2.034,2.0575,2.0665,2.0665,2.0665,2.0665,2.0665,2.0665,2.0665,2.0665,2.0665,2.0665,2.0665,2.0665,2.0665,2.0665,2.0665,2.0665,2.0665,2.0665,2.0665,2.0665,2.0665,2.0665,2.0665,2.0665,2.0665,2.0665,2.0665,2.0665,2.0665,2.0665,2.0665,2.0665,2.0665,2.0665,2.0665,2.0665,2.0665,2.0665,2.0665,2.0665,2.0665,2.0665,2.0665,2.0665,2.0665,2.0665,2.0665,2.0665,2.0665,2.0665,-0.5919,-0.5919,-0.5919,-0.5919,-0.5919,-0.5919,-0.5919,-0.5919,-0.5919,-0.5919,-0.5919,-0.5919,-0.5919,-0.5607,-0.4618,-0.3383,-0.1969,-0.0616,0.0555,0.1543,0.2345,0.259,0.2837,0.3146,0.364,0.3826,0.3888,0.3888,0.3888,0.3888,0.3888,0.3888,0.3888,0.3888,0.4011,0.4196,0.4745,0.6333,0.9137,1.0728,1.1333,1.2539,1.3629,1.3688,1.3688,1.3688,1.3688,1.3688,1.4167,1.5445,1.6109,1.6848,1.794,1.8737,1.9042,1.9136,1.9136,1.9136,1.9136,1.9172,1.9368,1.9833,2.0267,2.0539,2.0647,2.0665,2.0665,2.0665,2.0665,2.0665,2.0665,2.0665,2.0665,2.0665,2.0665,2.0665,2.0665,2.0665,2.0665,2.0665,2.0665,2.0665,2.0665,2.0665,2.0665,2.0665,2.0665,2.0665,2.0665,2.0665,2.0665,2.0665,2.0665,2.0665,2.0665,2.0665,2.0665,2.0665,2.0665,2.0665,2.0665,2.0665,2.0665,2.0665,2.0665,2.0665,2.0665,2.0665,2.0665,2.0665,2.0665,2.0665,2.0665,2.0665,2.0665,-0.5919,-0.5919,-0.5919,-0.5919,-0.5919,-0.5919,-0.5919,-0.5919,-0.5919,-0.5919,-0.5919,-0.5919,-0.5919,-0.5732,-0.5421,-0.3939,-0.2155,-0.1539,-0.037,0.0802,0.1727,0.1973,0.222,0.2837,0.3579,0.3702,0.3826,0.3888,0.3888,0.3888,0.3888,0.3888,0.3888,0.3888,0.4011,0.4624,0.5358,0.6517,0.8894,1.0728,1.1212,1.2599,1.3688,1.3688,1.3688,1.3688,1.3688,1.3688,1.4227,1.4991,1.5876,1.6781,1.7675,1.8548,1.9036,1.9072,1.9136,1.9136,1.9084,1.9114,1.9326,1.9845,2.0334,2.0665,2.0665,2.0665,2.0665,2.0665,2.0665,2.0665,2.0665,2.0665,2.0665,2.0665,2.0665,2.0665,2.0665,2.0665,2.0665,2.0665,2.0665,2.0665,2.0665,2.0665,2.0665,2.0665,2.0665,2.0665,2.0665,2.0665,2.0665,2.0665,2.0665,2.0665,2.0665,2.0665,2.0665,2.0665,2.0665,2.0665,2.0665,2.0665,2.0665,2.0665,2.0665,2.0665,2.0665,2.0665,2.0665,2.0665,2.0665,2.0665,2.0665,2.0665,2.0665,-0.5919,-0.5919,-0.5919,-0.5919,-0.5919,-0.5919,-0.5919,-0.5919,-0.5919,-0.5919,-0.5919,-0.5919,-0.5919,-0.5919,-0.5794,-0.4372,-0.2585,-0.1785,-0.0739,0.0493,0.1666,0.1727,0.1911,0.2405,0.3393,0.3517,0.3765,0.3888,0.3888,0.3888,0.3888,0.3888,0.3888,0.3888,0.4195,0.5174,0.5908,0.6639,0.8897,1.0728,1.1031,1.2664,1.3688,1.3688,1.3688,1.3688,1.3688,1.3748,1.4043,1.4716,1.5497,1.6433,1.7326,1.8138,1.8756,1.9008,1.9136,1.9136,1.9096,1.9289,1.947,1.9887,2.037,2.0605,2.0665,2.0665,2.0665,2.0665,2.0665,2.0665,2.0665,2.0665,2.0665,2.0665,2.0665,2.0665,2.0665,2.0665,2.0665,2.0665,2.0665,2.0665,2.0671,2.0735,2.0735,2.0735,2.0665,2.0665,2.0665,2.0665,2.0665,2.0665,2.0665,2.0665,2.0665,2.0665,2.0665,2.0665,2.0665,2.0665,2.0665,2.0665,2.0665,2.0665,2.0665,2.0665,2.0665,2.0665,2.0665,2.0665,2.0665,2.0665,2.0665,2.0665,2.0665,-0.5919,-0.5919,-0.5919,-0.5919,-0.5919,-0.5919,-0.5919,-0.5919,-0.5919,-0.5919,-0.5919,-0.5919,-0.5919,-0.5919,-0.5919,-0.4372,-0.2524,-0.2031,-0.0985,0.0987,0.1481,0.1913,0.2282,0.2651,0.3208,0.3517,0.3765,0.3888,0.3888,0.3888,0.3888,0.3888,0.3888,0.3888,0.4074,0.5235,0.5847,0.6396,0.9201,1.0486,1.1212,1.2664,1.3569,1.3688,1.3688,1.3688,1.3688,1.3688,1.4002,1.453,1.5263,1.6161,1.7151,1.7915,1.8536,1.9072,1.9072,1.9078,1.9114,1.9573,1.9796,1.9929,2.0364,2.0641,2.0665,2.0665,2.0665,2.0665,2.0665,2.0665,2.0665,2.0665,2.0665,2.0665,2.0665,2.0665,2.0665,2.0665,2.0665,2.0665,2.0665,2.0665,2.0741,2.0741,2.0735,2.0735,2.0735,2.0665,2.0665,2.0665,2.0665,2.0665,2.0665,2.0665,2.0665,2.0665,2.0665,2.0665,2.0665,2.0665,2.0665,2.0665,2.0665,2.0665,2.0665,2.0665,2.0665,2.0665,2.0665,2.0665,2.0665,2.0665,2.0665,2.0665,2.0665,-0.5919,-0.5919,-0.5919,-0.5919,-0.5919,-0.5919,-0.5919,-0.5919,-0.5919,-0.5919,-0.5919,-0.5919,-0.5919,-0.5919,-0.5607,-0.4433,-0.2524,-0.3015,-0.1847,0.0493,0.0802,0.0678,0.1233,0.2405,0.3023,0.3269,0.3579,0.3888,0.3888,0.3888,0.3888,0.3888,0.3888,0.3888,0.4256,0.5112,0.5908,0.6458,0.8836,1.0853,1.1031,1.2603,1.3688,1.3688,1.3688,1.3688,1.3688,1.3688,1.3921,1.4353,1.5108,1.6215,1.707,1.7832,1.8734,1.9072,1.9142,1.9233,1.9344,1.967,1.9857,2.005,2.0334,2.0653,2.0665,2.0665,2.0665,2.0665,2.0665,2.0665,2.0665,2.0665,2.0665,2.0665,2.0665,2.0665,2.0665,2.0665,2.0665,2.0665,2.0665,2.0873,2.0943,2.0943,2.0937,2.0873,2.0804,2.0735,2.0665,2.0665,2.0665,2.0665,2.0665,2.0665,2.0665,2.0665,2.0665,2.0665,2.0665,2.0665,2.0665,2.0665,2.0665,2.0665,2.0665,2.0665,2.0665,2.0665,2.0665,2.0665,2.0665,2.0665,2.0665,2.0665,2.0665,-0.5919,-0.5919,-0.5919,-0.5919,-0.5919,-0.5919,-0.5919,-0.5919,-0.5919,-0.5919,-0.5919,-0.5919,-0.5919,-0.5794,-0.5235,-0.4247,-0.2216,-0.2707,-0.1785,0.0308,0.0185,0.0617,0.1356,0.2157,0.296,0.3269,0.3579,0.3888,0.3888,0.3888,0.3888,0.3888,0.3888,0.3888,0.4318,0.5053,0.5908,0.6764,0.8836,1.0793,1.1333,1.2419,1.3688,1.3688,1.3688,1.3688,1.3688,1.3721,1.3788,1.4367,1.5195,1.6222,1.6968,1.7815,1.8798,1.9008,1.9154,1.9275,1.9446,1.9718,1.9905,2.0068,2.0442,2.0635,2.0665,2.0665,2.0665,2.0665,2.0665,2.0665,2.0665,2.0665,2.0665,2.0665,2.0665,2.0665,2.0735,2.0735,2.0873,2.0804,2.1075,2.1214,2.1283,2.1214,2.1144,2.1006,2.0943,2.0804,2.0665,2.0665,2.0665,2.0665,2.0665,2.0665,2.0665,2.0665,2.0665,2.0665,2.0665,2.0665,2.0665,2.0665,2.0665,2.0665,2.0665,2.0665,2.0665,2.0665,2.0665,2.0665,2.0665,2.0665,2.0665,2.0665,2.0665,-0.5919,-0.5919,-0.5919,-0.5919,-0.5919,-0.5919,-0.5919,-0.5919,-0.5919,-0.5919,-0.5919,-0.5919,-0.5919,-0.5607,-0.4555,-0.3262,-0.2401,-0.2278,-0.0555,0.0555,0.0185,0.0986,0.1849,0.2714,0.3146,0.3455,0.3765,0.3888,0.3888,0.3888,0.3888,0.3888,0.3888,0.3888,0.4318,0.5114,0.5786,0.6764,0.8958,1.0547,1.1212,1.2659,1.3509,1.3688,1.3688,1.3688,1.3703,1.3736,1.3859,1.4284,1.4978,1.5815,1.6667,1.7588,1.8314,1.8874,1.9072,1.9235,1.9507,1.9796,2.0044,2.0255,2.0503,2.0635,2.0665,2.0665,2.0665,2.0665,2.0665,2.0665,2.0665,2.0665,2.0665,2.0665,2.0665,2.0735,2.0735,2.0804,2.1006,2.1207,2.1615,2.1753,2.1628,2.149,2.1346,2.1075,2.0937,2.0804,2.0665,2.0665,2.0665,2.0665,2.0665,2.0665,2.0665,2.0665,2.0665,2.0665,2.0665,2.0665,2.0665,2.0665,2.0665,2.0665,2.0665,2.0665,2.0665,2.0665,2.0665,2.0665,2.0665,2.0665,2.0665,2.0665,2.0665,-0.5919,-0.5919,-0.5919,-0.5919,-0.5919,-0.5919,-0.5919,-0.5919,-0.5919,-0.5919,-0.5919,-0.5919,-0.5919,-0.5732,-0.4493,-0.3139,-0.277,-0.2338,-0.0739,-0.0062,-0.0062,0.074,0.1788,0.2899,0.3208,0.3517,0.3765,0.3888,0.3888,0.3888,0.3888,0.3888,0.3888,0.3888,0.4379,0.5235,0.5663,0.6761,0.9201,1.0361,1.1333,1.2719,1.3389,1.3688,1.3688,1.3688,1.3703,1.3835,1.3991,1.4323,1.5543,1.6535,1.6888,1.8069,1.9008,1.9008,1.9114,1.9253,1.967,1.9845,2.0068,2.0418,2.0617,2.0641,2.0665,2.0665,2.0665,2.0665,2.0665,2.0665,2.0665,2.0665,2.0665,2.0665,2.0665,2.0735,2.0804,2.1283,2.1484,2.216,2.2497,2.2366,2.2242,2.1697,2.149,2.1214,2.1006,2.0804,2.0735,2.0735,2.0665,2.0665,2.0665,2.0665,2.0665,2.0665,2.0665,2.0665,2.0665,2.0665,2.0665,2.0665,2.0665,2.0665,2.0665,2.0665,2.0665,2.0665,2.0665,2.0665,2.0665,2.0665,2.0665,2.0665,2.0665,-0.5919,-0.5919,-0.5919,-0.5919,-0.5919,-0.5919,-0.5919,-0.5919,-0.5919,-0.5919,-0.5919,-0.5919,-0.5857,-0.5546,-0.4,-0.2707,-0.2154,-0.2338,-0.1046,0.0801,-0.0554,0.0801,0.2034,0.3085,0.3393,0.364,0.3765,0.3888,0.3888,0.3888,0.3888,0.3888,0.3888,0.3888,0.4318,0.5112,0.5786,0.7006,0.8711,1.0301,1.1514,1.2659,1.3389,1.3688,1.3688,1.3688,1.3721,1.3901,1.4104,1.449,1.584,1.6764,1.7211,1.8296,1.9078,1.9136,1.9084,1.9362,1.9742,1.9863,2.0189,2.0503,2.0665,2.0665,2.0665,2.0665,2.0665,2.0665,2.0665,2.0665,2.0665,2.0665,2.0665,2.0665,2.0665,2.0665,2.1144,2.176,2.2435,2.3174,2.3311,2.3181,2.2777,2.2173,2.1628,2.1283,2.1006,2.0867,2.0804,2.0804,2.0735,2.0665,2.0665,2.0665,2.0735,2.0735,2.0735,2.0735,2.0665,2.0665,2.0665,2.0665,2.0665,2.0665,2.0665,2.0665,2.0665,2.0665,2.0665,2.0665,2.0665,2.0665,2.0665,2.0665,2.0665,-0.5919,-0.5919,-0.5919,-0.5919,-0.5919,-0.5919,-0.5919,-0.5919,-0.5919,-0.5919,-0.5919,-0.5919,-0.5919,-0.5423,-0.3509,-0.2524,-0.2215,-0.2338,-0.0985,0.2157,-0.0369,0.0246,0.2528,0.3517,0.3579,0.3765,0.3888,0.3888,0.3888,0.3888,0.3888,0.3888,0.3888,0.3888,0.4133,0.5235,0.5908,0.6455,0.8775,1.0853,1.1333,1.2479,1.3688,1.3688,1.3688,1.3693,1.3755,1.3906,1.4118,1.475,1.5676,1.6749,1.7703,1.8361,1.8944,1.9136,1.9136,1.9392,1.9718,1.9881,2.0183,2.0472,2.0665,2.0665,2.0665,2.0665,2.0665,2.0665,2.0665,2.0665,2.0665,2.0665,2.0665,2.0665,2.0665,2.0943,2.1484,2.2503,2.3917,2.452,2.452,2.4121,2.2441,2.1835,2.1559,2.1214,2.1484,2.1408,2.1477,2.1477,2.1214,2.1075,2.1012,2.1012,2.1012,2.1012,2.0804,2.0804,2.0735,2.0665,2.0665,2.0665,2.0665,2.0665,2.0665,2.0665,2.0665,2.0665,2.0665,2.0665,2.0665,2.0665,2.0665,2.0665,2.0665,-0.5919,-0.5919,-0.5919,-0.5919,-0.5919,-0.5919,-0.5919,-0.5919,-0.5919,-0.5919,-0.5919,-0.5919,-0.5855,-0.536,-0.314,-0.2338,-0.2953,-0.1908,-0.0739,0.0246,-0.0677,0.0554,0.296,0.3579,0.3702,0.3826,0.3888,0.3888,0.3888,0.3888,0.3888,0.3888,0.3888,0.3888,0.4071,0.5297,0.5968,0.6213,0.8897,1.0728,1.1088,1.2419,1.3688,1.3688,1.3688,1.3703,1.3807,1.4048,1.4199,1.4606,1.6089,1.7371,1.8553,1.8944,1.9072,1.9136,1.9084,1.9386,1.9706,1.9917,2.0165,2.0478,2.0665,2.0665,2.0665,2.0665,2.0665,2.0665,2.0665,2.0665,2.0665,2.0665,2.0665,2.0665,2.0735,2.1214,2.176,2.3584,2.5338,2.5532,2.5599,2.4385,2.264,2.176,2.1421,2.1684,2.249,2.2826,2.3099,2.3106,2.2435,2.2166,2.1628,2.1565,2.1427,2.1289,2.1144,2.1006,2.1006,2.0873,2.0741,2.0735,2.0804,2.0735,2.0665,2.0665,2.0665,2.0665,2.0665,2.0665,2.0665,2.0665,2.0665,2.0665,2.0665,-0.5857,-0.5861,-0.59,-0.5919,-0.5919,-0.5919,-0.5919,-0.5919,-0.5919,-0.5919,-0.5919,-0.5855,-0.5607,-0.4928,-0.2893,-0.2277,-0.283,-0.1662,-0.0369,0.0123,0.0369,0.154,0.2713,0.364,0.3765,0.3888,0.3888,0.3888,0.3888,0.3888,0.3888,0.3888,0.3888,0.4071,0.4378,0.5356,0.609,0.6458,0.9326,1.0543,1.0967,1.2479,1.3629,1.3688,1.3693,1.3726,1.3915,1.4151,1.4317,1.4862,1.6113,1.7597,1.8617,1.9072,1.9072,1.9136,1.9132,1.9314,1.97,1.9947,2.0134,2.0478,2.0665,2.0665,2.0665,2.0665,2.0665,2.0665,2.0665,2.0665,2.0665,2.0665,2.0665,2.0665,2.1006,2.1415,2.2969,2.4926,2.5667,2.5525,2.539,2.4918,2.3509,2.2976,2.2901,2.3821,2.4424,2.4634,2.4844,2.4791,2.4053,2.3249,2.2709,2.2035,2.1628,2.1559,2.149,2.1352,2.1283,2.1295,2.1232,2.1012,2.0937,2.0934,2.0807,2.0665,2.0665,2.0708,2.0678,2.0665,2.0665,2.0665,2.0665,2.0665,2.0665,-0.5772,-0.5792,-0.5865,-0.5906,-0.5919,-0.5919,-0.5919,-0.5919,-0.5919,-0.5919,-0.5919,-0.5919,-0.5112,-0.3877,-0.2892,-0.2401,-0.1908,-0.1293,-0.0123,0.0615,0.0923,0.2094,0.3083,0.3888,0.3888,0.3888,0.3888,0.3888,0.3888,0.3888,0.3888,0.3888,0.4071,0.4318,0.4928,0.5661,0.6335,0.7314,0.9083,1.0547,1.1575,1.2603,1.3389,1.3688,1.3707,1.3807,1.4,1.4203,1.4407,1.5116,1.6144,1.7597,1.8617,1.9136,1.9136,1.9136,1.9136,1.9374,1.9736,1.9893,2.0207,2.0503,2.0611,2.0665,2.0665,2.0665,2.0665,2.0665,2.0665,2.0665,2.0665,2.0665,2.0665,2.1012,2.1346,2.2153,2.4249,2.6136,2.6069,2.5793,2.5315,2.4979,2.4648,2.4181,2.4641,2.5629,2.6357,2.6632,2.6714,2.6455,2.5927,2.4858,2.3917,2.3113,2.2242,2.1904,2.1835,2.1766,2.1697,2.1716,2.171,2.1494,2.134,2.1157,2.1069,2.0935,2.0798,2.0874,2.0762,2.0702,2.0665,2.0665,2.0665,2.0665,2.0665,-0.5714,-0.5782,-0.58,-0.5847,-0.5908,-0.5916,-0.5919,-0.5916,-0.5919,-0.5919,-0.5919,-0.5794,-0.5174,-0.3876,-0.3753,-0.3139,-0.2094,-0.1231,-0.0554,0.0123,0.1231,0.2526,0.3454,0.3888,0.3888,0.3888,0.3888,0.3888,0.3888,0.3888,0.3888,0.3888,0.4561,0.4805,0.5049,0.5845,0.6825,0.7803,0.9204,1.0793,1.1333,1.2363,1.3449,1.3688,1.3693,1.383,1.4,1.4203,1.4411,1.5003,1.6095,1.7613,1.8553,1.9136,1.9136,1.916,1.9154,1.9404,1.9712,1.9905,2.0231,2.0581,2.0665,2.0665,2.0665,2.0665,2.0665,2.0665,2.0665,2.0665,2.0665,2.0665,2.0735,2.1559,2.2104,2.3781,2.5734,2.6828,2.7302,2.6612,2.5726,2.5584,2.551,2.5173,2.5166,2.6365,2.79,2.818,2.8518,2.8188,2.7602,2.6262,2.4926,2.3992,2.2921,2.2379,2.2248,2.211,2.2112,2.2115,2.2071,2.1919,2.1737,2.1574,2.1386,2.1286,2.1201,2.1032,2.0923,2.0792,2.0702,2.0665,2.0665,2.0665,2.0665]}]]